[[{"header":{"parameterUnit":"m.s-1","parameterCategory":1,"la1":31.0,"la2":29.5877,"lo1":-88.7671,"lo2":-86.6584,"dy":0.0162,"dx":0.0185,"nx":115,"ny":88,"refTime":"2024-07-23T12:00:00:Z","depth":0,"parameterNumber":2,"parameterNumberName":"U-component_of_WINDS"},"data":[0.0,0.0,0.0,0.0,0.0,0.0,0.0,0.0,0.0,0.0,0.0,0.0,0.0,0.0,0.0,0.0,0.0,0.0,0.0,0.0,0.0,0.0,0.0,0.0,0.0,0.0,0.0,0.0,0.0,0.0,0.0,0.0,0.0,0.0,0.0,0.0,0.0,0.0,0.0,0.0,0.0,0.0,0.0,0.0,0.0,0.0,0.0,0.0,0.0,0.0,0.0,0.0,0.0,0.0,0.0,0.0,0.0,0.0,0.0,0.0,0.0,0.0,0.0,0.0,0.0,0.0,0.0,0.0,0.0,0.0,0.0,0.0,0.0,0.0,0.0,0.0,0.0,0.0,0.0,0.0,0.0,0.0,0.0,0.0,0.0,0.0,0.0,0.0,0.0,0.0,0.0,0.0,0.0,0.0,0.0,0.0,0.0,0.0,0.0,0.0,0.0,0.0,0.0,0.0,0.0,0.0,0.0,0.0,0.0,0.0,0.0,0.0,0.0,0.0,0.0,0.0,0.0,0.0,0.0,0.0,0.0,0.0,0.0,0.0,0.0,0.0,0.0,0.0,0.0,0.0,0.0,0.0,0.0,0.0,0.0,0.0,0.0,0.0,0.0,0.0,0.0,0.0,0.0,0.0,0.0,0.0,0.0,0.0,0.0,0.0,0.0,0.0,0.0,0.0,0.0,0.0,0.0,0.0,0.0,0.0,0.0,0.0,0.0,0.0,0.0,0.0,0.0,0.0,0.0,0.0,0.0,0.0,0.0,0.0,0.0,0.0,0.0,0.0,0.0,0.0,0.0,0.0,0.0,0.0,0.0,0.0,0.0,0.0,0.0,0.0,0.0,0.0,0.0,0.0,0.0,0.0,0.0,0.0,0.0,0.0,0.0,0.0,0.0,0.0,0.0,0.0,0.0,0.0,0.0,0.0,0.0,0.0,0.0,0.0,0.0,0.0,0.0,0.0,0.0,0.0,0.0,0.0,0.0,0.0,0.0,0.0,0.0,0.0,0.0,0.0,0.0,0.0,0.0,0.0,0.0,0.0,0.0,0.0,0.0,0.0,0.0,0.0,0.0,0.0,0.0,0.0,0.0,0.0,0.0,0.0,0.0,0.0,0.0,0.0,0.0,0.0,0.0,0.0,0.0,0.0,0.0,0.0,0.0,0.0,0.0,0.0,0.0,0.0,0.0,0.0,0.0,0.0,0.0,0.0,0.0,0.0,0.0,0.0,0.0,0.0,0.0,0.0,0.0,0.0,0.0,0.0,0.0,0.0,0.0,0.0,0.0,0.0,0.0,0.0,0.0,0.0,0.0,0.0,0.0,0.0,0.0,0.0,0.0,0.0,0.0,0.0,0.0,0.0,0.0,0.0,0.0,0.0,0.0,0.0,0.0,0.0,0.0,0.0,0.0,0.0,0.0,0.0,0.0,0.0,0.0,0.0,0.0,0.0,0.0,0.0,0.0,0.0,0.0,0.0,0.0,0.0,0.0,0.0,0.0,0.0,0.0,0.0,0.0,0.0,0.0,0.0,0.0,0.0,0.0,0.0,0.0,0.0,0.0,0.0,0.0,0.0,0.0,0.0,0.0,0.0,0.0,0.0,0.0,0.0,0.0,0.0,0.0,0.0,0.0,0.0,0.0,0.0,0.0,0.0,0.0,0.0,0.0,0.0,0.0,0.0,0.0,0.0,0.0,0.0,0.0,0.0,0.0,0.0,0.0,0.0,0.0,0.0,0.0,0.0,0.0,0.0,0.0,0.0,0.0,0.0,0.0,0.0,0.0,0.0,0.0,0.0,0.0,0.0,0.0,0.0,0.0,0.0,0.0,0.0,0.0,0.0,0.0,0.0,0.0,0.0,0.0,0.0,0.0,0.0,0.0,0.0,0.0,0.0,0.0,0.0,0.0,0.0,0.0,0.0,0.0,0.0,0.0,0.0,0.0,0.0,0.0,0.0,0.0,0.0,0.0,0.0,0.0,0.0,0.0,0.0,0.0,0.0,0.0,0.0,0.0,0.0,0.0,0.0,0.0,0.0,0.0,0.0,0.0,0.0,0.0,0.0,0.0,0.0,0.0,0.0,0.0,0.0,0.0,0.0,0.0,0.0,0.0,0.0,0.0,0.0,0.0,0.0,0.0,0.0,0.0,0.0,0.0,0.0,0.0,0.0,0.0,0.0,0.0,0.0,0.0,0.0,0.0,0.0,0.0,0.0,0.0,0.0,0.0,0.0,0.0,0.0,0.0,0.0,0.0,0.0,0.0,0.0,0.0,0.0,0.0,0.0,0.0,0.0,0.0,0.0,0.0,0.0,0.0,0.0,0.0,0.0,0.0,0.0,0.0,0.0,0.0,0.0,0.0,0.0,0.0,0.0,0.0,0.0,0.0,0.0,0.0,0.0,0.0,0.0,0.0,0.0,0.0,0.0,0.0,0.0,0.0,0.0,0.0,0.0,0.0,0.0,0.0,0.0,0.0,0.0,0.0,0.0,0.0,0.0,0.0,0.0,0.0,0.0,0.0,0.0,0.0,0.0,0.0,0.0,0.0,0.0,0.0,0.0,0.0,0.0,0.0,0.0,0.0,0.0,0.0,0.0,0.0,0.0,0.0,0.0,0.0,0.0,0.0,0.0,0.0,0.0,0.0,0.0,0.0,0.0,0.0,0.0,0.0,0.0,0.0,0.0,0.0,0.0,0.0,0.0,0.0,0.0,0.0,0.0,0.0,0.0,0.0,0.0,0.0,0.0,0.0,0.0,0.0,0.0,0.0,0.0,0.0,0.0,0.0,0.0,0.0,0.0,0.0,0.0,0.0,0.0,0.0,0.0,0.0,0.0,0.0,0.0,0.0,0.0,0.0,0.0,0.0,0.0,0.0,0.0,0.0,0.0,0.0,0.0,0.0,0.0,0.0,0.0,0.0,0.0,0.0,0.0,0.0,0.0,0.0,0.0,0.0,0.0,0.0,0.0,0.0,0.0,0.0,0.0,0.0,0.0,0.0,0.0,0.0,0.0,0.0,0.0,0.0,0.0,0.0,0.0,0.0,0.0,0.0,0.0,0.0,0.0,0.0,0.0,0.0,0.0,0.0,0.0,0.0,0.0,0.0,0.0,0.0,0.0,0.0,0.0,0.0,0.0,0.0,0.0,0.0,0.0,0.0,0.0,0.0,0.0,0.0,0.0,0.0,0.0,0.0,0.0,0.0,0.0,0.0,0.0,0.0,0.0,0.0,0.0,0.0,0.0,0.0,0.0,0.0,0.0,0.0,0.0,0.0,0.0,0.0,0.0,0.0,0.0,0.0,0.0,0.0,0.0,0.0,0.0,0.0,0.0,0.0,0.0,0.0,0.0,0.0,0.0,0.0,0.0,0.0,0.0,0.0,0.0,0.0,0.0,0.0,0.0,0.0,0.0,0.0,0.0,0.0,0.0,0.0,0.0,0.0,0.0,0.0,0.0,0.0,0.0,0.0,0.0,0.0,0.0,0.0,0.0,0.0,0.0,0.0,0.0,0.0,0.0,0.0,0.0,0.0,0.0,0.0,0.0,0.0,0.0,0.0,0.0,0.0,0.0,0.0,0.0,0.0,0.0,0.0,0.0,0.0,0.0,0.0,0.0,0.0,0.0,0.0,0.0,0.0,0.0,0.0,0.0,0.0,0.0,0.0,0.0,0.0,0.0,0.0,0.0,0.0,0.0,0.0,0.0,0.0,0.0,0.0,0.0,0.0,0.0,0.0,0.0,0.0,0.0,0.0,0.0,0.0,0.0,0.0,0.0,0.0,0.0,0.0,0.0,0.0,0.0,0.0,0.0,0.0,0.0,0.0,0.0,0.0,0.0,0.0,0.0,0.0,0.0,0.0,0.0,0.0,0.0,0.0,0.0,0.0,0.0,0.0,0.0,0.0,0.0,0.0,0.0,0.0,0.0,0.0,0.0,0.0,0.0,0.0,0.0,0.0,0.0,0.0,0.0,0.0,0.0,0.0,0.0,0.0,0.0,0.0,0.0,0.0,0.0,0.0,0.0,0.0,0.0,0.0,0.0,0.0,0.0,0.0,0.0,0.0,0.0,0.0,0.0,0.0,0.0,0.0,0.0,0.0,0.0,0.0,0.0,0.0,0.0,0.0,0.0,0.0,0.0,0.0,0.0,0.0,0.0,0.0,0.0,0.0,0.0,0.0,0.0,0.0,0.0,0.0,0.0,0.0,0.0,0.0,0.0,0.0,0.0,0.0,0.0,0.0,0.0,0.0,0.0,0.0,0.0,0.0,0.0,0.0,0.0,-1.0352,0.0,0.0,0.0,0.0,0.0,0.0,0.0,0.0,0.0,0.0,0.0,0.0,0.0,0.0,0.0,0.0,0.0,0.0,0.0,0.0,0.0,0.0,0.0,0.0,0.0,0.0,0.0,0.0,0.0,0.0,0.0,0.0,0.0,0.0,0.0,0.0,0.0,0.0,0.0,0.0,0.0,0.0,0.0,0.0,0.0,0.0,0.0,0.0,0.0,0.0,0.0,0.0,0.0,0.0,0.0,0.0,0.0,0.0,0.0,0.0,0.0,0.0,0.0,0.0,0.0,0.0,0.0,0.0,0.0,0.0,0.0,0.0,0.0,0.0,0.0,0.0,0.0,0.0,0.0,0.0,0.0,0.0,0.0,0.0,0.0,0.0,0.0,0.0,0.0,0.0,0.0,0.0,0.0,0.0,0.0,0.0,0.0,0.0,0.0,0.0,0.0,0.0,0.0,0.0,0.0,0.0,0.0,0.0,0.0,0.0,-1.1816,-1.1035,-1.1387,-1.1191,-1.0352,0.0,0.0,0.0,0.0,0.0,0.0,0.0,0.0,0.0,0.0,0.0,0.0,0.0,0.0,0.0,0.0,0.0,0.0,0.0,0.0,0.0,0.0,0.0,0.0,0.0,0.0,0.0,0.0,0.0,0.0,0.0,0.0,0.0,0.0,0.0,0.0,0.0,0.0,0.0,0.0,0.0,0.0,0.0,0.0,0.0,0.0,0.0,0.0,0.0,0.0,0.0,0.0,0.0,0.0,0.0,0.0,0.0,0.0,0.0,0.0,0.0,0.0,0.0,0.0,0.0,0.0,0.0,0.0,0.0,0.0,0.0,0.0,0.0,0.0,0.0,0.0,0.0,0.0,0.0,0.0,0.0,0.0,0.0,0.0,0.0,0.0,0.0,0.0,0.0,0.0,0.0,0.0,0.0,0.0,0.0,0.0,0.0,0.0,0.0,0.0,0.0,0.0,0.0,0.0,0.0,0.0,0.0,0.0,0.0,0.0,0.0,0.0,-1.207,-1.1777,-1.0937,0.0,0.0,0.0,0.0,0.0,0.0,0.0,0.0,0.0,0.0,0.0,0.0,0.0,0.0,0.0,0.0,0.0,0.0,0.0,0.0,0.0,0.0,0.0,0.0,0.0,0.0,0.0,0.0,0.0,0.0,0.0,0.0,0.0,0.0,0.0,0.0,0.0,0.0,0.0,0.0,0.0,0.0,0.0,0.0,0.0,0.0,0.0,0.0,0.0,0.0,0.0,0.0,0.0,0.0,0.0,0.0,0.0,0.0,0.0,0.0,0.0,0.0,0.0,0.0,0.0,0.0,0.0,0.0,0.0,0.0,0.0,0.0,0.0,0.0,0.0,0.0,0.0,0.0,0.0,0.0,0.0,0.0,0.0,0.0,0.0,0.0,0.0,0.0,0.0,0.0,0.0,0.0,0.0,0.0,0.0,0.0,0.0,0.0,0.0,0.0,0.0,0.0,0.0,0.0,0.0,0.0,0.0,0.0,0.0,0.0,-1.1992,-1.2754,-1.3477,0.0,-1.2754,0.0,0.0,0.0,0.0,0.0,0.0,0.0,0.0,0.0,0.0,0.0,0.0,0.0,0.0,0.0,0.0,0.0,0.0,0.0,0.0,0.0,0.0,0.0,0.0,0.0,0.0,0.0,0.0,0.0,0.0,0.0,0.0,0.0,0.0,0.0,0.0,0.0,0.0,0.0,0.0,0.0,0.0,0.0,0.0,0.0,0.0,0.0,0.0,0.0,0.0,0.0,0.0,0.0,0.0,0.0,0.0,0.0,0.0,0.0,0.0,0.0,0.0,0.0,0.0,0.0,0.0,0.0,0.0,0.0,0.0,0.0,0.0,0.0,0.0,0.0,0.0,0.0,0.0,0.0,0.0,0.0,0.0,0.0,0.0,0.0,0.0,0.0,0.0,0.0,0.0,0.0,0.0,0.0,0.0,0.0,0.0,0.0,0.0,0.0,0.0,0.0,0.0,0.0,0.0,0.0,0.0,0.0,0.0,0.0,0.0,0.0,-1.291,-1.3223,-1.3223,0.0,0.0,0.0,0.0,0.0,0.0,0.0,0.0,0.0,0.0,0.0,0.0,0.0,0.0,0.0,0.0,0.0,0.0,0.0,0.0,0.0,0.0,0.0,0.0,0.0,0.0,0.0,0.0,0.0,0.0,0.0,0.0,0.0,0.0,0.0,0.0,0.0,0.0,0.0,0.0,0.0,0.0,0.0,0.0,0.0,0.0,0.0,0.0,0.0,0.0,0.0,0.0,0.0,0.0,0.0,0.0,0.0,0.0,0.0,0.0,0.0,0.0,0.0,0.0,0.0,0.0,0.0,0.0,0.0,0.0,0.0,0.0,0.0,0.0,0.0,0.0,0.0,0.0,0.0,0.0,0.0,0.0,0.0,0.0,0.0,0.0,0.0,0.0,0.0,0.0,0.0,0.0,0.0,0.0,0.0,0.0,0.0,0.0,0.0,0.0,0.0,0.0,0.0,0.0,0.0,0.0,0.0,0.0,0.0,0.0,-1.25,0.0,-1.3574,-1.3574,-1.3262,-1.2559,0.0,0.0,0.0,0.0,0.0,0.0,0.0,0.0,0.0,0.0,0.0,0.0,0.0,0.0,0.0,0.0,0.0,0.0,0.0,0.0,0.0,0.0,0.0,0.0,0.0,0.0,0.0,0.0,0.0,0.0,0.0,0.0,0.0,0.0,0.0,0.0,0.0,0.0,0.0,0.0,0.0,0.0,0.0,0.0,0.0,0.0,0.0,0.0,0.0,0.0,0.0,0.0,0.0,0.0,0.0,0.0,0.0,0.0,0.0,0.0,0.0,0.0,0.0,0.0,0.0,0.0,0.0,0.0,0.0,0.0,0.0,0.0,0.0,0.0,0.0,0.0,0.0,0.0,0.0,0.0,0.0,0.0,0.0,0.0,0.0,0.0,0.0,0.0,0.0,0.0,0.0,0.0,0.0,0.0,0.0,0.0,0.0,0.0,0.0,0.0,0.0,0.0,0.0,0.0,0.0,0.0,0.0,0.0,0.0,-1.3652,-1.3672,-1.5234,-1.5273,-1.4141,0.0,0.0,0.0,0.0,0.0,0.0,0.0,0.0,0.0,0.0,0.0,0.0,0.0,0.0,0.0,0.0,0.0,0.0,0.0,0.0,0.0,0.0,0.0,0.0,0.0,0.0,0.0,0.0,0.0,0.0,0.0,0.0,0.0,0.0,0.0,0.0,0.0,0.0,0.0,0.0,0.0,0.0,0.0,0.0,0.0,0.0,0.0,0.0,0.0,0.0,0.0,0.0,0.0,0.0,0.0,0.0,0.0,0.0,0.0,0.0,0.0,0.0,0.0,0.0,0.0,0.0,0.0,0.0,0.0,0.0,0.0,0.0,0.0,0.0,0.0,0.0,0.0,0.0,0.0,0.0,0.0,0.0,0.0,0.0,0.0,0.0,0.0,0.0,0.0,0.0,0.0,0.0,0.0,0.0,0.0,0.0,0.0,0.0,0.0,0.0,0.0,0.0,0.0,0.0,0.0,0.0,0.0,0.0,0.0,-1.209,-1.2617,-1.4512,-1.7637,-1.5254,-1.3594,0.0,0.0,0.0,0.0,0.0,0.0,0.0,0.0,0.0,0.0,0.0,0.0,0.0,0.0,0.0,0.0,0.0,0.0,0.0,0.0,0.0,0.0,0.0,0.0,0.0,0.0,0.0,0.0,0.0,0.0,0.0,0.0,0.0,0.0,0.0,0.0,0.0,0.0,0.0,0.0,0.0,0.0,0.0,0.0,0.0,0.0,0.0,0.0,0.0,0.0,0.0,0.0,0.0,0.0,0.0,0.0,0.0,0.0,0.0,0.0,0.0,0.0,0.0,0.0,0.0,0.0,0.0,0.0,0.0,0.0,0.0,0.0,0.0,0.0,0.0,0.0,0.0,0.0,0.0,0.0,0.0,0.0,0.0,0.0,0.0,0.0,0.0,0.0,0.0,0.0,0.0,0.0,0.0,0.0,0.0,0.0,0.0,0.0,0.0,0.0,0.0,0.0,0.0,0.0,0.0,0.0,0.0,0.0,0.0,-1.1953,0.0,-1.5684,0.0,-1.5234,-1.332,0.0,0.0,0.0,0.0,0.0,0.0,0.0,0.0,0.0,0.0,0.0,0.0,0.0,0.0,0.0,0.0,0.0,0.0,0.0,0.0,0.0,0.0,0.0,0.0,0.0,0.0,0.0,0.0,0.0,0.0,0.0,0.0,0.0,0.0,0.0,0.0,0.0,0.0,0.0,0.0,0.0,0.0,0.0,0.0,0.0,0.0,0.0,0.0,0.0,0.0,0.0,0.0,0.0,0.0,0.0,0.0,0.0,0.0,0.0,0.0,0.0,0.0,0.0,0.0,0.0,0.0,0.0,0.0,0.0,0.0,0.0,0.0,0.0,0.0,0.0,0.0,0.0,0.0,0.0,0.0,0.0,0.0,0.0,0.0,0.0,0.0,0.0,0.0,0.0,0.0,0.0,0.0,0.0,0.0,0.0,0.0,0.0,0.0,0.0,0.0,0.0,0.0,0.0,0.0,0.0,0.0,0.0,0.0,-1.1992,-1.5234,-1.6934,-1.7051,-1.5547,-1.5371,-1.3379,0.0,0.0,0.0,0.0,0.0,0.0,0.0,0.0,0.0,0.0,0.0,0.0,0.0,0.0,0.0,0.0,0.0,0.0,0.0,0.0,0.0,0.0,0.0,0.0,0.0,0.0,0.0,0.0,0.0,0.0,0.0,0.0,0.0,0.0,0.0,0.0,0.0,0.0,0.0,0.0,0.0,0.0,0.0,0.0,0.0,0.0,0.0,0.0,0.0,0.0,0.0,0.0,0.0,0.0,0.0,0.0,0.0,0.0,0.0,0.0,0.0,0.0,0.0,0.0,0.0,0.0,0.0,0.0,0.0,0.0,0.0,0.0,0.0,0.0,0.0,0.0,0.0,0.0,0.0,0.0,0.0,0.0,0.0,0.0,0.0,0.0,0.0,0.0,0.0,0.0,0.0,0.0,0.0,0.0,0.0,0.0,0.0,0.0,0.0,0.0,0.0,0.0,0.0,0.0,0.0,0.0,0.0,0.0,0.0,-1.5371,-1.5918,-1.6816,-1.793,-1.5215,-1.332,0.0,0.0,0.0,0.0,0.0,0.0,0.0,0.0,0.0,0.0,0.0,0.0,0.0,0.0,0.0,0.0,0.0,0.0,0.0,0.0,0.0,0.0,0.0,0.0,0.0,0.0,0.0,0.0,0.0,0.0,0.0,0.0,0.0,0.0,0.0,0.0,0.0,0.0,0.0,0.0,0.0,0.0,0.0,0.0,0.0,0.0,0.0,0.0,0.0,0.0,0.0,0.0,0.0,0.0,0.0,0.0,0.0,0.0,0.0,0.0,0.0,0.0,0.0,0.0,0.0,0.0,0.0,0.0,0.0,0.0,0.0,0.0,0.0,0.0,0.0,0.0,0.0,0.0,0.0,0.0,0.0,0.0,0.0,0.0,0.0,0.0,0.0,0.0,0.0,0.0,0.0,0.0,0.0,0.0,0.0,0.0,0.0,0.0,0.0,0.0,0.0,0.0,0.0,0.0,0.0,0.0,0.0,0.0,0.0,-1.8262,-1.8301,-1.875,-1.9746,-1.6855,-1.4746,-1.3632,0.0,0.0,0.0,0.0,0.0,0.0,0.0,0.0,0.0,0.0,0.0,0.0,0.0,0.0,0.0,0.0,0.0,0.0,0.0,0.0,0.0,0.0,0.0,0.0,0.0,0.0,0.0,0.0,0.0,0.0,0.0,0.0,0.0,0.0,0.0,0.0,0.0,0.0,0.0,0.0,0.0,0.0,0.0,0.0,0.0,0.0,0.0,0.0,0.0,0.0,0.0,0.0,0.0,0.0,0.0,0.0,0.0,0.0,0.0,0.0,0.0,0.0,0.0,0.0,0.0,0.0,0.0,0.0,0.0,0.0,0.0,0.0,0.0,0.0,0.0,0.0,0.0,0.0,0.0,0.0,0.0,0.0,0.0,0.0,0.0,0.0,0.0,0.0,0.0,0.0,0.0,0.0,0.0,0.0,0.0,0.0,0.0,0.0,0.0,0.0,0.0,0.0,0.0,0.0,0.0,0.0,0.0,0.0,-2.3223,-2.3437,-2.2695,-2.0957,-1.9883,-1.7402,0.0,0.0,0.0,0.0,0.0,0.0,0.0,0.0,0.0,0.0,0.0,0.0,0.0,0.0,0.0,0.0,0.0,0.0,0.0,0.0,0.0,0.0,0.0,0.0,0.0,0.0,0.0,0.0,0.0,0.0,0.0,0.0,0.0,0.0,0.0,0.0,0.0,0.0,0.0,0.0,0.0,0.0,0.0,0.0,0.0,0.0,0.0,0.0,0.0,0.0,0.0,0.0,0.0,0.0,0.0,0.0,0.0,0.0,0.0,0.0,0.0,0.0,0.0,0.0,0.0,0.0,0.0,0.0,0.0,0.0,0.0,0.0,0.0,0.0,0.0,0.0,0.0,0.0,0.0,0.0,0.0,0.0,0.0,0.0,0.0,0.0,0.0,0.0,0.0,0.0,0.0,0.0,0.0,0.0,0.0,0.0,0.0,0.0,0.0,0.0,0.0,0.0,0.0,0.0,0.0,0.0,0.0,0.0,0.0,-2.4062,-2.7207,-2.7422,-2.4453,-2.1699,-1.8828,0.0,0.0,0.0,0.0,0.0,0.0,0.0,0.0,0.0,0.0,0.0,0.0,0.0,0.0,0.0,0.0,0.0,0.0,0.0,0.0,0.0,0.0,0.0,0.0,0.0,0.0,0.0,0.0,0.0,0.0,0.0,0.0,0.0,0.0,0.0,0.0,0.0,0.0,0.0,0.0,0.0,0.0,0.0,0.0,0.0,0.0,0.0,0.0,0.0,0.0,0.0,0.0,0.0,0.0,0.0,0.0,0.0,0.0,0.0,0.0,0.0,0.0,0.0,0.0,0.0,0.0,0.0,0.0,0.0,0.0,0.0,0.0,0.0,0.0,0.0,0.0,0.0,0.0,0.0,0.0,0.0,0.0,0.0,0.0,0.0,0.0,0.0,0.0,0.0,0.0,0.0,0.0,0.0,0.0,0.0,0.0,0.0,0.0,0.0,0.0,0.0,0.0,0.0,0.0,0.0,0.0,0.0,0.0,-2.3457,-2.6016,-3.0254,-3.1367,-2.8984,-2.4922,-2.1172,0.0,0.0,0.0,0.0,0.0,0.0,0.0,0.0,0.0,0.0,0.0,0.0,0.0,0.0,0.0,0.0,0.0,0.0,0.0,0.0,0.0,0.0,0.0,0.0,0.0,0.0,0.0,0.0,0.0,0.0,0.0,0.0,0.0,0.0,0.0,0.0,0.0,0.0,0.0,0.0,0.0,0.0,0.0,0.0,0.0,0.0,0.0,0.0,0.0,0.0,0.0,0.0,0.0,0.0,0.0,0.0,0.0,0.0,0.0,0.0,0.0,0.0,0.0,0.0,0.0,0.0,0.0,0.0,0.0,0.0,0.0,0.0,0.0,0.0,0.0,0.0,0.0,0.0,0.0,0.0,0.0,0.0,0.0,0.0,0.0,0.0,0.0,0.0,0.0,0.0,0.0,0.0,0.0,0.0,0.0,0.0,0.0,0.0,0.0,0.0,0.0,0.0,0.0,0.0,0.0,0.0,0.0,0.0,-2.5898,-2.8398,-3.2617,-3.4394,-3.3437,-2.8516,-2.3867,0.0,0.0,0.0,0.0,0.0,0.0,0.0,0.0,0.0,0.0,0.0,0.0,0.0,0.0,0.0,0.0,0.0,0.0,0.0,0.0,0.0,0.0,0.0,0.0,0.0,0.0,0.0,0.0,0.0,0.0,0.0,0.0,0.0,0.0,0.0,0.0,0.0,0.0,0.0,0.0,0.0,0.0,0.0,0.0,0.0,0.0,0.0,0.0,0.0,0.0,0.0,0.0,0.0,0.0,0.0,0.0,0.0,0.0,0.0,0.0,0.0,0.0,0.0,0.0,0.0,0.0,0.0,0.0,0.0,0.0,0.0,0.0,0.0,0.0,0.0,0.0,0.0,0.0,0.0,0.0,0.0,0.0,0.0,0.0,0.0,0.0,0.0,0.0,0.0,0.0,0.0,0.0,0.0,0.0,0.0,0.0,0.0,0.0,0.0,0.0,0.0,0.0,0.0,0.0,0.0,0.0,0.0,0.0,-2.7383,-2.9336,-3.3516,-3.5312,-3.4414,-2.9434,-2.5039,0.0,0.0,0.0,0.0,0.0,0.0,0.0,0.0,0.0,0.0,0.0,0.0,0.0,0.0,0.0,0.0,0.0,0.0,0.0,0.0,0.0,0.0,0.0,0.0,0.0,0.0,0.0,0.0,0.0,0.0,0.0,0.0,0.0,0.0,0.0,0.0,0.0,0.0,0.0,0.0,0.0,0.0,0.0,0.0,0.0,0.0,0.0,0.0,-1.2891,0.0,0.0,0.0,0.0,0.0,0.0,0.0,0.0,0.0,0.0,0.0,0.0,0.0,0.0,0.0,0.0,0.0,0.0,0.0,0.0,0.0,0.0,0.0,0.0,0.0,0.0,0.0,0.0,0.0,0.0,0.0,0.0,0.0,0.0,0.0,0.0,0.0,0.0,0.0,0.0,0.0,0.0,0.0,0.0,0.0,0.0,0.0,0.0,0.0,0.0,0.0,0.0,0.0,0.0,0.0,0.0,0.0,0.0,0.0,-2.8047,-3.0234,-3.4004,-3.5586,-3.459,-3.0488,-2.6601,0.0,0.0,0.0,0.0,0.0,0.0,0.0,0.0,0.0,0.0,0.0,0.0,0.0,0.0,0.0,0.0,0.0,0.0,0.0,0.0,0.0,0.0,0.0,0.0,0.0,0.0,0.0,0.0,0.0,0.0,0.0,0.0,0.0,0.0,0.0,0.0,0.0,0.0,0.0,0.0,0.0,0.0,0.0,0.0,0.0,0.0,0.0,0.0,0.0,0.0,0.0,0.0,0.0,0.0,0.0,0.0,0.0,0.0,0.0,0.0,0.0,0.0,0.0,0.0,0.0,0.0,0.0,0.0,0.0,0.0,0.0,0.0,0.0,0.0,0.0,0.0,0.0,0.0,0.0,0.0,0.0,0.0,0.0,0.0,0.0,0.0,0.0,0.0,0.0,0.0,0.0,0.0,0.0,0.0,0.0,0.0,0.0,0.0,0.0,0.0,0.0,0.0,0.0,0.0,0.0,0.0,0.0,-2.4082,-2.8262,-3.125,-3.4375,-3.5586,-3.4687,-3.1367,-2.7949,-2.4471,0.0,0.0,0.0,0.0,0.0,0.0,0.0,0.0,0.0,0.0,0.0,0.0,0.0,0.0,0.0,0.0,0.0,0.0,0.0,0.0,0.0,0.0,0.0,0.0,0.0,0.0,0.0,0.0,0.0,0.0,0.0,0.0,0.0,0.0,0.0,0.0,0.0,0.0,-0.9726,-1.0434,0.0,0.0,0.0,0.0,0.0,0.0,0.0,0.0,-1.4604,0.0,0.0,0.0,0.0,0.0,0.0,0.0,0.0,0.0,0.0,0.0,0.0,0.0,0.0,0.0,0.0,0.0,0.0,0.0,0.0,0.0,0.0,0.0,0.0,0.0,0.0,0.0,0.0,0.0,0.0,0.0,0.0,0.0,0.0,0.0,0.0,0.0,0.0,0.0,0.0,0.0,0.0,0.0,0.0,0.0,0.0,0.0,0.0,0.0,0.0,0.0,0.0,0.0,0.0,0.0,0.0,-2.2187,-2.4668,-2.8203,-3.2871,-3.4961,-3.5586,-3.4668,-3.1387,-2.7969,-2.4432,0.0,0.0,0.0,0.0,0.0,0.0,0.0,0.0,0.0,0.0,0.0,0.0,0.0,0.0,0.0,0.0,0.0,0.0,0.0,0.0,0.0,0.0,0.0,0.0,0.0,0.0,0.0,0.0,0.0,0.0,0.0,0.0,0.0,0.0,0.0,0.0,0.0,0.0,0.0,-1.3559,-1.4683,0.0,0.0,0.0,0.0,0.0,0.0,0.0,0.0,-1.6475,0.0,0.0,0.0,0.0,0.0,0.0,0.0,0.0,0.0,0.0,0.0,0.0,0.0,0.0,0.0,0.0,0.0,0.0,0.0,0.0,0.0,0.0,0.0,0.0,0.0,0.0,0.0,0.0,0.0,0.0,0.0,0.0,0.0,0.0,0.0,0.0,0.0,0.0,0.0,0.0,0.0,0.0,0.0,0.0,0.0,0.0,0.0,0.0,0.0,0.0,0.0,0.0,0.0,0.0,0.0,-2.1738,-2.5703,-2.957,-3.3281,-3.5117,-3.5371,-3.4004,-3.0273,-2.664,0.0,0.0,0.0,0.0,0.0,0.0,0.0,0.0,0.0,0.0,0.0,0.0,0.0,0.0,0.0,0.0,0.0,0.0,0.0,0.0,0.0,0.0,0.0,0.0,0.0,0.0,0.0,0.0,0.0,0.0,0.0,0.0,0.0,0.0,0.0,0.0,0.0,0.0,0.0,0.0,-1.4916,-1.6269,-1.8554,0.0,0.0,0.0,0.0,0.0,0.0,-1.7834,-1.7599,0.0,0.0,0.0,0.0,0.0,0.0,0.0,0.0,0.0,0.0,0.0,0.0,0.0,0.0,0.0,0.0,0.0,0.0,0.0,0.0,0.0,0.0,0.0,0.0,0.0,0.0,0.0,0.0,0.0,0.0,0.0,0.0,0.0,0.0,0.0,0.0,0.0,0.0,0.0,0.0,0.0,0.0,0.0,0.0,0.0,0.0,0.0,0.0,0.0,0.0,0.0,0.0,0.0,0.0,0.0,-2.0664,-2.6016,-3.0234,-3.3066,-3.4687,-3.4746,-3.3144,-2.8984,-2.5215,0.0,0.0,0.0,0.0,0.0,0.0,0.0,0.0,0.0,0.0,0.0,0.0,0.0,0.0,0.0,0.0,0.0,0.0,0.0,0.0,0.0,0.0,0.0,0.0,0.0,0.0,0.0,0.0,0.0,0.0,0.0,0.0,0.0,0.0,0.0,0.0,0.0,0.0,0.0,0.0,0.0,-1.781,-2.0205,-1.8899,0.0,0.0,0.0,0.0,-1.8892,-1.9279,0.0,0.0,0.0,0.0,0.0,0.0,0.0,0.0,0.0,0.0,0.0,0.0,0.0,0.0,0.0,0.0,0.0,0.0,0.0,0.0,0.0,0.0,0.0,0.0,0.0,0.0,0.0,0.0,0.0,0.0,0.0,0.0,0.0,0.0,0.0,0.0,0.0,0.0,0.0,0.0,0.0,0.0,0.0,0.0,0.0,0.0,0.0,0.0,0.0,0.0,0.0,0.0,0.0,0.0,0.0,0.0,-2.0547,-2.4258,-2.8144,-3.2148,-3.3223,-3.3281,-3.2324,-2.8125,-2.4609,0.0,0.0,0.0,0.0,0.0,0.0,0.0,0.0,0.0,0.0,0.0,0.0,0.0,0.0,0.0,0.0,0.0,0.0,0.0,0.0,0.0,0.0,0.0,0.0,0.0,0.0,0.0,0.0,0.0,0.0,0.0,0.0,0.0,0.0,0.0,0.0,0.0,0.0,0.0,0.0,0.0,-2.0227,-2.0402,-1.9755,-1.9215,0.0,0.0,-2.0753,-2.1444,-2.2136,0.0,0.0,0.0,0.0,0.0,0.0,0.0,0.0,0.0,0.0,0.0,0.0,0.0,0.0,0.0,0.0,0.0,0.0,0.0,0.0,0.0,0.0,0.0,0.0,0.0,0.0,0.0,0.0,0.0,0.0,0.0,0.0,0.0,0.0,0.0,0.0,0.0,0.0,0.0,0.0,0.0,0.0,0.0,0.0,0.0,0.0,0.0,0.0,0.0,0.0,0.0,0.0,0.0,0.0,0.0,-1.7734,-2.0644,-2.543,-2.9297,-3.209,-3.2988,-3.3008,-3.2207,-2.7031,-2.3262,0.0,0.0,0.0,0.0,0.0,0.0,0.0,0.0,0.0,0.0,0.0,0.0,0.0,0.0,0.0,0.0,0.0,0.0,0.0,0.0,0.0,0.0,0.0,0.0,0.0,0.0,0.0,0.0,0.0,0.0,0.0,0.0,0.0,0.0,0.0,0.0,0.0,0.0,0.0,0.0,0.0,0.0,-2.166,-2.1177,0.0,0.0,0.0,-2.1914,-2.1179,0.0,0.0,0.0,0.0,0.0,0.0,0.0,0.0,0.0,0.0,0.0,0.0,0.0,0.0,0.0,0.0,0.0,0.0,0.0,0.0,0.0,0.0,0.0,0.0,0.0,0.0,0.0,0.0,0.0,0.0,0.0,0.0,0.0,0.0,0.0,0.0,0.0,0.0,0.0,0.0,0.0,0.0,0.0,0.0,0.0,0.0,0.0,0.0,0.0,0.0,0.0,0.0,0.0,0.0,0.0,0.0,0.0,-2.0664,-2.6289,-3.0117,-3.1816,-3.2461,-3.25,-3.1797,-2.6602,0.0,0.0,0.0,0.0,0.0,0.0,0.0,0.0,0.0,0.0,0.0,0.0,0.0,0.0,0.0,0.0,0.0,0.0,0.0,0.0,0.0,0.0,0.0,0.0,0.0,0.0,0.0,-0.5875,0.0,0.0,0.0,0.0,0.0,0.0,0.0,0.0,0.0,0.0,0.0,0.0,0.0,0.0,-2.1566,-2.2643,-2.2638,-2.2877,0.0,0.0,-2.327,-2.2121,-2.4366,-2.4585,0.0,0.0,0.0,0.0,0.0,0.0,0.0,0.0,0.0,0.0,0.0,0.0,0.0,0.0,0.0,0.0,0.0,0.0,0.0,0.0,0.0,0.0,0.0,0.0,0.0,0.0,0.0,0.0,0.0,0.0,0.0,0.0,0.0,0.0,0.0,0.0,0.0,0.0,0.0,0.0,0.0,0.0,0.0,0.0,0.0,0.0,0.0,0.0,0.0,0.0,0.0,0.0,0.0,0.0,0.0,-2.0703,-2.5677,-2.9194,-3.0918,-3.1055,-3.1035,-3.0937,-2.7441,-2.3965,0.0,0.0,0.0,0.0,0.0,0.0,0.0,0.0,0.0,0.0,0.0,0.0,0.0,0.0,0.0,0.0,0.0,0.0,0.0,0.0,0.0,0.0,0.0,0.0,0.0,0.0,0.0,0.0,0.0,0.0,0.0,0.0,0.0,0.0,0.0,0.0,0.0,0.0,0.0,0.0,0.0,-2.2733,-2.2708,-2.395,-2.538,0.0,0.0,-2.5446,-2.6068,-2.7476,-2.6771,-2.1555,0.0,0.0,0.0,0.0,0.0,0.0,0.0,0.0,0.0,0.0,0.0,0.0,0.0,0.0,0.0,0.0,0.0,0.0,0.0,0.0,0.0,0.0,0.0,0.0,0.0,0.0,0.0,0.0,0.0,0.0,0.0,0.0,0.0,0.0,0.0,0.0,0.0,0.0,0.0,0.0,0.0,0.0,0.0,0.0,0.0,0.0,0.0,0.0,0.0,0.0,0.0,0.0,0.0,-1.8827,-2.0625,-2.5663,-2.9098,-3.0735,-3.0832,-3.0827,-3.0773,-2.7446,-2.4288,0.0,0.0,0.0,0.0,0.0,0.0,0.0,0.0,0.0,0.0,0.0,0.0,0.0,0.0,0.0,0.0,0.0,0.0,0.0,0.0,0.0,0.0,0.0,0.0,0.0,0.0,0.0,0.0,-1.3194,-1.3619,-1.29,0.0,0.0,0.0,0.0,0.0,0.0,0.0,0.0,0.0,0.0,-2.3283,-2.4609,-2.5742,0.0,0.0,-2.727,-2.6859,-2.5765,-2.6477,-2.566,-2.1306,-1.9739,0.0,0.0,0.0,0.0,0.0,0.0,0.0,0.0,0.0,0.0,0.0,0.0,0.0,0.0,0.0,0.0,0.0,0.0,0.0,0.0,0.0,0.0,0.0,0.0,0.0,0.0,0.0,0.0,0.0,0.0,0.0,0.0,0.0,0.0,0.0,0.0,0.0,0.0,0.0,0.0,0.0,0.0,0.0,0.0,0.0,0.0,0.0,0.0,0.0,0.0,0.0,0.0,-1.8847,-2.0605,-2.5663,-2.9118,-3.0791,-3.0824,-3.0773,-3.0652,-2.8142,-2.5432,0.0,0.0,0.0,0.0,0.0,0.0,0.0,0.0,0.0,0.0,0.0,0.0,0.0,0.0,0.0,0.0,0.0,0.0,0.0,0.0,0.0,0.0,0.0,0.0,0.0,0.0,0.0,0.0,-1.45,-1.4598,-1.3346,0.0,0.0,0.0,0.0,0.0,0.0,0.0,0.0,0.0,0.0,-2.4574,-2.5904,-2.6799,-2.7315,-2.7315,-2.7333,-2.6816,-2.5229,-2.5609,-2.487,-2.1325,0.0,0.0,0.0,0.0,0.0,0.0,0.0,0.0,0.0,0.0,0.0,0.0,0.0,0.0,0.0,0.0,0.0,0.0,0.0,0.0,0.0,0.0,0.0,0.0,0.0,0.0,0.0,0.0,0.0,0.0,-1.0094,0.0,0.0,0.0,0.0,0.0,0.0,0.0,0.0,0.0,0.0,0.0,0.0,0.0,0.0,0.0,0.0,0.0,0.0,0.0,0.0,0.0,0.0,-1.88,-2.0625,-2.5638,-2.9076,-3.082,-3.085,-3.0799,-3.0759,-2.9811,-2.7699,-2.4276,0.0,0.0,0.0,0.0,0.0,0.0,0.0,0.0,0.0,0.0,0.0,0.0,0.0,0.0,0.0,0.0,0.0,0.0,0.0,0.0,0.0,0.0,0.0,0.0,0.0,0.0,-0.9081,-1.1563,-1.3415,0.0,0.0,0.0,0.0,0.0,0.0,0.0,0.0,0.0,0.0,-2.385,-2.6902,-2.6197,-2.6782,-2.7315,-2.7332,-2.6107,-2.5123,-2.5072,-2.5592,-2.5074,0.0,0.0,0.0,0.0,0.0,0.0,0.0,0.0,0.0,0.0,0.0,0.0,0.0,0.0,0.0,0.0,0.0,0.0,0.0,0.0,0.0,0.0,0.0,0.0,0.0,0.0,0.0,-1.3981,-1.2668,0.0,0.0,0.0,0.0,0.0,0.0,0.0,0.0,0.0,0.0,0.0,-2.0758,-2.241,0.0,0.0,0.0,0.0,0.0,0.0,0.0,0.0,0.0,0.0,0.0,0.0,-1.914,-2.1543,-2.5937,-2.9118,-3.0772,-3.0824,-3.0742,-3.0684,-2.9837,-2.7519,-2.3549,0.0,0.0,0.0,0.0,0.0,0.0,0.0,0.0,0.0,0.0,0.0,0.0,0.0,0.0,0.0,0.0,0.0,0.0,0.0,0.0,0.0,0.0,0.0,0.0,0.0,-1.1801,0.0,0.0,0.0,0.0,0.0,0.0,0.0,0.0,0.0,0.0,0.0,-1.9854,-2.1593,-2.3627,-2.5232,-2.599,-2.6901,-2.7683,0.0,0.0,0.0,0.0,0.0,0.0,0.0,0.0,0.0,0.0,0.0,0.0,0.0,0.0,-2.095,-1.6749,-1.596,-1.6187,-1.6915,0.0,0.0,0.0,0.0,0.0,0.0,0.0,0.0,0.0,0.0,0.0,0.0,0.0,0.0,-1.7773,0.0,-1.5728,0.0,0.0,0.0,0.0,0.0,0.0,0.0,0.0,-2.3216,-2.5048,-2.5058,-2.6693,-2.691,0.0,-2.4734,-2.1637,0.0,0.0,0.0,0.0,0.0,0.0,0.0,0.0,-2.0019,-2.2383,-2.6562,-2.9413,-3.0754,-3.0824,-3.0762,-3.0664,-2.9549,-2.7634,-2.4851,-2.1199,-1.8466,0.0,0.0,0.0,0.0,0.0,0.0,0.0,0.0,0.0,0.0,0.0,0.0,0.0,0.0,0.0,0.0,0.0,0.0,0.0,0.0,0.0,0.0,0.0,-1.3274,0.0,0.0,0.0,0.0,0.0,0.0,0.0,0.0,0.0,-1.7952,-2.0101,-2.223,-2.3709,-2.485,-2.5614,-2.5793,0.0,0.0,0.0,0.0,0.0,0.0,0.0,-2.3619,-2.2907,-2.2819,-2.3223,-2.4327,-2.5374,-2.586,-2.532,0.0,0.0,-2.0585,-1.9769,-1.9841,-2.0193,-2.0327,-2.0533,-2.09,-2.0657,-2.0286,0.0,0.0,0.0,0.0,0.0,0.0,0.0,0.0,-2.212,-2.2177,0.0,-1.9469,0.0,0.0,0.0,0.0,0.0,-2.1763,0.0,0.0,-2.9236,-3.0814,-2.93,-2.9319,-2.9319,-2.93,-2.9275,-2.7542,-2.423,-2.0237,0.0,0.0,0.0,0.0,0.0,0.0,-2.1523,-2.332,-2.748,-3.0059,-3.0918,-3.0851,-3.0801,-3.076,-2.9053,-2.8077,-2.7941,-2.4011,-2.1756,-2.1579,-1.6219,0.0,0.0,0.0,0.0,0.0,0.0,0.0,0.0,0.0,0.0,0.0,0.0,0.0,0.0,0.0,0.0,0.0,0.0,0.0,0.0,-1.2873,0.0,0.0,0.0,0.0,0.0,0.0,0.0,0.0,0.0,0.0,-2.0516,-2.3233,-2.535,-2.5332,0.0,0.0,0.0,0.0,-2.6043,-2.3951,-2.3564,-2.3287,-2.24,-2.3976,-2.5251,-2.51,0.0,0.0,-2.8237,-2.7403,-2.6471,-2.5032,-2.6607,-2.7452,-2.5998,-2.4492,-2.3491,-2.3136,-2.2563,-2.1866,-2.1504,-2.1762,-2.136,-2.6657,0.0,0.0,0.0,0.0,-2.4545,-2.5713,-2.7281,-2.7026,-2.6388,-2.5447,-2.4485,0.0,0.0,0.0,0.0,0.0,0.0,-2.5928,-2.7761,-3.0467,-3.2064,-3.2763,-3.3372,-3.368,-3.3622,-3.2442,-3.1345,-3.03,-2.7975,-2.3207,-1.6361,0.0,0.0,0.0,0.0,-2.3535,-2.5918,-2.8965,-3.0957,-3.1816,-3.1191,-3.0854,-3.0782,-2.9102,-2.8172,-2.815,-2.5735,-2.3562,-2.1757,-2.0085,0.0,0.0,0.0,0.0,0.0,0.0,0.0,0.0,0.0,0.0,0.0,0.0,0.0,0.0,0.0,0.0,0.0,0.0,0.0,-1.3764,-1.592,-1.6733,0.0,0.0,0.0,0.0,0.0,0.0,0.0,0.0,0.0,-2.3857,-2.4103,-2.4395,0.0,0.0,-2.4645,-2.3839,-2.4777,-2.5619,-2.5854,-2.6055,0.0,0.0,-2.6447,-2.6281,-2.6586,-2.8115,-2.9178,-2.8938,-2.9441,-2.977,-2.9296,-2.977,-3.0074,-2.9651,-2.8399,-2.7384,-2.7195,-2.6816,-2.6632,-2.6895,-2.6196,-2.5374,-3.2127,-2.8783,-2.7126,-2.7058,-2.8112,-2.8303,-2.9535,-3.14,-3.0849,-3.0406,-3.0002,-2.8687,-2.725,-2.5755,-2.4755,0.0,0.0,0.0,-2.9025,-3.1185,-3.2564,-3.3757,-3.4718,-3.5238,-3.55,-3.5442,-3.4424,-3.3757,-3.3397,-3.2075,-2.8131,-2.1807,0.0,0.0,-2.0344,-2.3822,-2.6577,-2.8492,-3.0429,-3.166,-3.2125,-3.1347,-3.0722,-3.0305,-2.8958,-2.8042,-2.769,-2.6286,-2.4791,-2.3257,-2.2241,-2.007,0.0,0.0,0.0,0.0,0.0,0.0,0.0,0.0,0.0,0.0,0.0,-0.9614,0.0,0.0,0.0,0.0,-1.3484,-1.537,-1.7869,-1.8788,0.0,0.0,0.0,0.0,0.0,0.0,0.0,-2.2326,-2.4052,-2.5328,-2.5786,-2.5317,-2.5092,-2.5637,-2.5308,-2.4824,-2.4385,0.0,-2.6277,-2.6736,-2.7091,-2.7487,-2.7971,-2.7944,-2.8115,-2.8953,-2.9625,-3.0099,-3.0132,-3.0749,-3.1173,-3.119,-3.119,-3.119,-3.119,-3.0465,-2.9698,-2.9295,-2.9003,-2.8857,-2.879,-2.8005,-2.7413,-3.6539,-3.5553,-3.1226,-3.0227,-3.1458,-3.1521,-3.283,-3.4871,-3.363,-3.3946,-3.5136,-3.2148,-3.0782,-3.0673,-2.8352,0.0,-2.9684,-3.1275,-3.2814,-3.434,-3.5135,-3.55,-3.55,-3.55,-3.55,-3.55,-3.5489,-3.5078,-3.4302,-3.3557,-3.1898,-2.9448,-2.8732,-2.7472,-2.5837,-2.815,-2.9929,-3.0771,-3.1695,-3.2165,-3.2088,-3.1306,-3.0488,-2.9629,-2.8706,-2.78,-2.694,-2.6022,-2.5515,-2.5432,-2.327,-2.192,-2.1539,0.0,0.0,0.0,0.0,0.0,0.0,0.0,0.0,0.0,0.0,0.0,0.0,0.0,0.0,0.0,-1.7942,0.0,-2.287,-2.1715,0.0,0.0,0.0,-2.0712,-2.2229,-2.3628,-2.4773,-2.5509,0.0,0.0,-2.6693,-2.6675,-2.6885,-2.7452,-2.741,-2.7053,-2.6311,-2.7057,-2.753,-2.6922,-2.721,-2.7448,-2.769,-2.8908,-3.0298,-3.1301,-3.1632,-3.1432,-3.1376,-3.1293,-3.121,-3.119,-3.119,-3.119,-3.119,-3.114,-3.0873,-2.9849,-2.9566,-2.9178,-2.8432,-2.8058,-2.7772,-3.6662,-3.7138,-3.5866,-3.4822,-3.4035,-3.4175,-3.462,-3.5187,-3.4852,-3.4948,-3.5246,-3.456,-3.4242,-3.425,-3.3654,-3.3596,-3.4,-3.4404,-3.4788,-3.5192,-3.5404,-3.55,-3.55,-3.55,-3.55,-3.55,-3.5488,-3.5398,-3.5199,-3.4994,-3.3615,-3.1247,-3.1576,-2.9698,-2.5778,-2.8111,-2.984,-3.0702,-3.1641,-3.2143,-3.2147,-3.1347,-3.0488,-2.9629,-2.873,-2.787,-2.6991,-2.6135,-2.5637,-2.5568,-2.4996,-2.3769,-2.1756,-1.7948,0.0,0.0,0.0,0.0,0.0,0.0,0.0,0.0,0.0,-1.4526,-1.0406,0.0,-1.6699,0.0,-2.1769,-2.5038,-2.564,-2.5819,0.0,0.0,-2.4205,-2.4083,-2.5495,-2.5928,-2.62,-2.6393,-2.7059,-2.7512,-2.7512,-2.7493,-2.7783,-2.8478,-2.7551,-2.6655,-2.6291,-2.7123,-2.7874,-2.8058,-2.8594,-2.935,-2.9927,-3.0767,-3.1407,-3.1749,-3.1632,-3.1498,-3.1481,-3.1327,-3.119,-3.119,-3.119,-3.119,-3.119,-3.119,-3.112,-3.0783,-3.0112,-2.9606,-2.9782,-2.9169,-2.8676,-3.7662,-3.821,-3.7652,-3.6492,-3.5075,-3.5844,-3.6194,-3.6221,-3.6362,-3.62,-3.581,-3.5518,-3.5446,-3.55,-3.55,-3.55,-3.55,-3.55,-3.55,-3.55,-3.55,-3.55,-3.55,-3.55,-3.55,-3.55,-3.55,-3.55,-3.55,-3.55,-3.4788,-3.3404,-3.3872,-3.2356,-2.9018,-2.957,-3.0194,-3.0689,-3.1575,-3.2072,-3.2123,-3.1303,-3.0075,-2.8496,-2.7598,-2.6387,-2.4785,-2.4231,-2.359,-2.2809,-2.2752,-2.2092,-2.0636,-1.812,-1.6095,0.0,0.0,0.0,0.0,0.0,0.0,0.0,0.0,0.0,0.0,0.0,-1.9546,-1.995,-2.4702,-2.7563,-2.7217,-2.7857,-2.8351,-2.8446,-2.7585,-2.7449,-2.8493,-2.8137,-2.7798,-2.7827,-2.8118,-2.8326,-2.8326,-2.8308,-2.8503,-2.895,-2.8235,-2.7621,-2.7513,-2.7976,-2.8434,-2.87,-2.9285,-2.9944,-3.0696,-3.1182,-3.148,-3.1497,-3.1502,-3.1481,-3.1481,-3.1327,-3.119,-3.119,-3.119,-3.119,-3.119,-3.119,-3.119,-3.112,-3.0712,-3.0456,-3.0717,-3.0322,-2.9947,-3.8879,-3.9088,-3.8156,-3.7034,-3.5957,-3.7215,-3.7394,-3.6825,-3.7064,-3.687,-3.6323,-3.5906,-3.5689,-3.5666,-3.5654,-3.5596,-3.55,-3.55,-3.55,-3.55,-3.55,-3.55,-3.55,-3.55,-3.55,-3.55,-3.55,-3.55,-3.55,-3.55,-3.5385,-3.5173,-3.5155,-3.4327,-3.2682,-3.1269,-3.0603,-3.0697,-3.1482,-3.196,-3.2082,-3.0934,-2.9209,-2.6934,-2.5879,-2.4277,-2.2031,-2.185,-2.1116,-1.9646,-1.9654,-1.9742,-1.9811,-1.8154,-1.6956,0.0,-1.4707,0.0,0.0,0.0,0.0,0.0,0.0,0.0,0.0,-2.1725,-2.2716,-2.3697,-2.7203,-2.9242,-2.8742,-2.9434,-3.0419,-3.1532,-3.094,-3.06,-3.096,-3.016,-2.9491,-2.9385,-2.9244,-2.9127,-2.8987,-2.8987,-2.8987,-2.8987,-2.8932,-2.8828,-2.8938,-2.8932,-2.8938,-2.9005,-2.9398,-2.9855,-3.0269,-3.0698,-3.1018,-3.1038,-3.1133,-3.1342,-3.1292,-3.1174,-3.1104,-3.1118,-3.1128,-3.119,-3.119,-3.119,-3.119,-3.119,-3.1137,-3.112,-3.1154,-3.1117,-3.1015,-3.9231,-4.0034,-3.9853,-3.9585,-3.9346,-3.9643,-3.7392,-3.3606,-3.3685,-3.4408,-3.5607,-3.6868,-3.7072,-3.6503,-3.6467,-3.6096,-3.55,-3.55,-3.55,-3.55,-3.55,-3.55,-3.55,-3.55,-3.55,-3.55,-3.55,-3.55,-3.55,-3.55,-3.4788,-3.343,-3.3397,-3.2573,-3.1038,0.0,0.0,0.0,-3.1463,-3.1979,-3.1984,-2.9232,-2.7167,-2.5957,-2.4414,0.0,-2.1992,-2.1875,-2.1715,-2.1368,-2.193,0.0,0.0,0.0,0.0,0.0,0.0,0.0,0.0,0.0,0.0,0.0,-2.3628,-2.3766,-2.3547,-2.5436,-2.7332,-2.8827,-3.0333,-3.1698,-3.2897,-3.3795,-3.4049,-3.349,-3.3234,-3.283,-3.2024,-3.1631,-3.1158,-3.0276,-3.01,-2.9791,-2.9242,-2.8987,-2.9053,-2.9205,-2.9005,-2.8987,-2.9053,-2.9053,-2.8987,-2.9019,-2.938,-2.9714,-2.9828,-3.023,-3.0538,-3.0543,-3.0468,-3.0472,-3.0513,-3.0611,-3.0628,-3.0656,-3.0942,-3.119,-3.119,-3.119,-3.119,-3.119,-3.119,-3.119,-3.119,-3.119,-3.1171,-3.9316,0.0,-3.9738,-3.9328,0.0,-3.903,-3.7092,-3.4055,-3.578,-3.6739,-3.7214,-3.7685,-3.7686,-3.7286,-3.5991,-3.5217,-3.4795,-3.3558,-3.3442,-3.4212,-3.4218,-3.4673,-3.55,-3.55,-3.55,-3.55,-3.55,-3.55,-3.55,-3.55,-3.5038,-3.4199,-3.4199,-3.3788,-3.3001,-3.2934,-3.2557,-3.1839,-3.2258,-3.2749,-3.3162,-3.1178,-2.926,-2.7608,0.0,0.0,0.0,0.0,0.0,0.0,0.0,0.0,0.0,0.0,0.0,-2.2986,-2.227,-2.2205,-2.3066,-2.4295,-2.5779,-2.7498,-2.9128,-2.9271,-2.7466,-2.9582,-3.1352,-3.2199,-3.3083,-3.3923,-3.4737,-3.5238,-3.5299,-3.4755,-3.4228,-3.3633,-3.3066,-3.2496,-3.1947,-3.146,-3.1294,-3.1185,-3.1198,-3.1176,-3.1354,-3.1641,-3.1299,-3.0801,-3.0371,-2.9575,-2.9005,-2.9005,-2.9174,-2.9368,-2.9386,-2.9728,-3.0058,-3.0062,-3.0128,-3.0194,-3.0218,-3.0354,-3.0508,-3.0576,-3.0917,-3.1173,-3.119,-3.119,-3.119,-3.119,-3.119,-3.119,-3.119,-3.119,-3.119,-3.9498,-4.0215,-3.9345,-3.8671,-3.8151,-3.8151,-3.7368,-3.6271,0.0,0.0,0.0,-3.849,-3.8308,-3.805,-3.5811,-3.4723,-3.4487,-3.2327,-3.2058,-3.3333,-3.3372,-3.4115,-3.5462,-3.55,-3.55,-3.55,-3.55,-3.55,-3.55,-3.55,-3.55,-3.55,-3.55,-3.55,-3.55,-3.55,-3.4847,-3.3583,-3.3244,-3.348,-3.4197,-3.3138,-3.1566,-2.953,-2.8494,-2.691,-2.4706,-2.4608,-2.3906,-2.2441,-2.248,-2.2613,-2.2731,-2.3369,-2.3914,-2.4226,-2.5032,-2.5904,-2.6796,-2.8301,-2.9883,-3.1463,-3.3586,-3.381,-3.1362,-3.3183,-3.4443,-3.4436,-3.5077,-3.5481,-3.55,-3.55,-3.55,-3.5481,-3.4709,-3.4175,-3.4071,-3.3388,-3.2795,-3.258,-3.2449,-3.2665,-3.3171,-3.3245,-3.3698,-3.4242,-3.3641,-3.2881,-3.1827,-3.0157,-2.8987,-2.9005,-2.9037,-2.903,-2.9062,-2.932,-2.9551,-2.958,-2.9795,-2.9961,-3.0009,-3.0115,-3.0286,-3.0438,-3.0855,-3.1147,-3.119,-3.119,-3.119,-3.119,-3.119,-3.119,-3.119,-3.119,-3.119,-4.0148,-4.0282,-4.012,-4.0015,-3.9919,-3.9938,-3.9804,-3.9499,-3.8514,-3.807,-3.8145,-3.9487,-3.9665,-3.8973,-3.7908,-3.7038,-3.6295,-3.525,-3.4923,-3.5135,-3.5135,-3.525,-3.5481,-3.55,-3.55,-3.55,-3.55,-3.55,-3.55,-3.55,-3.55,-3.55,-3.55,-3.55,-3.55,-3.55,-3.5392,-3.5136,-3.3801,-3.3151,-3.3251,-3.1109,-2.9772,-2.9379,-2.7912,-2.653,-2.5482,-2.5503,-2.5008,-2.4121,-2.4763,-2.5459,-2.6156,-2.6328,-2.7012,-2.8418,-2.9382,-3.0274,-3.1138,-3.2127,-3.3105,-3.408,-3.5137,-3.5186,-3.4031,-3.4807,-3.5365,-3.5328,-3.5404,-3.55,-3.55,-3.55,-3.55,-3.5481,-3.5371,-3.5199,-3.5012,-3.4811,-3.4338,-3.3468,-3.3337,-3.3374,-3.3638,-3.3627,-3.405,-3.4509,-3.4762,-3.3837,-3.2247,-3.0205,-2.912,-2.8987,-2.8987,-2.8987,-2.9012,-2.9037,-2.9143,-2.9093,-2.9168,-2.9234,-2.9233,-2.9268,-2.9544,-2.9988,-3.0693,-3.1133,-3.1176,-3.119,-3.119,-3.119,-3.119,-3.119,-3.119,-3.119,-3.119,-3.984,-3.9527,-4.0072,-4.032,-4.032,-4.032,-4.032,-4.0225,-3.947,-3.9171,-3.9333,-4.0081,-4.02,-3.9765,-3.8074,-3.6832,-3.5962,-3.4231,-3.3673,-3.4083,-3.4103,-3.4596,-3.5442,-3.55,-3.55,-3.55,-3.55,-3.55,-3.55,-3.55,-3.55,-3.55,-3.55,-3.55,-3.55,-3.55,-3.5488,-3.5495,-3.4781,-3.4428,-3.4436,-3.3355,-3.255,-3.2128,-3.1335,-3.0613,-2.9817,-2.978,-2.9597,-2.9245,-2.9608,-2.9993,-3.0345,-3.0369,-3.073,-3.1471,-3.1957,-3.2383,-3.277,-3.361,-3.4473,-3.5332,-3.5737,-3.5757,-3.5254,-3.5448,-3.5582,-3.5565,-3.5528,-3.55,-3.55,-3.55,-3.55,-3.55,-3.55,-3.5472,-3.5376,-3.5361,-3.5143,-3.4686,-3.4939,-3.5391,-3.5794,-3.6215,-3.6777,-3.7433,-3.6909,-3.5572,-3.4108,-3.1968,-3.0109,-2.9223,-2.8987,-2.8987,-2.8987,-2.8987,-2.8987,-2.8987,-2.8987,-2.8975,-2.8952,-2.8994,-2.9197,-2.9658,-3.0508,-3.1028,-3.0893,-3.1036,-3.1162,-3.119,-3.119,-3.119,-3.119,-3.119,-3.119,-3.9618,-3.8969,-3.9831,-4.0244,-4.0301,-4.032,-4.032,-4.032,-4.0301,-4.0337,-4.037,-4.0379,-4.0438,-4.0281,-3.8228,-3.6959,-3.6096,-3.391,-3.3179,-3.3699,-3.3564,-3.4192,-3.5385,-3.55,-3.55,-3.55,-3.55,-3.55,-3.55,-3.55,-3.55,-3.55,-3.55,-3.55,-3.55,-3.55,-3.55,-3.5488,-3.5495,-3.5534,-3.5585,-3.5577,-3.5306,-3.4739,-3.4705,-3.4369,-3.3628,-3.3556,-3.3484,-3.3304,-3.3304,-3.329,-3.3295,-3.3284,-3.3284,-3.332,-3.353,-3.3766,-3.3989,-3.4607,-3.5273,-3.5937,-3.6015,-3.5972,-3.5913,-3.5778,-3.564,-3.5604,-3.5546,-3.5521,-3.5507,-3.55,-3.55,-3.55,-3.55,-3.55,-3.55,-3.55,-3.5493,-3.5496,-3.6008,-3.6696,-3.772,-3.8435,-3.9025,-3.9593,-3.8776,-3.7344,-3.6128,-3.3977,-3.1849,-3.0428,-2.9483,-2.9023,-2.8987,-2.8987,-2.8987,-2.8987,-2.8987,-2.9005,-2.9005,-2.8987,-2.912,-2.948,-2.9999,-3.0472,-3.0505,-3.0767,-3.1038,-3.1128,-3.119,-3.119,-3.119,-3.119,-3.119,-4.0146,-3.9531,-3.9761,-4.0087,-4.0253,-4.0282,-4.0282,-4.032,-4.032,-4.0319,-4.0335,-4.037,-4.0441,-4.0375,-3.9473,-3.8931,-3.8688,-3.7046,-3.6199,-3.6142,-3.5596,-3.5346,-3.55,-3.55,-3.55,-3.55,-3.55,-3.55,-3.55,-3.55,-3.55,-3.55,-3.55,-3.55,-3.55,-3.55,-3.55,-3.55,-3.5481,-3.5489,-3.5509,-3.5566,-3.5583,-3.5516,-3.5483,-3.5136,-3.4404,-3.4392,-3.4058,-3.3376,-3.3359,-3.3323,-3.334,-3.3255,-3.3252,-3.3373,-3.405,-3.4846,-3.5644,-3.584,-3.5898,-3.5996,-3.6016,-3.5996,-3.5993,-3.5913,-3.5797,-3.565,-3.5599,-3.5558,-3.552,-3.5488,-3.55,-3.55,-3.55,-3.55,-3.55,-3.55,-3.55,-3.5493,-3.5638,-3.6116,-3.7598,-3.8169,-3.878,-4.0124,-3.9376,-3.8346,-3.745,-3.5685,-3.4051,-3.2756,-3.0909,-2.9301,-2.9131,-2.8987,-2.8987,-2.8987,-2.8987,-2.8987,-2.8987,-2.9,-2.9095,-2.929,-2.917,-2.9373,-3.016,-3.0553,-3.0734,-3.1099,-3.119,-3.119,-3.119,-3.119,-3.119,-3.9725,-3.8588,-3.883,-3.9099,-3.9335,-3.9364,-3.9709,-4.0301,-4.032,-4.032,-4.0319,-4.0326,-4.0415,-4.0463,-4.0161,-3.9773,-3.9207,-3.8027,-3.718,-3.6654,-3.5865,-3.55,-3.55,-3.55,-3.55,-3.55,-3.55,-3.55,-3.55,-3.55,-3.55,-3.55,-3.55,-3.55,-3.55,-3.55,-3.55,-3.55,-3.55,-3.5488,-3.5508,-3.5528,-3.5554,-3.5547,-3.5584,-3.5485,-3.5206,-3.515,-3.5001,-3.469,-3.4689,-3.4738,-3.4726,-3.468,-3.4703,-3.4792,-3.5141,-3.5546,-3.5976,-3.6016,-3.6016,-3.6016,-3.6016,-3.6016,-3.6015,-3.5972,-3.591,-3.5797,-3.5687,-3.5568,-3.5556,-3.5528,-3.55,-3.55,-3.55,-3.55,-3.55,-3.55,-3.55,-3.5519,-3.5909,-3.6594,-3.7797,-3.8842,-3.9627,-4.0274,-3.987,-3.9414,-3.9023,-3.747,-3.6071,-3.5,-3.3062,-3.1264,-3.0191,-2.9354,-2.9102,-2.9005,-2.8987,-2.8987,-2.8987,-2.8987,-2.9051,-2.9172,-2.8849,-2.9013,-3.0024,-3.0387,-3.0636,-3.1021,-3.119,-3.119,-3.119,-3.119,-3.119,-4.0048,-3.8813,-3.8389,-3.8221,-3.8247,-3.8228,-3.8855,-3.9805,-3.9872,-4.0024,-4.031,-4.0309,-4.0353,-4.0441,-4.0493,-4.018,-3.9569,-3.8757,-3.7892,-3.7046,-3.6192,-3.5731,-3.5519,-3.55,-3.55,-3.55,-3.55,-3.55,-3.55,-3.55,-3.55,-3.55,-3.55,-3.55,-3.55,-3.55,-3.55,-3.55,-3.55,-3.55,-3.5488,-3.5495,-3.5496,-3.5509,-3.5554,-3.5572,-3.5617,-3.5616,-3.5608,-3.5614,-3.5637,-3.5672,-3.5664,-3.5697,-3.5733,-3.5786,-3.5875,-3.5945,-3.6016,-3.6016,-3.6016,-3.6016,-3.6016,-3.6016,-3.6016,-3.6015,-3.5973,-3.5918,-3.5788,-3.567,-3.5626,-3.5568,-3.5541,-3.5522,-3.5515,-3.55,-3.55,-3.55,-3.55,-3.5558,-3.6173,-3.7161,-3.8277,-3.9535,-4.0433,-4.0413,-4.0388,-4.0334,-4.0163,-3.8879,-3.7614,-3.6967,-3.5201,-3.3011,-3.1065,-3.005,-2.945,-2.9023,-2.8987,-2.8987,-2.8987,-2.8987,-2.8964,-2.901,-2.8803,-2.9114,-3.0041,-3.0481,-3.0625,-3.1008,-3.121,-3.1193,-3.119,-3.119,-3.119,-4.1715,-4.0643,-3.8748,-3.758,-3.7092,-3.7073,-3.7716,-3.8769,-3.8769,-3.9297,-4.0148,-4.0244,-4.0281,-4.0316,-4.0441,-4.0482,-4.0318,-3.955,-3.8719,-3.7904,-3.7,-3.6231,-3.5519,-3.55,-3.55,-3.55,-3.55,-3.55,-3.55,-3.55,-3.55,-3.55,-3.55,-3.55,-3.55,-3.55,-3.55,-3.55,-3.55,-3.55,-3.55,-3.5488,-3.5489,-3.5502,-3.549,-3.5547,-3.5591,-3.5617,-3.5623,-3.5617,-3.5608,-3.5612,-3.5618,-3.5665,-3.5736,-3.58,-3.5857,-3.5946,-3.5996,-3.6016,-3.6016,-3.6016,-3.6016,-3.6016,-3.6016,-3.6016,-3.5996,-3.5996,-3.5936,-3.5827,-3.5732,-3.565,-3.5604,-3.5566,-3.5541,-3.5501,-3.55,-3.55,-3.55,-3.5615,-3.6288,-3.743,-3.8988,-3.9958,-4.0415,-4.0491,-4.0493,-4.0477,-4.03,-3.9546,-3.9004,-3.8359,-3.6631,-3.398,-3.1381,-3.0397,-2.9954,-2.951,-2.9239,-2.9005,-2.8987,-2.8975,-2.8952,-2.894,-2.8917,-2.93,-3.0168,-3.0603,-3.0681,-3.0929,-3.1193,-3.1254,-3.121,-3.119,-3.119,-4.1222,-3.9423,-3.7614,-3.6835,-3.6752,-3.6223,-3.6602,-3.758,-3.7618,-3.8228,-3.9144,-3.9268,-3.9633,-4.0319,-4.0344,-4.0413,-4.0406,-3.9591,-3.9023,-3.8616,-3.7336,-3.6548,-3.626,-3.5755,-3.55,-3.55,-3.55,-3.55,-3.55,-3.55,-3.55,-3.55,-3.55,-3.55,-3.55,-3.55,-3.55,-3.55,-3.55,-3.55,-3.55,-3.55,-3.5488,-3.5482,-3.5482,-3.5508,-3.5521,-3.5554,-3.5528,-3.5547,-3.5578,-3.5616,-3.5622,-3.5672,-3.5728,-3.5803,-3.5855,-3.5926,-3.5996,-3.6016,-3.6016,-3.6016,-3.6016,-3.6016,-3.6016,-3.6016,-3.6016,-3.5996,-3.5976,-3.5927,-3.5866,-3.5765,-3.5639,-3.5605,-3.5579,-3.554,-3.5508,-3.55,-3.55,-3.5692,-3.6635,-3.8027,-3.9084,-3.9996,-4.0469,-4.0492,-4.0507,-4.0482,-4.0419,-4.0125,-3.9736,-3.9163,-3.8242,-3.664,-3.3866,-3.1628,-3.0397,-3.0013,-2.9665,-2.9228,-2.9053,-2.9005,-2.8982,-2.8964,-2.8994,-2.9381,-3.0201,-3.1075,-3.1076,-3.0819,-3.1082,-3.1293,-3.1249,-3.1288,-3.1249,-4.1111,-3.8726,-3.7533,-3.6541,-3.5716,-3.5136,-3.5485,-3.6436,-3.6485,-3.7111,-3.7997,-3.8161,-3.875,-3.9671,-3.9805,-4.005,-4.0356,-3.9783,-3.9397,-3.9057,-3.7732,-3.6926,-3.655,-3.5849,-3.5467,-3.5467,-3.5493,-3.55,-3.55,-3.55,-3.55,-3.55,-3.55,-3.55,-3.55,-3.55,-3.55,-3.55,-3.55,-3.55,-3.55,-3.55,-3.55,-3.55,-3.55,-3.55,-3.55,-3.5489,-3.5489,-3.5489,-3.5541,-3.5566,-3.559,-3.5632,-3.5702,-3.5742,-3.5808,-3.588,-3.5951,-3.5974,-3.5976,-3.6016,-3.6016,-3.6016,-3.6016,-3.6016,-3.6016,-3.6016,-3.6016,-3.6015,-3.5993,-3.5885,-3.5768,-3.5698,-3.5636,-3.5585,-3.5528,-3.5527,-3.5776,-3.6449,-3.7584,-3.87,-3.9527,-4.0131,-4.0439,-4.0496,-4.0503,-4.0487,-4.0479,-4.0444,-4.0277,-3.9635,-3.892,-3.78,-3.5793,-3.3668,-3.1812,-3.1213,-3.0301,-2.9732,-2.9258,-2.918,-2.9005,-2.9005,-2.921,-2.9575,-3.0265,-3.1216,-3.1301,-3.0904,-3.1046,-3.1304,-3.1343,-3.1406,-3.1368,-4.1644,-3.9056,-3.8707,-3.6905,-3.4545,-3.4067,-3.4452,-3.5293,-3.5392,-3.6011,-3.6927,-3.6994,-3.7637,-3.8509,-3.8683,-3.9222,-4.0013,-4.0067,-3.9776,-3.9169,-3.8317,-3.7512,-3.6811,-3.5967,-3.5489,-3.542,-3.5486,-3.55,-3.55,-3.55,-3.55,-3.55,-3.55,-3.55,-3.55,-3.55,-3.55,-3.55,-3.55,-3.55,-3.55,-3.55,-3.55,-3.55,-3.55,-3.55,-3.55,-3.55,-3.5488,-3.5488,-3.5489,-3.5541,-3.5585,-3.559,-3.5615,-3.5693,-3.5696,-3.5781,-3.5882,-3.5916,-3.5948,-3.5976,-3.6016,-3.6016,-3.6016,-3.6016,-3.6016,-3.6016,-3.6016,-3.6016,-3.6074,-3.6111,-3.6039,-3.5895,-3.5722,-3.5616,-3.5593,-3.5592,-3.6161,-3.7618,-3.8695,-3.9573,-4.0227,-4.0458,-4.0496,-4.0496,-4.0489,-4.0508,-4.05,-4.0492,-4.0473,-4.0172,-3.9468,-3.843,-3.7111,-3.5681,-3.3968,-3.2458,-3.1356,-3.0522,-2.9965,-2.9714,-2.9131,-2.9023,-2.9317,-2.9661,-2.9677,-3.057,-3.1154,-3.0991,-3.1217,-3.1442,-3.1672,-3.1748,-3.1543,-4.258,-4.102,-3.9368,-3.7826,-3.617,-3.4559,-3.4021,-3.4284,-3.4302,-3.4895,-3.5752,-3.59,-3.6503,-3.7337,-3.7532,-3.8153,-3.9145,-3.9232,-3.9452,-3.9675,-3.908,-3.8516,-3.8055,-3.6911,-3.5996,-3.5556,-3.5493,-3.55,-3.55,-3.55,-3.55,-3.55,-3.55,-3.55,-3.55,-3.55,-3.55,-3.55,-3.55,-3.55,-3.55,-3.55,-3.55,-3.55,-3.55,-3.55,-3.55,-3.55,-3.55,-3.55,-3.5494,-3.5502,-3.5534,-3.5547,-3.5556,-3.5602,-3.5621,-3.5678,-3.5808,-3.5871,-3.591,-3.5947,-3.5974,-3.5996,-3.6016,-3.6016,-3.6016,-3.6016,-3.6016,-3.6191,-3.6738,-3.6894,-3.6616,-3.5976,-3.5838,-3.584,-3.5892,-3.6202,-3.7203,-3.8595,-3.9157,-3.9657,-4.0265,-4.0496,-4.0496,-4.0496,-4.0496,-4.0496,-4.0496,-4.0496,-4.0489,-4.0358,-3.97,-3.9165,-3.8112,-3.7009,-3.5651,-3.4023,-3.2713,-3.1614,-3.0966,-3.0013,-2.9414,-2.9097,-2.9409,-2.9557,-2.9564,-2.9893,-3.0509,-3.1071,-3.1282,-3.1625,-3.2054,-3.2109,-3.1967,-4.2396,-4.1203,-3.9148,-3.7588,-3.6431,-3.4523,-3.3807,-3.3807,-3.3807,-3.4189,-3.4715,-3.4814,-3.5386,-3.6239,-3.6405,-3.7043,-3.7997,-3.8064,-3.8655,-3.9433,-3.8861,-3.8498,-3.824,-3.6812,-3.6094,-3.5907,-3.5614,-3.5467,-3.55,-3.55,-3.55,-3.55,-3.55,-3.55,-3.55,-3.55,-3.55,-3.55,-3.55,-3.55,-3.55,-3.55,-3.55,-3.55,-3.55,-3.55,-3.55,-3.55,-3.55,-3.55,-3.55,-3.5494,-3.5502,-3.5489,-3.5521,-3.5546,-3.5565,-3.5616,-3.5706,-3.5756,-3.5831,-3.5885,-3.5946,-3.5976,-3.5996,-3.6016,-3.6016,-3.6016,-3.6016,-3.6211,-3.6699,-3.7148,-3.6973,-3.6512,-3.6726,-3.6755,-3.681,-3.7404,-3.8205,-3.9245,-3.9676,-4.0054,-4.0412,-4.0519,-4.0504,-4.0496,-4.0496,-4.0496,-4.0496,-4.0496,-4.0496,-4.0373,-3.9915,-3.9477,-3.9169,-3.8255,-3.7218,-3.5703,-3.417,-3.309,-3.2213,-3.0764,-2.9791,-2.9246,-2.9262,-2.9262,-2.9277,-2.9588,-3.0097,-3.063,-3.1183,-3.1592,-3.1958,-3.2524,-3.2484,-4.1497,-3.9934,-3.8282,-3.6853,-3.5463,-3.4302,-3.3807,-3.3807,-3.3807,-3.3839,-3.3889,-3.397,-3.4415,-3.5163,-3.5306,-3.5912,-3.6779,-3.6927,-3.754,-3.8165,-3.7866,-3.7468,-3.7108,-3.5904,-3.567,-3.6101,-3.5649,-3.5398,-3.5432,-3.546,-3.55,-3.55,-3.55,-3.55,-3.55,-3.55,-3.55,-3.55,-3.55,-3.55,-3.55,-3.55,-3.55,-3.55,-3.55,-3.55,-3.55,-3.55,-3.55,-3.55,-3.55,-3.5488,-3.5488,-3.55,-3.5495,-3.5522,-3.549,-3.5531,-3.5586,-3.5611,-3.5683,-3.5831,-3.59,-3.5936,-3.5996,-3.5996,-3.6016,-3.6016,-3.6016,-3.6133,-3.6445,-3.7012,-3.7441,-3.7656,-3.7959,-3.8143,-3.8419,-3.9036,-3.9443,-3.9746,-4.0272,-4.0684,-4.068,-4.0596,-4.0559,-4.0527,-4.0527,-4.0534,-4.0496,-4.0496,-4.0496,-4.0315,-4.0058,-3.9692,-3.9339,-3.885,-3.7782,-3.6481,-3.5103,-3.4122,-3.2741,-3.1129,-2.9887,-2.9343,-2.9157,-2.909,-2.9104,-2.9404,-2.9758,-3.0264,-3.08,-3.1334,-3.1966,-3.2616,-3.2901,-4.2945,-4.2249,-3.9551,-3.8138,-3.7334,-3.5,-3.3825,-3.3807,-3.3807,-3.3807,-3.3807,-3.3807,-3.397,-3.4221,-3.4271,-3.4814,-3.5603,-3.5832,-3.6386,-3.7299,-3.7246,-3.6729,-3.6306,-3.5807,-3.5426,-3.5325,-3.5223,-3.5138,-3.5215,-3.5342,-3.5439,-3.55,-3.5474,-3.5481,-3.55,-3.55,-3.55,-3.55,-3.55,-3.55,-3.55,-3.55,-3.55,-3.55,-3.55,-3.55,-3.55,-3.55,-3.55,-3.55,-3.55,-3.55,-3.55,-3.55,-3.5488,-3.5501,-3.5482,-3.5489,-3.5532,-3.5574,-3.5636,-3.5694,-3.5794,-3.5926,-3.5936,-3.5974,-3.5996,-3.6016,-3.6016,-3.6543,-3.7598,-3.8105,-3.875,-3.9785,-3.9277,-3.8881,-3.9357,-3.957,-3.9894,-4.0502,-4.0692,-4.0775,-4.0781,-4.0742,-4.0701,-4.0655,-4.0642,-4.0621,-4.0545,-4.0519,-4.0534,-4.0504,-4.0277,-3.9854,-3.9469,-3.9058,-3.8262,-3.7017,-3.5837,-3.4814,-3.3005,-3.0901,-2.9832,-2.9023,-2.9324,-2.9372,-2.9131,-2.914,-2.955,-2.9923,-3.0631,-3.1287,-3.2192,-3.2897,-3.3125,-4.28,-4.2286,-3.9753,-3.8303,-3.7459,-3.5243,-3.4105,-3.3844,-3.3807,-3.3807,-3.3807,-3.3807,-3.3807,-3.3807,-3.3839,-3.4102,-3.4665,-3.4715,-3.5318,-3.6189,-3.6288,-3.6295,-3.6107,-3.5661,-3.5116,-3.5172,-3.4916,-3.4879,-3.4963,-3.5138,-3.5281,-3.5327,-3.5405,-3.546,-3.55,-3.55,-3.55,-3.55,-3.55,-3.55,-3.55,-3.55,-3.55,-3.55,-3.55,-3.55,-3.55,-3.55,-3.55,-3.55,-3.55,-3.55,-3.55,-3.55,-3.55,-3.55,-3.55,-3.5494,-3.5509,-3.554,-3.5571,-3.5611,-3.5721,-3.5794,-3.5856,-3.5936,-3.6029,-3.6484,-3.6504,-3.7226,-3.8281,-3.8906,-3.9766,-4.0684,-4.0293,-3.9902,-4.043,-4.0384,-4.0532,-4.087,-4.0957,-4.0893,-4.0877,-4.0828,-4.079,-4.0766,-4.074,-4.068,-4.061,-4.0588,-4.0564,-4.0534,-4.0485,-4.015,-3.9611,-3.9161,-3.8757,-3.755,-3.6005,-3.5089,-3.3793,-3.1531,-3.0692,-3.0105,-2.9861,-2.9576,-2.9336,-2.9131,-2.9177,-2.969,-3.0448,-3.1133,-3.1902,-3.2833,-3.3085,-4.1939,-4.1113,-3.9572,-3.7973,-3.6541,-3.55,-3.4619,-3.3899,-3.3807,-3.3807,-3.3807,-3.3807,-3.3807,-3.3807,-3.3807,-3.3839,-3.3857,-3.397,-3.4596,-3.5206,-3.5454,-3.5621,-3.6297,-3.4963,-3.4726,-3.5136,-3.48,-3.4658,-3.4675,-3.4841,-3.5016,-3.513,-3.5278,-3.5405,-3.546,-3.5474,-3.55,-3.55,-3.55,-3.5479,-3.5453,-3.546,-3.5467,-3.5439,-3.5493,-3.55,-3.55,-3.55,-3.55,-3.55,-3.55,-3.55,-3.55,-3.55,-3.55,-3.55,-3.55,-3.5481,-3.55,-3.5501,-3.5534,-3.5577,-3.56,-3.5645,-3.5758,-3.5848,-3.6194,-3.696,-3.724,-3.7715,-3.873,-3.9531,-4.0312,-4.1016,-4.1094,-4.1152,-4.1191,-4.1191,-4.1172,-4.1112,-4.1038,-4.1042,-4.1003,-4.0928,-4.0839,-4.0867,-4.0846,-4.0791,-4.0715,-4.0655,-4.0622,-4.0571,-4.0515,-4.0439,-3.9861,-3.9265,-3.8834,-3.8077,-3.6197,-3.5071,-3.4805,-3.3247,-3.226,-3.156,-3.1007,-3.0304,-2.9606,-2.9421,-2.9361,-2.9335,-3.0026,-3.0558,-3.117,-3.2245,-3.2848,-4.2713,-4.1956,-4.1003,-3.9294,-3.7309,-3.634,-3.5165,-3.3844,-3.3825,-3.3807,-3.3807,-3.3807,-3.3807,-3.3807,-3.3807,-3.3807,-3.3807,-3.3857,-3.4384,-3.5194,-3.4465,-3.4814,-3.5337,-3.4443,-3.4107,-3.4296,-3.4345,-3.4291,-3.4357,-3.4572,-3.4813,-3.498,-3.5069,-3.5266,-3.5398,-3.5446,-3.55,-3.55,-3.55,-3.5424,-3.5358,-3.541,-3.541,-3.5289,-3.5403,-3.5467,-3.55,-3.55,-3.55,-3.55,-3.55,-3.55,-3.55,-3.55,-3.55,-3.55,-3.55,-3.55,-3.55,-3.5488,-3.5494,-3.5515,-3.5579,-3.5621,-3.5636,-3.5813,-3.6267,-3.6913,-3.7209,-3.805,-3.936,-4.0389,-4.0856,-4.1086,-4.1172,-4.1191,-4.1191,-4.1191,-4.1172,-4.1172,-4.1152,-4.113,-4.1087,-4.1062,-4.1,-4.0978,-4.0945,-4.0914,-4.0824,-4.0749,-4.0692,-4.0668,-4.059,-4.0498,-4.008,-3.9487,-3.8996,-3.8488,-3.6834,-3.5561,-3.5258,-3.4533,-3.3368,-3.2571,-3.1967,-3.1216,-3.0458,-3.0216,-3.0264,-2.9961,-2.9664,-3.0197,-3.0876,-3.1856,-3.2454,-4.2751,-4.1701,-4.126,-3.9717,-3.7584,-3.6633,-3.5569,-3.4449,-3.3935,-3.3807,-3.3807,-3.3807,-3.3807,-3.3807,-3.3807,-3.3807,-3.3807,-3.3807,-3.4071,-3.4465,-3.4052,-3.4139,-3.4415,-3.4152,-3.3807,-3.3834,-3.3952,-3.4005,-3.4087,-3.4291,-3.4475,-3.4636,-3.4784,-3.5008,-3.5211,-3.5297,-3.535,-3.5446,-3.5453,-3.5364,-3.5297,-3.5239,-3.519,-3.5053,-3.5141,-3.5218,-3.5218,-3.5324,-3.5346,-3.5376,-3.5446,-3.55,-3.55,-3.55,-3.55,-3.55,-3.55,-3.55,-3.55,-3.55,-3.5481,-3.55,-3.554,-3.5558,-3.5726,-3.597,-3.6712,-3.7471,-3.8134,-3.8943,-4.0181,-4.0723,-4.1095,-4.108,-4.1115,-4.1166,-4.1168,-4.1191,-4.1191,-4.1191,-4.1191,-4.1172,-4.1152,-4.1133,-4.1091,-4.1048,-4.1044,-4.1009,-4.0944,-4.0863,-4.0809,-4.0762,-4.0699,-4.0538,-4.021,-3.9716,-3.9169,-3.8604,-3.7685,-3.674,-3.6257,-3.5327,-3.4263,-3.3583,-3.2927,-3.2355,-3.1711,-3.1483,-3.1024,-3.0471,-3.0228,-3.0284,-3.0471,-3.1091,-3.158,-4.2441,-4.1262,-4.1262,-3.9884,-3.7771,-3.6967,-3.6036,-3.4931,-3.4156,-3.3807,-3.3807,-3.3807,-3.3807,-3.3807,-3.3807,-3.3807,-3.3807,-3.3807,-3.3939,-3.392,-3.3889,-3.3889,-3.392,-3.3857,-3.3807,-3.3807,-3.3834,-3.3847,-3.3881,-3.4005,-3.4196,-3.4242,-3.4412,-3.4695,-3.4944,-3.5043,-3.5138,-3.5278,-3.5327,-3.5293,-3.5235,-3.5127,-3.5043,-3.4917,-3.4889,-3.4945,-3.4954,-3.5035,-3.5141,-3.5157,-3.5346,-3.5432,-3.5472,-3.5493,-3.55,-3.55,-3.55,-3.55,-3.55,-3.55,-3.55,-3.55,-3.5488,-3.5623,-3.5856,-3.6412,-3.7254,-3.8272,-3.912,-3.9956,-4.0857,-4.1011,-4.103,-4.1009,-4.1033,-4.1078,-4.1087,-4.1143,-4.1172,-4.1191,-4.1191,-4.1191,-4.1191,-4.1172,-4.1133,-4.1112,-4.1111,-4.1088,-4.1028,-4.0976,-4.0912,-4.084,-4.0785,-4.0742,-4.0446,-4.0269,-3.9687,-3.9208,-3.8481,-3.781,-3.7168,-3.6231,-3.527,-3.4515,-3.3873,-3.3337,-3.289,-3.2533,-3.1958,-3.1148,-3.0828,-3.0934,-3.0746,-3.0433,-3.0839,-4.2154,-4.2021,-4.2021,-4.0645,-3.8655,-3.8211,-3.6893,-3.5064,-3.4229,-3.3825,-3.3807,-3.3807,-3.3807,-3.3807,-3.3807,-3.3807,-3.3807,-3.3807,-3.3807,-3.3807,-3.3807,-3.3807,-3.3807,-3.3807,-3.3807,-3.3807,-3.3807,-3.3807,-3.3807,-3.3855,-3.3992,-3.4148,-3.4237,-3.4412,-3.4645,-3.4803,-3.4889,-3.5051,-3.5094,-3.5086,-3.5041,-3.5066,-3.5015,-3.4851,-3.4743,-3.4713,-3.4773,-3.4822,-3.4889,-3.4954,-3.5141,-3.5207,-3.5266,-3.5376,-3.546,-3.55,-3.55,-3.55,-3.55,-3.55,-3.55,-3.55,-3.5558,-3.5904,-3.6316,-3.6812,-3.7791,-3.8904,-3.9871,-4.0602,-4.0801,-4.091,-4.0937,-4.0937,-4.0963,-4.1009,-4.1011,-4.103,-4.1101,-4.1152,-4.1172,-4.1191,-4.1191,-4.1191,-4.1172,-4.1132,-4.1132,-4.1131,-4.1104,-4.1048,-4.0981,-4.0925,-4.0859,-4.0807,-4.0728,-4.0637,-4.0365,-4.0101,-3.947,-3.8693,-3.7986,-3.713,-3.6291,-3.5465,-3.4883,-3.4439,-3.4015,-3.3617,-3.2965,-3.2204,-3.1901,-3.1663,-3.1294,-3.0973,-3.0734,-4.2395,-4.21,-4.2082,-4.1001,-3.9328,-3.8693,-3.7427,-3.572,-3.4802,-3.4174,-3.3899,-3.3807,-3.3807,-3.3807,-3.3807,-3.3807,-3.3807,-3.3807,-3.3807,-3.3807,-3.3807,-3.3807,-3.3807,-3.3807,-3.3807,-3.3807,-3.3807,-3.3807,-3.3807,-3.3807,-3.3881,-3.3941,-3.3986,-3.4129,-3.4345,-3.4464,-3.4614,-3.4745,-3.4803,-3.4803,-3.4745,-3.4803,-3.4665,-3.4486,-3.4416,-3.436,-3.4405,-3.4588,-3.462,-3.4643,-3.4832,-3.4935,-3.5027,-3.5138,-3.5354,-3.5453,-3.5481,-3.55,-3.55,-3.55,-3.55,-3.5538,-3.5827,-3.625,-3.6853,-3.7567,-3.8602,-3.966,-4.0237,-4.069,-4.0705,-4.0801,-4.083,-4.0828,-4.0888,-4.0945,-4.0961,-4.0967,-4.102,-4.1081,-4.1113,-4.1133,-4.1152,-4.1152,-4.1172,-4.1152,-4.1132,-4.1152,-4.1152,-4.1113,-4.1055,-4.0998,-4.0952,-4.0919,-4.0871,-4.0805,-4.077,-4.0602,-4.0306,-3.9535,-3.8812,-3.795,-3.7093,-3.6241,-3.5789,-3.5299,-3.5009,-3.4542,-3.3895,-3.332,-3.3077,-3.2712,-3.1995,-3.1534,-3.1363,-4.2614,-4.2213,-4.2031,-4.1099,-3.9741,-3.9179,-3.7799,-3.6149,-3.5435,-3.4679,-3.3862,-3.3807,-3.3807,-3.3807,-3.3807,-3.3807,-3.3807,-3.3807,-3.3807,-3.3807,-3.3807,-3.3807,-3.3807,-3.3807,-3.3807,-3.3807,-3.3807,-3.3807,-3.3807,-3.3807,-3.3807,-3.3847,-3.3834,-3.3889,-3.4093,-3.4165,-3.4307,-3.4442,-3.4537,-3.4516,-3.4494,-3.4367,-3.4197,-3.3959,-3.3959,-3.3985,-3.4055,-3.4245,-3.4321,-3.4353,-3.4508,-3.4693,-3.4684,-3.487,-3.5113,-3.5339,-3.5439,-3.5474,-3.55,-3.55,-3.55,-3.5519,-3.625,-3.6673,-3.7392,-3.8438,-3.9754,-4.0441,-4.0628,-4.0643,-4.0629,-4.0687,-4.0718,-4.0725,-4.0779,-4.0873,-4.0864,-4.0864,-4.0891,-4.0944,-4.1014,-4.1042,-4.1053,-4.112,-4.1147,-4.1151,-4.1133,-4.1172,-4.1172,-4.1172,-4.1133,-4.1094,-4.1037,-4.1019,-4.0972,-4.0909,-4.0863,-4.0812,-4.0587,-4.0106,-3.9443,-3.8749,-3.7855,-3.6903,-3.632,-3.5849,-3.5669,-3.5393,-3.476,-3.43,-3.4181,-3.3729,-3.2947,-3.2458,-3.2241,-4.2396,-4.2905,-4.2214,-4.1012,-3.9859,-4.0139,-3.8312,-3.5432,-3.5692,-3.5117,-3.3807,-3.3807,-3.3807,-3.3807,-3.3807,-3.3807,-3.3807,-3.3807,-3.3807,-3.3807,-3.3807,-3.3807,-3.3807,-3.3807,-3.3807,-3.3807,-3.3807,-3.3807,-3.3807,-3.3807,-3.3807,-3.3807,-3.3807,-3.3829,-3.3908,-3.3954,-3.403,-3.4215,-3.4316,-3.4379,-3.4428,-3.4267,-3.4185,-3.4086,-3.3959,-3.3873,-3.3908,-3.4011,-3.4018,-3.408,-3.4249,-3.4345,-3.439,-3.4593,-3.4744,-3.4963,-3.5215,-3.5481,-3.5467,-3.5474,-3.5596,-3.575,-3.6346,-3.7019,-3.8084,-3.9219,-4.0285,-4.0419,-4.0534,-4.0557,-4.0583,-4.0605,-4.0612,-4.0628,-4.0701,-4.0732,-4.0739,-4.0779,-4.0807,-4.0793,-4.0834,-4.0898,-4.0935,-4.104,-4.1115,-4.1122,-4.1152,-4.1172,-4.1191,-4.1191,-4.1191,-4.1133,-4.111,-4.1101,-4.1073,-4.0988,-4.0969,-4.0947,-4.0774,-4.0552,-3.9985,-3.9281,-3.8357,-3.7498,-3.6839,-3.6137,-3.5707,-3.5437,-3.5357,-3.516,-3.486,-3.4393,-3.3821,-3.3468,-3.3226,-4.2667,-4.2939,-4.2631,-4.1887,-4.0885,-4.0306,-3.8625,-3.6504,-3.5637,-3.482,-3.3959,-3.3807,-3.3807,-3.3807,-3.3807,-3.3807,-3.3807,-3.3807,-3.3807,-3.3807,-3.3807,-3.3807,-3.3807,-3.3807,-3.3807,-3.3807,-3.3807,-3.3807,-3.3807,-3.3807,-3.3807,-3.3807,-3.3807,-3.3807,-3.3807,-3.3834,-3.39,-3.3959,-3.4011,-3.4043,-3.408,-3.4049,-3.3991,-3.3991,-3.3873,-3.3847,-3.3847,-3.3881,-3.3881,-3.3921,-3.4012,-3.4049,-3.4099,-3.426,-3.4453,-3.4497,-3.4822,-3.5105,-3.5289,-3.5424,-3.571,-3.6288,-3.6981,-3.8027,-3.9161,-3.9977,-4.0496,-4.0496,-4.0496,-4.0523,-4.0558,-4.0573,-4.0595,-4.0598,-4.0626,-4.064,-4.0654,-4.0674,-4.0713,-4.0681,-4.0688,-4.0751,-4.082,-4.0906,-4.0992,-4.1042,-4.1083,-4.1113,-4.1152,-4.1172,-4.1172,-4.1172,-4.1152,-4.1151,-4.1108,-4.1061,-4.1056,-4.1023,-4.0991,-4.0734,-4.0438,-3.9758,-3.8854,-3.7749,-3.6767,-3.6151,-3.5693,-3.5502,-3.543,-3.5429,-3.5453,-3.497,-3.4538,-3.4653,-3.4304,-4.2919,-4.2919,-4.2919,-4.2395,-4.1469,-4.0236,-3.8667,-3.6827,-3.574,-3.4664,-3.395,-3.3793,-3.3807,-3.3807,-3.3807,-3.3807,-3.3807,-3.3807,-3.3807,-3.3807,-3.3807,-3.3807,-3.3807,-3.3807,-3.3807,-3.3807,-3.3807,-3.3807,-3.3807,-3.3807,-3.3807,-3.3807,-3.3807,-3.3807,-3.3807,-3.382,-3.3834,-3.3847,-3.3847,-3.386,-3.3847,-3.3847,-3.3834,-3.382,-3.3807,-3.3807,-3.382,-3.3829,-3.3829,-3.3847,-3.3855,-3.3895,-3.3895,-3.4012,-3.4129,-3.4213,-3.4464,-3.4695,-3.5039,-3.5403,-3.5963,-3.6726,-3.7808,-3.8873,-4.0054,-4.0496,-4.0496,-4.0496,-4.0496,-4.0496,-4.0496,-4.0539,-4.0546,-4.0569,-4.0591,-4.0586,-4.06,-4.0633,-4.0653,-4.0633,-4.0633,-4.0607,-4.0681,-4.0765,-4.0852,-4.0937,-4.1009,-4.1051,-4.1112,-4.1145,-4.1169,-4.1152,-4.1172,-4.1172,-4.1171,-4.1131,-4.113,-4.1108,-4.1052,-4.0959,-4.0689,-4.0214,-3.9451,-3.8244,-3.6964,-3.6251,-3.5853,-3.5672,-3.5521,-3.5494,-3.5467,-3.546,-3.5343,-3.542,-3.5268,-4.2919,-4.2919,-4.2919,-4.2049,-4.0709,-4.0492,-3.8714,-3.6576,-3.6058,-3.5089,-3.4041,-3.378,-3.3807,-3.3807,-3.3807,-3.3807,-3.3807,-3.3807,-3.3807,-3.3807,-3.3807,-3.3807,-3.3807,-3.3807,-3.3807,-3.3807,-3.3807,-3.3807,-3.3807,-3.3807,-3.3807,-3.3807,-3.3807,-3.3807,-3.3807,-3.3807,-3.3807,-3.3807,-3.3807,-3.3807,-3.3807,-3.3807,-3.3807,-3.3807,-3.3807,-3.3807,-3.3807,-3.382,-3.382,-3.3807,-3.382,-3.3834,-3.3834,-3.3868,-3.3915,-3.3986,-3.4117,-3.4311,-3.4575,-3.5477,-3.6235,-3.6919,-3.8078,-3.9515,-4.0362,-4.0496,-4.0496,-4.0496,-4.0496,-4.0496,-4.0496,-4.0504,-4.0531,-4.0539,-4.0554,-4.0569,-4.0576,-4.0583,-4.0603,-4.0588,-4.0588,-4.0576,-4.0576,-4.0649,-4.0709,-4.0796,-4.0898,-4.0961,-4.1066,-4.1108,-4.1141,-4.1147,-4.119,-4.1191,-4.1191,-4.1172,-4.1171,-4.1132,-4.1107,-4.1085,-4.1005,-4.0449,-4.0,-3.8898,-3.7704,-3.6851,-3.6051,-3.5863,-3.5681,-3.5554,-3.5481,-3.5474,-3.5467,-3.5453,-3.5439,-4.2919,-4.2919,-4.2919,-4.2538,-4.1814,-3.9912,-3.9004,-3.8527,-3.6814,-3.5724,-3.5074,-3.428,-3.3807,-3.3807,-3.3807,-3.3807,-3.3807,-3.3807,-3.3807,-3.3807,-3.3807,-3.3807,-3.3807,-3.3807,-3.3807,-3.3807,-3.3807,-3.3807,-3.3807,-3.3807,-3.3807,-3.3807,-3.3807,-3.3807,-3.3807,-3.3807,-3.3807,-3.3807,-3.3807,-3.3807,-3.3807,-3.3807,-3.3807,-3.3807,-3.3807,-3.3807,-3.3807,-3.3807,-3.3807,-3.3807,-3.3807,-3.3807,-3.3807,-3.3807,-3.382,-3.3829,-3.3954,-3.3999,-3.4308,-3.5468,-3.6752,-3.8213,-3.9288,-4.0131,-4.045,-4.0496,-4.0496,-4.0496,-4.0496,-4.0496,-4.0496,-4.0496,-4.0496,-4.0496,-4.0504,-4.0531,-4.0565,-4.0573,-4.0573,-4.0546,-4.0565,-4.0561,-4.0546,-4.0554,-4.0595,-4.0681,-4.078,-4.0886,-4.0971,-4.105,-4.1048,-4.1087,-4.1117,-4.1142,-4.1143,-4.1169,-4.1191,-4.1172,-4.1133,-4.1133,-4.1133,-4.1113,-4.0527,-3.9453,-3.843,-3.7488,-3.6732,-3.6171,-3.5838,-3.5651,-3.5547,-3.55,-3.5474,-3.546,-3.5453,-4.2919,-4.2865,-4.2394,-4.2466,-4.2466,-4.0021,-3.953,-4.0019,-3.782,-3.6349,-3.5992,-3.4509,-3.3793,-3.3807,-3.3807,-3.3807,-3.3807,-3.3807,-3.3807,-3.3807,-3.3807,-3.3807,-3.3807,-3.3807,-3.3807,-3.3807,-3.3807,-3.3807,-3.3807,-3.3807,-3.3807,-3.3807,-3.3807,-3.3807,-3.3807,-3.3807,-3.3807,-3.3807,-3.3807,-3.3807,-3.3807,-3.3807,-3.3807,-3.3807,-3.3807,-3.3807,-3.3807,-3.3807,-3.3807,-3.3807,-3.3807,-3.3807,-3.3807,-3.3807,-3.3807,-3.3807,-3.382,-3.3834,-3.4246,-3.5267,-3.6977,-3.8586,-3.9361,-4.0002,-4.0377,-4.0469,-4.0496,-4.0496,-4.0496,-4.0496,-4.0489,-4.0496,-4.0496,-4.0496,-4.0496,-4.0523,-4.0531,-4.0539,-4.0531,-4.0504,-4.0531,-4.0539,-4.0531,-4.0523,-4.0569,-4.0614,-4.0662,-4.0751,-4.0837,-4.0906,-4.0932,-4.0986,-4.1054,-4.1064,-4.1092,-4.1114,-4.1146,-4.1169,-4.1152,-4.1172,-4.1191,-4.1191,-4.0898,-3.9844,-3.8877,-3.8056,-3.7339,-3.6701,-3.6158,-3.5712,-3.5632,-3.5534,-3.55,-3.5474,-3.5474,-4.281,-4.2701,-4.1289,-4.1542,-4.2484,-4.1107,-4.0401,-4.0474,-3.8932,-3.7451,-3.6158,-3.4607,-3.3831,-3.3835,-3.3793,-3.3793,-3.3775,-3.3793,-3.378,-3.378,-3.378,-3.3793,-3.3807,-3.3807,-3.3807,-3.3807,-3.3807,-3.3807,-3.3807,-3.3807,-3.3807,-3.3807,-3.3807,-3.3807,-3.3807,-3.3807,-3.3807,-3.3807,-3.3807,-3.3807,-3.3807,-3.3807,-3.3807,-3.3807,-3.3807,-3.3807,-3.3807,-3.3807,-3.3807,-3.3807,-3.3807,-3.3807,-3.3807,-3.3807,-3.3807,-3.3807,-3.3807,-3.3807,-3.3915,-3.5002,-3.6519,-3.8252,-3.8841,-3.9181,-4.0052,-4.0358,-4.0292,-4.0114,-4.0385,-4.0431,-4.0469,-4.0489,-4.0469,-4.033,-4.0292,-4.0496,-4.0516,-4.0523,-4.0496,-4.0496,-4.0496,-4.0496,-4.0496,-4.0516,-4.055,-4.0576,-4.0593,-4.0649,-4.0724,-4.0766,-4.0796,-4.0852,-4.0902,-4.0928,-4.0951,-4.1046,-4.1088,-4.1116,-4.1152,-4.1172,-4.1191,-4.1191,-4.0742,-4.0078,-3.9452,-3.8727,-3.7939,-3.7165,-3.6492,-3.5813,-3.5679,-3.559,-3.5528,-3.5494,-3.5515,-4.0691,-3.993,-4.1433,-4.1778,-4.1162,-3.9641,-3.9932,-4.1166,-4.0019,-3.851,-3.7098,-3.5778,-3.4595,-3.4055,-3.3739,-3.3739,-3.3726,-3.3671,-3.3671,-3.3671,-3.373,-3.3726,-3.3753,-3.378,-3.3807,-3.3807,-3.3807,-3.3807,-3.3807,-3.3807,-3.3807,-3.3807,-3.3807,-3.3807,-3.3807,-3.3807,-3.3807,-3.3807,-3.3807,-3.3807,-3.3807,-3.3807,-3.3807,-3.3807,-3.3807,-3.3807,-3.3807,-3.3807,-3.3807,-3.3807,-3.3807,-3.3807,-3.3807,-3.3807,-3.3807,-3.3807,-3.3807,-3.3807,-3.3839,-3.4443,-3.5416,-3.6858,-3.78,-3.7974,-3.8366,-3.9095,-3.934,-3.9734,-4.0202,-4.0117,-3.9676,-4.0226,-4.0265,-3.9769,-3.9789,-4.033,-4.0496,-4.0496,-4.0496,-4.0496,-4.0496,-4.0496,-4.0496,-4.0496,-4.0523,-4.0539,-4.0557,-4.0586,-4.0649,-4.0655,-4.0655,-4.0697,-4.0729,-4.0762,-4.0818,-4.0912,-4.0983,-4.1003,-4.1067,-4.1152,-4.1172,-4.1172,-4.1055,-4.0625,-4.0039,-3.9433,-3.8532,-3.7608,-3.6557,-3.5929,-3.5836,-3.5684,-3.5602,-3.5558,-3.5534,-3.9912,-3.926,-4.1198,-4.1832,-4.1198,-4.0238,-4.0833,-4.1718,-4.0155,-3.8588,-3.7435,-3.6065,-3.4786,-3.3907,-3.3657,-3.3657,-3.3657,-3.3615,-3.3605,-3.3605,-3.3647,-3.3675,-3.3703,-3.3726,-3.3753,-3.3762,-3.3793,-3.3807,-3.3807,-3.3807,-3.3807,-3.3807,-3.3807,-3.3807,-3.3807,-3.3807,-3.3807,-3.3807,-3.3807,-3.3807,-3.3807,-3.3807,-3.3807,-3.3807,-3.3807,-3.3807,-3.3807,-3.3807,-3.3807,-3.3807,-3.3807,-3.3807,-3.3807,-3.3807,-3.3807,-3.3807,-3.3807,-3.3807,-3.3839,-3.3839,-3.4747,-3.5639,-3.628,-3.6804,-3.728,-3.8317,-3.8785,-3.9248,-3.987,-3.968,-3.9369,-3.997,-3.9742,-3.9235,-3.9395,-3.992,-4.0423,-4.0423,-4.0489,-4.0489,-4.0496,-4.0496,-4.0496,-4.0496,-4.0496,-4.0523,-4.0539,-4.0569,-4.0571,-4.0586,-4.0593,-4.0609,-4.063,-4.0674,-4.0724,-4.0777,-4.0848,-4.0883,-4.0967,-4.1058,-4.1113,-4.1113,-4.1152,-4.1191,-4.0644,-3.998,-3.9004,-3.8045,-3.706,-3.6384,-3.6085,-3.5915,-3.5697,-3.564,-3.5609,-4.0275,-4.0293,-4.0383,-4.1252,-4.2448,-4.2282,-4.2374,-4.192,-3.9382,-3.8047,-3.7469,-3.5418,-3.4409,-3.3797,-3.3636,-3.3632,-3.3573,-3.3573,-3.3577,-3.3577,-3.3609,-3.3591,-3.3619,-3.3657,-3.368,-3.3707,-3.3734,-3.3793,-3.3807,-3.3807,-3.3807,-3.3807,-3.3807,-3.3807,-3.3807,-3.3807,-3.3807,-3.3807,-3.3807,-3.3807,-3.3807,-3.3807,-3.3807,-3.3807,-3.3807,-3.3807,-3.3807,-3.3807,-3.3807,-3.3807,-3.3807,-3.3807,-3.3807,-3.3807,-3.3807,-3.3807,-3.3807,-3.3807,-3.3807,-3.3807,-3.3857,-3.4522,-3.5002,-3.5937,-3.6712,-3.7357,-3.7911,-3.8603,-3.9289,-3.9241,-3.9212,-3.9144,-3.9075,-3.8953,-3.8944,-3.948,-4.0153,-4.0358,-4.0469,-4.0489,-4.0496,-4.0496,-4.0496,-4.0496,-4.0496,-4.0496,-4.0504,-4.0512,-4.0554,-4.0561,-4.0569,-4.0576,-4.0586,-4.0588,-4.0643,-4.0678,-4.0745,-4.0805,-4.0836,-4.0929,-4.0991,-4.1064,-4.1078,-4.1107,-4.1093,-4.0508,-3.9492,-3.8535,-3.7596,-3.7064,-3.6742,-3.6124,-3.5901,-3.5761,-3.5709,-3.6492,-3.5711,-3.7902,-3.9133,-3.9751,-4.1252,-4.1807,-4.1494,-4.0366,-3.912,-3.7328,-3.712,-3.5634,-3.4054,-3.3944,-3.3771,-3.36,-3.3477,-3.3466,-3.3481,-3.3524,-3.3538,-3.3549,-3.3587,-3.3643,-3.3684,-3.3726,-3.3753,-3.3793,-3.3807,-3.3807,-3.3807,-3.3807,-3.3807,-3.3807,-3.3807,-3.3807,-3.3807,-3.3807,-3.3807,-3.3807,-3.3807,-3.3807,-3.3807,-3.3807,-3.3807,-3.3807,-3.3807,-3.3807,-3.3807,-3.3807,-3.3807,-3.3807,-3.3807,-3.3807,-3.3807,-3.3807,-3.3807,-3.3807,-3.3807,-3.3807,-3.3807,-3.421,-3.4281,-3.5027,-3.5991,-3.6915,-3.7786,-3.879,-3.902,-3.8867,-3.8725,-3.8506,-3.8343,-3.845,-3.8965,-3.9599,-4.0049,-4.017,-4.05,-4.05,-4.0496,-4.0496,-4.0496,-4.0496,-4.0496,-4.0496,-4.0496,-4.0496,-4.0531,-4.0558,-4.0539,-4.0546,-4.0557,-4.0557,-4.0582,-4.0655,-4.0709,-4.0756,-4.0805,-4.0878,-4.0931,-4.0988,-4.0974,-4.093,-4.0566,-3.9941,-3.9043,-3.8262,-3.7949,-3.7575,-3.6776,-3.6122,-3.5977,-3.582,-3.5432,-3.4943,-3.7165,-3.8518,-3.9301,-4.0506,-4.1205,-4.1305,-4.0532,-3.8979,-3.7408,-3.7234,-3.6292,-3.4688,-3.4183,-3.384,-3.3473,-3.3437,-3.3408,-3.3422,-3.3542,-3.3452,-3.3495,-3.3575,-3.3577,-3.3633,-3.3671,-3.3726,-3.3766,-3.3793,-3.3807,-3.3807,-3.3807,-3.3807,-3.3807,-3.3807,-3.3807,-3.3807,-3.3807,-3.3807,-3.3807,-3.3807,-3.3807,-3.3807,-3.3807,-3.3807,-3.3807,-3.3807,-3.3807,-3.3807,-3.3807,-3.3807,-3.3807,-3.3807,-3.3807,-3.3807,-3.3807,-3.3807,-3.3807,-3.3807,-3.3807,-3.3825,-3.3844,-3.4104,-3.4681,-3.5655,-3.6311,-3.7061,-3.8165,-3.8923,-3.8633,-3.8343,-3.7973,-3.7622,-3.8021,-3.8427,-3.8985,-3.9555,-3.9987,-4.0383,-4.0492,-4.0489,-4.0496,-4.0496,-4.0496,-4.0496,-4.0496,-4.0496,-4.0496,-4.0496,-4.0523,-4.0523,-4.0523,-4.0512,-4.0504,-4.0512,-4.0559,-4.0603,-4.0636,-4.069,-4.0752,-4.0832,-4.0909,-4.0845,-4.0723,-4.0469,-4.0312,-3.9726,-3.9082,-3.8809,-3.8418,-3.7617,-3.6816,-3.6169,-3.6005,-3.6114,-3.6132,-3.7517,-3.8686,-4.0076,-4.02,-4.0621,-4.1103,-3.9812,-3.8493,-3.7511,-3.6741,-3.6105,-3.5204,-3.4571,-3.399,-3.3689,-3.3548,-3.3771,-3.3559,-3.3951,-3.3987,-3.3948,-3.3702,-3.3873,-3.3712,-3.3587,-3.3657,-3.3712,-3.3766,-3.3807,-3.3807,-3.3793,-3.378,-3.378,-3.378,-3.3793,-3.3807,-3.3807,-3.3807,-3.3807,-3.3807,-3.3807,-3.3807,-3.3807,-3.3807,-3.3807,-3.3807,-3.3807,-3.3807,-3.3807,-3.3807,-3.3807,-3.3807,-3.3807,-3.3807,-3.3807,-3.3807,-3.3807,-3.3807,-3.3935,-3.3935,-3.3917,-3.4449,-3.5147,-3.5409,-3.5943,-3.6948,-3.811,-3.8658,-3.8534,-3.8289,-3.794,-3.7741,-3.7913,-3.8113,-3.835,-3.8916,-3.945,-3.9908,-4.0383,-4.0399,-4.0496,-4.0496,-4.0496,-4.0496,-4.0496,-4.0496,-4.0496,-4.0496,-4.0496,-4.0496,-4.0496,-4.0496,-4.0496,-4.0504,-4.0496,-4.0527,-4.0557,-4.0581,-4.0648,-4.0736,-4.0831,-4.0738,-4.0676,-4.0866,-4.0742,-4.0234,-3.9902,-3.9805,-3.9297,-3.8496,-3.7695,-3.6992,-3.6259,-3.4938,-3.5027,-3.6239,-3.7166,-3.7879,-3.8942,-3.9368,-3.9361,-3.9747,-3.9316,-3.854,-3.7795,-3.6884,-3.5911,-3.5172,-3.4514,-3.3974,-3.3892,-3.4429,-3.4715,-3.4904,-3.4542,-3.5005,-3.4603,-3.4395,-3.3786,-3.3549,-3.3601,-3.3684,-3.3753,-3.3762,-3.3726,-3.3726,-3.3726,-3.3726,-3.3726,-3.3753,-3.3793,-3.3807,-3.3807,-3.3807,-3.3807,-3.3807,-3.3807,-3.3807,-3.3807,-3.3807,-3.3807,-3.3807,-3.3807,-3.3807,-3.3807,-3.3807,-3.3807,-3.3807,-3.3807,-3.3825,-3.3844,-3.3935,-3.4009,-3.4192,-3.4582,-3.4821,-3.5293,-3.555,-3.544,-3.591,-3.705,-3.7849,-3.8285,-3.8493,-3.8247,-3.8059,-3.7945,-3.7802,-3.7791,-3.7786,-3.835,-3.8928,-3.9488,-4.0081,-4.0321,-4.0438,-4.0489,-4.0496,-4.0496,-4.0496,-4.0496,-4.0496,-4.0496,-4.0496,-4.0496,-4.0496,-4.0496,-4.0496,-4.0496,-4.0496,-4.0496,-4.0519,-4.0549,-4.0559,-4.0636,-4.0724,-4.0688,-4.0668,-4.0828,-4.095,-4.0898,-4.0644,-4.0491,-4.0176,-3.9355,-3.8965,-3.8359,-3.7265,-3.4749,-3.4929,-3.6067,-3.6882,-3.7512,-3.8478,-3.9111,-3.9531,-3.9623,-3.9563,-3.9419,-3.8674,-3.7767,-3.6689,-3.5928,-3.5089,-3.4429,-3.4217,-3.4334,-3.4817,-3.5326,-3.47,-3.4821,-3.5064,-3.4205,-3.356,-3.3513,-3.3563,-3.3661,-3.3671,-3.3684,-3.3657,-3.3643,-3.3643,-3.3675,-3.3671,-3.3785,-3.3753,-3.3853,-3.3954,-3.3954,-3.3862,-3.3825,-3.3807,-3.3807,-3.3807,-3.3807,-3.3807,-3.3807,-3.3807,-3.3807,-3.3807,-3.3807,-3.3807,-3.3807,-3.3807,-3.3844,-3.3972,-3.4197,-3.4435,-3.4729,-3.5261,-3.5591,-3.5991,-3.6597,-3.6556,-3.6593,-3.7583,-3.8151,-3.8571,-3.8641,-3.8483,-3.8451,-3.8382,-3.7965,-3.7708,-3.7996,-3.847,-3.8969,-3.9429,-3.9898,-4.0147,-4.0295,-4.0463,-4.0479,-4.0489,-4.0489,-4.0481,-4.0481,-4.0496,-4.0496,-4.0496,-4.0496,-4.0496,-4.0496,-4.0496,-4.0496,-4.0496,-4.0496,-4.0512,-4.0523,-4.0574,-4.0603,-4.0604,-4.0623,-4.0717,-4.082,-4.0896,-4.095,-4.0755,-4.0541,-4.0215,-3.9906,-3.9522,-3.8588,-3.5156,-3.5342,-3.6237,-3.7111,-3.785,-3.8252,-3.9175,-4.0188,-3.9598,-3.9537,-3.9926,-3.9394,-3.8482,-3.7581,-3.6582,-3.5703,-3.514,-3.5027,-3.4762,-3.5173,-3.5208,-3.5773,-3.5454,-3.4537,-3.4186,-3.3755,-3.3499,-3.3524,-3.3591,-3.3619,-3.3633,-3.3591,-3.3591,-3.3573,-3.3642,-3.3907,-3.4205,-3.4398,-3.4531,-3.4555,-3.4312,-3.3959,-3.3862,-3.3807,-3.3807,-3.3807,-3.3807,-3.3807,-3.3807,-3.3807,-3.3844,-3.3972,-3.4082,-3.4156,-3.4321,-3.4357,-3.4523,-3.478,-3.5004,-3.5188,-3.5697,-3.6174,-3.6358,-3.6776,-3.7382,-3.7621,-3.7621,-3.7878,-3.8426,-3.8628,-3.8695,-3.8728,-3.8722,-3.8637,-3.8114,-3.77,-3.8109,-3.8481,-3.8858,-3.9269,-3.9592,-3.9875,-4.0101,-4.027,-4.036,-4.0389,-4.0449,-4.0438,-4.0446,-4.0481,-4.0496,-4.0496,-4.0496,-4.0496,-4.0496,-4.0496,-4.0496,-4.0496,-4.0496,-4.0496,-4.0504,-4.053,-4.0552,-4.0559,-4.0623,-4.066,-4.0735,-4.0786,-4.0831,-4.089,-4.0785,-4.0562,-4.0367,-4.001,-3.9691,-3.5513,-3.5501,-3.549,-3.6057,-3.7035,-3.743,-3.8237,-3.9295,-3.979,-3.9994,-4.0028,-3.996,-3.9383,-3.8608,-3.7233,-3.6488,-3.6452,-3.6101,-3.7102,-3.7985,-3.7163,-3.7792,-3.7648,-3.6091,-3.5168,-3.4532,-3.3992,-3.3637,-3.4022,-3.3862,-3.3621,-3.3644,-3.3659,-3.3728,-3.3891,-3.448,-3.553,-3.5666,-3.6178,-3.6515,-3.6321,-3.5597,-3.3977,-3.3807,-3.3807,-3.3807,-3.3807,-3.3807,-3.3807,-3.3807,-3.3972,-3.4321,-3.4582,-3.4802,-3.5037,-3.5275,-3.5422,-3.5661,-3.5917,-3.6028,-3.6486,-3.7144,-3.7345,-3.7566,-3.8028,-3.8303,-3.8322,-3.8322,-3.867,-3.867,-3.8704,-3.8704,-3.8698,-3.8556,-3.8199,-3.7904,-3.7973,-3.8132,-3.8351,-3.8763,-3.9145,-3.9425,-3.969,-3.9819,-3.988,-3.9964,-4.012,-4.0139,-4.0223,-4.0328,-4.0457,-4.0465,-4.0457,-4.0496,-4.0496,-4.0496,-4.0496,-4.0496,-4.0489,-4.0473,-4.0473,-4.0489,-4.0512,-4.0534,-4.0534,-4.0566,-4.0636,-4.0697,-4.0738,-4.0781,-4.0859,-4.0786,-4.0643,-4.051,-4.0217]},{"header":{"parameterUnit":"m.s-1","parameterCategory":1,"la1":31.0,"la2":29.5877,"lo1":-88.7671,"lo2":-86.6584,"dy":0.0162,"dx":0.0185,"nx":115,"ny":88,"refTime":"2024-07-23T12:00:00:Z","depth":0,"parameterNumber":3,"parameterNumberName":"V-component_of_WINDS"},"data":[0.0,0.0,0.0,0.0,0.0,0.0,0.0,0.0,0.0,0.0,0.0,0.0,0.0,0.0,0.0,0.0,0.0,0.0,0.0,0.0,0.0,0.0,0.0,0.0,0.0,0.0,0.0,0.0,0.0,0.0,0.0,0.0,0.0,0.0,0.0,0.0,0.0,0.0,0.0,0.0,0.0,0.0,0.0,0.0,0.0,0.0,0.0,0.0,0.0,0.0,0.0,0.0,0.0,0.0,0.0,0.0,0.0,0.0,0.0,0.0,0.0,0.0,0.0,0.0,0.0,0.0,0.0,0.0,0.0,0.0,0.0,0.0,0.0,0.0,0.0,0.0,0.0,0.0,0.0,0.0,0.0,0.0,0.0,0.0,0.0,0.0,0.0,0.0,0.0,0.0,0.0,0.0,0.0,0.0,0.0,0.0,0.0,0.0,0.0,0.0,0.0,0.0,0.0,0.0,0.0,0.0,0.0,0.0,0.0,0.0,0.0,0.0,0.0,0.0,0.0,0.0,0.0,0.0,0.0,0.0,0.0,0.0,0.0,0.0,0.0,0.0,0.0,0.0,0.0,0.0,0.0,0.0,0.0,0.0,0.0,0.0,0.0,0.0,0.0,0.0,0.0,0.0,0.0,0.0,0.0,0.0,0.0,0.0,0.0,0.0,0.0,0.0,0.0,0.0,0.0,0.0,0.0,0.0,0.0,0.0,0.0,0.0,0.0,0.0,0.0,0.0,0.0,0.0,0.0,0.0,0.0,0.0,0.0,0.0,0.0,0.0,0.0,0.0,0.0,0.0,0.0,0.0,0.0,0.0,0.0,0.0,0.0,0.0,0.0,0.0,0.0,0.0,0.0,0.0,0.0,0.0,0.0,0.0,0.0,0.0,0.0,0.0,0.0,0.0,0.0,0.0,0.0,0.0,0.0,0.0,0.0,0.0,0.0,0.0,0.0,0.0,0.0,0.0,0.0,0.0,0.0,0.0,0.0,0.0,0.0,0.0,0.0,0.0,0.0,0.0,0.0,0.0,0.0,0.0,0.0,0.0,0.0,0.0,0.0,0.0,0.0,0.0,0.0,0.0,0.0,0.0,0.0,0.0,0.0,0.0,0.0,0.0,0.0,0.0,0.0,0.0,0.0,0.0,0.0,0.0,0.0,0.0,0.0,0.0,0.0,0.0,0.0,0.0,0.0,0.0,0.0,0.0,0.0,0.0,0.0,0.0,0.0,0.0,0.0,0.0,0.0,0.0,0.0,0.0,0.0,0.0,0.0,0.0,0.0,0.0,0.0,0.0,0.0,0.0,0.0,0.0,0.0,0.0,0.0,0.0,0.0,0.0,0.0,0.0,0.0,0.0,0.0,0.0,0.0,0.0,0.0,0.0,0.0,0.0,0.0,0.0,0.0,0.0,0.0,0.0,0.0,0.0,0.0,0.0,0.0,0.0,0.0,0.0,0.0,0.0,0.0,0.0,0.0,0.0,0.0,0.0,0.0,0.0,0.0,0.0,0.0,0.0,0.0,0.0,0.0,0.0,0.0,0.0,0.0,0.0,0.0,0.0,0.0,0.0,0.0,0.0,0.0,0.0,0.0,0.0,0.0,0.0,0.0,0.0,0.0,0.0,0.0,0.0,0.0,0.0,0.0,0.0,0.0,0.0,0.0,0.0,0.0,0.0,0.0,0.0,0.0,0.0,0.0,0.0,0.0,0.0,0.0,0.0,0.0,0.0,0.0,0.0,0.0,0.0,0.0,0.0,0.0,0.0,0.0,0.0,0.0,0.0,0.0,0.0,0.0,0.0,0.0,0.0,0.0,0.0,0.0,0.0,0.0,0.0,0.0,0.0,0.0,0.0,0.0,0.0,0.0,0.0,0.0,0.0,0.0,0.0,0.0,0.0,0.0,0.0,0.0,0.0,0.0,0.0,0.0,0.0,0.0,0.0,0.0,0.0,0.0,0.0,0.0,0.0,0.0,0.0,0.0,0.0,0.0,0.0,0.0,0.0,0.0,0.0,0.0,0.0,0.0,0.0,0.0,0.0,0.0,0.0,0.0,0.0,0.0,0.0,0.0,0.0,0.0,0.0,0.0,0.0,0.0,0.0,0.0,0.0,0.0,0.0,0.0,0.0,0.0,0.0,0.0,0.0,0.0,0.0,0.0,0.0,0.0,0.0,0.0,0.0,0.0,0.0,0.0,0.0,0.0,0.0,0.0,0.0,0.0,0.0,0.0,0.0,0.0,0.0,0.0,0.0,0.0,0.0,0.0,0.0,0.0,0.0,0.0,0.0,0.0,0.0,0.0,0.0,0.0,0.0,0.0,0.0,0.0,0.0,0.0,0.0,0.0,0.0,0.0,0.0,0.0,0.0,0.0,0.0,0.0,0.0,0.0,0.0,0.0,0.0,0.0,0.0,0.0,0.0,0.0,0.0,0.0,0.0,0.0,0.0,0.0,0.0,0.0,0.0,0.0,0.0,0.0,0.0,0.0,0.0,0.0,0.0,0.0,0.0,0.0,0.0,0.0,0.0,0.0,0.0,0.0,0.0,0.0,0.0,0.0,0.0,0.0,0.0,0.0,0.0,0.0,0.0,0.0,0.0,0.0,0.0,0.0,0.0,0.0,0.0,0.0,0.0,0.0,0.0,0.0,0.0,0.0,0.0,0.0,0.0,0.0,0.0,0.0,0.0,0.0,0.0,0.0,0.0,0.0,0.0,0.0,0.0,0.0,0.0,0.0,0.0,0.0,0.0,0.0,0.0,0.0,0.0,0.0,0.0,0.0,0.0,0.0,0.0,0.0,0.0,0.0,0.0,0.0,0.0,0.0,0.0,0.0,0.0,0.0,0.0,0.0,0.0,0.0,0.0,0.0,0.0,0.0,0.0,0.0,0.0,0.0,0.0,0.0,0.0,0.0,0.0,0.0,0.0,0.0,0.0,0.0,0.0,0.0,0.0,0.0,0.0,0.0,0.0,0.0,0.0,0.0,0.0,0.0,0.0,0.0,0.0,0.0,0.0,0.0,0.0,0.0,0.0,0.0,0.0,0.0,0.0,0.0,0.0,0.0,0.0,0.0,0.0,0.0,0.0,0.0,0.0,0.0,0.0,0.0,0.0,0.0,0.0,0.0,0.0,0.0,0.0,0.0,0.0,0.0,0.0,0.0,0.0,0.0,0.0,0.0,0.0,0.0,0.0,0.0,0.0,0.0,0.0,0.0,0.0,0.0,0.0,0.0,0.0,0.0,0.0,0.0,0.0,0.0,0.0,0.0,0.0,0.0,0.0,0.0,0.0,0.0,0.0,0.0,0.0,0.0,0.0,0.0,0.0,0.0,0.0,0.0,0.0,0.0,0.0,0.0,0.0,0.0,0.0,0.0,0.0,0.0,0.0,0.0,0.0,0.0,0.0,0.0,0.0,0.0,0.0,0.0,0.0,0.0,0.0,0.0,0.0,0.0,0.0,0.0,0.0,0.0,0.0,0.0,0.0,0.0,0.0,0.0,0.0,0.0,0.0,0.0,0.0,0.0,0.0,0.0,0.0,0.0,0.0,0.0,0.0,0.0,0.0,0.0,0.0,0.0,0.0,0.0,0.0,0.0,0.0,0.0,0.0,0.0,0.0,0.0,0.0,0.0,0.0,0.0,0.0,0.0,0.0,0.0,0.0,0.0,0.0,0.0,0.0,0.0,0.0,0.0,0.0,0.0,0.0,0.0,0.0,0.0,0.0,0.0,0.0,0.0,0.0,0.0,0.0,0.0,0.0,0.0,0.0,0.0,0.0,0.0,0.0,0.0,0.0,0.0,0.0,0.0,0.0,0.0,0.0,0.0,0.0,0.0,0.0,0.0,0.0,0.0,0.0,0.0,0.0,0.0,0.0,0.0,0.0,0.0,0.0,0.0,0.0,0.0,0.0,0.0,0.0,0.0,0.0,0.0,0.0,0.0,0.0,0.0,0.0,0.0,0.0,0.0,0.0,0.0,0.0,0.0,0.0,0.0,0.0,0.0,0.0,0.0,0.0,0.0,0.0,0.0,0.0,0.0,0.0,0.0,0.0,0.0,0.0,0.0,0.0,0.0,0.0,0.0,0.0,0.0,0.0,0.0,0.0,0.0,0.0,0.0,0.0,0.0,0.0,0.0,0.0,0.0,0.0,0.0,0.0,0.0,0.0,0.0,0.0,0.0,0.0,0.0,0.0,0.0,0.0,0.0,0.0,0.0,0.0,0.0,0.0,0.0,0.0,0.0,0.0,0.0,0.0,0.0,0.0,0.0,0.0,0.0,0.0,0.0,0.0,0.0,0.0,0.0,0.0,0.0,0.0,0.0,0.0,0.0,0.0,0.0,0.0,0.0,0.0,0.0,0.0,0.0,0.0,0.0,0.0,0.0,0.0,0.0,0.0,0.0,0.0,0.0,0.0,0.0,0.0,0.0,0.0,0.0,0.0,0.0,0.0,0.0,0.0,0.0,0.0,0.0,0.0,0.0,0.0,0.0,0.0,0.0,0.0,0.0,0.0,0.0,0.0,0.0,0.0,0.0,0.0,0.0,0.0,0.0,0.0,0.0,0.0,0.0,0.0,0.0,0.0,0.0,0.0,0.0,0.0,0.0,0.0,0.0,0.0,0.0,0.0,0.0,0.0,0.0,0.0,0.0,0.0,0.0,0.0,0.0,0.0,0.0,0.0,0.0,0.0,0.0,0.0,0.0,0.0,0.0,0.0,0.0,0.0,0.0,0.0,0.0,0.0,0.0,0.0,0.0,0.0,0.0,0.0,0.0,0.0,0.0,0.0,0.0,0.0,0.0,0.0,0.0,0.0,0.0,0.0,0.0,0.0,0.0,0.0,0.0,0.0,0.0,0.0,0.0,0.0,0.0,0.0,0.0,0.0,0.0,0.0,0.0,0.0,0.0,0.0,0.0,0.0,0.0,0.0,0.0,0.0,0.0,0.0,0.0,0.0,0.0,0.0,0.0,0.0,0.0,0.0,0.0,0.0,0.0,0.0,0.0,0.0,0.0,0.0,0.0,0.0,0.0,0.0,0.0,0.0,0.0,0.0,0.0,0.0,0.0,0.0,0.0,0.0,0.0,0.0,0.0,0.0,0.0,0.0,0.0,0.0,0.0,0.0,0.0,0.0,0.0,0.0,0.0,0.0,0.0,0.0,0.0,0.0,0.0,0.0,0.0,0.0,0.0,0.0,0.0,0.0,0.0,0.0,0.0,0.0,0.0,0.0,0.0,0.0,0.0,0.0,0.0,0.0,0.0,0.0,0.0,0.0,0.0,0.0,0.0,0.0,0.0,0.0,0.0,0.0,0.0,0.0,0.0,0.0,0.0,0.0,0.0,0.0,0.0,0.0,0.0,0.0,0.0,0.0,0.0,0.0,0.0,0.0,0.0,0.0,0.0,0.0,0.0,0.0,0.0,0.0,0.0,0.0,0.0,0.0,0.0,0.0,0.0,0.0,0.0,0.0,0.0,0.0,0.0,0.0,0.0,0.0,0.0,0.0,0.0,0.0,0.0,0.0,0.0,0.0,0.0,0.0,0.0,0.0,0.0,0.0,0.0,0.0,0.0,0.0,0.0,0.0,0.0,0.0,0.0,0.0,0.0,0.0,0.0,0.0,0.0,0.0,0.0,0.0,0.0,0.0,0.0,0.0,0.0,0.0,0.0,0.0,0.0,0.0,0.0,0.0,0.0,0.0,0.0,0.0,0.0,0.0,0.0,0.0,0.0,0.0,0.0,0.0,0.0,0.0,0.0,0.0,0.0,0.0,0.0,0.0,0.0,0.0,0.0,0.0,0.0,0.0,0.0,0.0,0.0,0.0,0.0,0.0,0.0,0.0,0.0,0.0,0.0,0.0,0.0,0.0,0.0,0.0,0.0,0.0,0.0,0.0,0.0,0.0,0.0,0.0,0.0,0.0,0.0,0.0,0.0,0.0,0.0,0.0,0.0,0.0,0.0,0.0,0.0,0.0,0.0,0.0,0.0,0.0,0.0,0.0,0.0,0.0,0.0,0.0,0.0,0.0,0.0,0.0,0.0,0.0,0.0,0.0,0.0,0.0,0.0,0.0,0.0,0.0,0.0,0.0,0.0,0.0,0.0,0.0,0.0,0.0,0.0,0.0,0.0,0.0,0.0,0.0,0.0,0.0,0.0,0.0,0.0,0.0,0.0,0.0,0.0,0.0,0.0,0.0,0.0,0.0,0.0,0.0,0.0,0.0,0.0,0.0,0.0,0.0,0.0,0.0,0.0,0.0,0.0,0.0,0.0,0.0,0.0,0.0,0.0,0.0,0.0,0.0,0.0,0.0,0.0,0.0,0.0,0.0,0.0,0.0,0.0,0.0,0.0,0.0,0.0,0.0,0.0,0.0,0.0,0.0,0.0,0.0,0.0,0.0,0.0,0.0,0.0,0.0,0.0,0.0,0.0,0.0,0.0,0.0,0.0,0.0,0.0,0.0,0.0,0.0,0.0,0.0,0.0,0.0,0.0,0.0,0.0,0.0,0.0,0.0,0.0,0.0,0.0,0.0,0.0,0.0,0.0,0.0,0.0,0.0,0.0,0.0,0.0,0.0,0.0,0.0,0.0,0.0,0.0,0.0,0.0,0.0,0.0,0.0,0.0,0.0,0.0,0.0,0.0,0.0,0.0,0.0,0.0,0.0,0.0,0.0,0.0,0.0,0.0,0.0,0.0,0.0,0.0,0.0,0.0,0.0,0.0,0.0,0.0,0.0,0.0,0.0,0.0,0.0,0.0,0.0,0.0,0.0,0.0,0.0,0.0,0.0,0.0,0.0,0.0,0.0,0.0,0.0,0.0,0.0,0.0,0.0,0.0,0.0,0.0,0.0,0.0,0.0,0.0,0.0,0.0,0.0,0.0,0.0,0.0,0.0,0.0,0.0,0.0,0.0,0.0,0.0,0.0,0.0,0.0,0.0,0.0,0.0,0.0,0.0,0.0,0.0,0.0,0.0,0.0,0.0,0.0,0.0,0.0,0.0,0.0,0.0,0.0,0.0,0.0,0.0,0.0,0.0,0.0,0.0,0.0,0.0,0.0,0.0,0.0,0.0,0.0,0.0,0.0,0.0,0.0,0.0,0.0,0.0,0.0,0.0,0.0,0.0,0.0,0.0,0.0,0.0,0.0,0.0,0.0,0.0,0.0,0.0,0.0,0.0,0.0,0.0,0.0,0.0,0.0,0.0,0.0,0.0,0.0,0.0,0.0,0.0,0.0,0.0,0.0,0.0,0.0,0.0,0.0,0.0,0.0,0.0,0.0,0.0,0.0,0.0,0.0,0.0,0.0,0.0,0.0,0.0,0.0,0.0,0.0,0.0,0.0,0.0,0.0,0.0,0.0,0.0,0.0,0.0,0.0,0.0,0.0,0.0,0.0,0.0,0.0,0.0,0.0,0.0,0.0,0.0,0.0,0.0,0.0,0.0,0.0,0.0,0.0,0.0,0.0,0.0,0.0,0.0,0.0,0.0,0.0,0.0,0.0,0.0,0.0,0.0,0.0,0.0,0.0,0.0,0.0,0.0,0.0,0.0,0.0,0.0,0.0,0.0,0.0,0.0,0.0,0.0,0.0,0.0,0.0,0.0,0.0,0.0,0.0,0.0,0.0,0.0,0.0,0.0,0.0,0.0,0.0,0.0,0.0,0.0,0.0,0.0,0.0,0.0,0.0,0.0,0.0,0.0,0.0,0.0,0.0,0.0,0.0,0.0,0.0,0.0,0.0,0.0,0.0,0.0,0.0,0.0,0.0,0.0,0.0,0.0,0.0,0.0,0.0,0.0,0.0,0.0,0.0,0.0,0.0,0.0,0.0,0.0,0.0,0.0,0.0,0.0,0.0,0.0,0.0,0.0,0.0,0.0,0.0,0.0,0.0,0.0,0.0,0.0,0.0,0.0,0.0,0.0,0.0,0.0,0.0,0.0,0.0,0.0,0.0,0.0,0.0,0.0,0.0,0.0,0.0,0.0,0.0,0.0,0.0,0.0,0.0,0.0,0.0,0.0,0.0,0.0,0.0,0.0,0.0,0.0,0.0,0.0,0.0,0.0,0.0,0.0,0.0,0.0,0.0,0.0,0.0,0.0,0.0,0.0,0.0,0.0,0.0,0.0,0.0,0.0,0.0,0.0,0.0,0.0,0.0,0.0,0.0,0.0,0.0,0.0,0.0,0.0,0.0,0.0,0.0,0.0,0.0,0.0,0.0,0.0,0.0,0.0,0.0,0.0,0.0,0.0,0.0,0.0,0.0,0.0,0.0,0.0,0.0,0.0,0.0,0.0,0.0,0.0,0.0,0.0,0.0,0.0,0.0,0.0,0.0,0.0,0.0,0.0,0.0,0.0,0.0,0.0,0.0,0.0,0.0,0.0,0.0,0.0,0.0,0.0,0.0,0.0,0.0,0.0,0.0,0.0,0.0,0.0,0.0,0.0,0.0,0.0,0.0,0.0,0.0,0.0,0.0,0.0,0.0,0.0,0.0,0.0,0.0,0.0,0.0,0.0,0.0,0.0,0.0,0.0,0.0,0.0,0.0,0.0,0.0,0.0,0.0,0.0,0.0,0.0,0.0,0.0,0.0,0.0,0.0,0.0,0.0,0.0,0.0,0.0,0.0,0.0,0.0,0.0,0.0,0.0,0.0,0.0,0.0,0.0,0.0,0.0,0.0,0.0,0.0,0.0,0.0,0.0,0.0,0.0,0.0,0.0,0.0,0.0,0.0,0.0,0.0,0.0,0.0,0.0,0.0,0.0,0.0,0.0,0.0,0.0,0.0,0.0,0.0,0.0,0.0,0.0,0.0,0.0,0.0,0.0,0.0,0.0,0.0,0.0,0.0,0.0,0.0,0.0,0.0,0.0,0.0,0.0,0.0,0.0,0.0,0.0,0.0,0.0,0.0,0.0,0.0,0.0,0.0,0.0,0.0,0.0,0.0,0.0,0.0,0.0,0.0,0.0,0.0,0.0,0.0,0.0,0.0,0.0,0.0,0.0,0.0,0.0,0.0,0.0,0.0,0.0,0.0,0.0,0.0,0.0,0.0,0.0,0.0,0.0,0.0,0.0,0.0,0.0,0.0,0.0,0.0,0.0,0.0,0.0,0.0,0.0,0.0,0.0,0.0,0.0,0.0,0.0,0.0,0.0,0.0,0.0,0.0,0.0,0.0,0.0,0.0,0.0,0.0,0.0,0.0,0.0,0.0,0.0,0.0,0.0,0.0,0.0,0.0,0.0,0.0,0.0,0.0,0.0,0.0,0.0,0.0,0.0,0.0,0.0,0.0,0.0,0.0,0.0,0.0,0.0,0.0,0.0,0.0,0.0,0.0,0.0,0.0,0.0,0.0,0.0,0.0,0.0,0.0,-0.0029,0.0,0.0,0.0,0.0,0.0,0.0,0.0,0.0,0.0,0.0,0.0,0.0,0.0,0.0,0.0,0.0,0.0,0.0,0.0,0.0,0.0,0.0,0.0,0.0,0.0,0.0,0.0,0.0,0.0,0.0,0.0,0.0,0.0,0.0,0.0,0.0,0.0,0.0,0.0,0.0,0.0,0.0,0.0,0.0,0.0,0.0,0.0,0.0,0.0,0.0,0.0,0.0,0.0,0.0,0.0,0.0,0.0,0.0,0.0,0.0,0.0,0.0,0.0,0.0,0.0,0.0,0.0,0.0,0.0,0.0,0.0,0.0,0.0,0.0,0.0,0.0,0.0,0.0,0.0,0.0,0.0,0.0,0.0,0.0,0.0,0.0,0.0,0.0,0.0,0.0,0.0,0.0,0.0,0.0,0.0,0.0,0.0,0.0,0.0,0.0,0.0,0.0,0.0,0.0,0.0,0.0,0.0,0.0,0.0,0.0,0.0,0.0,0.0,0.0,-0.0032,-0.0089,0.0,0.0,0.0,0.0,0.0,0.0,0.0,0.0,0.0,0.0,0.0,0.0,0.0,0.0,0.0,0.0,0.0,0.0,0.0,0.0,0.0,0.0,0.0,0.0,0.0,0.0,0.0,0.0,0.0,0.0,0.0,0.0,0.0,0.0,0.0,0.0,0.0,0.0,0.0,0.0,0.0,0.0,0.0,0.0,0.0,0.0,0.0,0.0,0.0,0.0,0.0,0.0,0.0,0.0,0.0,0.0,0.0,0.0,0.0,0.0,0.0,0.0,0.0,0.0,0.0,0.0,0.0,0.0,0.0,0.0,0.0,0.0,0.0,0.0,0.0,0.0,0.0,0.0,0.0,0.0,0.0,0.0,0.0,0.0,0.0,0.0,0.0,0.0,0.0,0.0,0.0,0.0,0.0,0.0,0.0,0.0,0.0,0.0,0.0,0.0,0.0,0.0,0.0,0.0,0.0,0.0,0.0,0.0,0.0,0.0,0.0,0.0,0.0,-0.0038,0.0,0.0,0.0,0.0,0.0,0.0,0.0,0.0,0.0,0.0,0.0,0.0,0.0,0.0,0.0,0.0,0.0,0.0,0.0,0.0,0.0,0.0,0.0,0.0,0.0,0.0,0.0,0.0,0.0,0.0,0.0,0.0,0.0,0.0,0.0,0.0,0.0,0.0,0.0,0.0,0.0,0.0,0.0,0.0,0.0,0.0,0.0,0.0,0.0,0.0,0.0,0.0,0.0,0.0,0.0,0.0,0.0,0.0,0.0,0.0,0.0,0.0,0.0,0.0,0.0,0.0,0.0,0.0,0.0,0.0,0.0,0.0,0.0,0.0,0.0,0.0,0.0,0.0,0.0,0.0,0.0,0.0,0.0,0.0,0.0,0.0,0.0,0.0,0.0,0.0,0.0,0.0,0.0,0.0,0.0,0.0,0.0,0.0,0.0,0.0,0.0,0.0,0.0,0.0,0.0,0.0,0.0,0.0,0.0,0.0,0.0,0.0,0.0,0.0,-0.0062,0.0,0.0,0.0,0.0,0.0,0.0,0.0,0.0,0.0,0.0,0.0,0.0,0.0,0.0,0.0,0.0,0.0,0.0,0.0,0.0,0.0,0.0,0.0,0.0,0.0,0.0,0.0,0.0,0.0,0.0,0.0,0.0,0.0,0.0,0.0,0.0,0.0,0.0,0.0,0.0,0.0,0.0,0.0,0.0,0.0,0.0,0.0,0.0,0.0,0.0,0.0,0.0,0.0,0.0,0.0,0.0,0.0,0.0,0.0,0.0,0.0,0.0,0.0,0.0,0.0,0.0,0.0,0.0,0.0,0.0,0.0,0.0,0.0,0.0,0.0,0.0,0.0,0.0,0.0,0.0,0.0,0.0,0.0,0.0,0.0,0.0,0.0,0.0,0.0,0.0,0.0,0.0,0.0,0.0,0.0,0.0,0.0,0.0,0.0,0.0,0.0,0.0,0.0,0.0,0.0,0.0,0.0,0.0,0.0,0.0,0.0,0.0,0.0,0.0,-0.0069,0.0,0.0,0.0,0.0,0.0,0.0,0.0,0.0,0.0,0.0,0.0,0.0,0.0,0.0,0.0,0.0,0.0,0.0,0.0,0.0,0.0,0.0,0.0,0.0,0.0,0.0,0.0,0.0,0.0,0.0,0.0,0.0,0.0,0.0,0.0,0.0,0.0,0.0,0.0,0.0,0.0,0.0,0.0,0.0,0.0,0.0,0.0,0.0,0.0,0.0,0.0,0.0,0.0,0.0,0.0,0.0,0.0,0.0,0.0,0.0,0.0,0.0,0.0,0.0,0.0,0.0,0.0,0.0,0.0,0.0,0.0,0.0,0.0,0.0,0.0,0.0,0.0,0.0,0.0,0.0,0.0,0.0,0.0,0.0,0.0,0.0,0.0,0.0,0.0,0.0,0.0,0.0,0.0,0.0,0.0,0.0,0.0,0.0,0.0,0.0,0.0,0.0,0.0,0.0,0.0,0.0,0.0,0.0,0.0,0.0,0.0,0.0,0.0,0.0,-0.0078,0.0,0.0,0.0,0.0,0.0,0.0,0.0,0.0,0.0,0.0,0.0,0.0,0.0,0.0,0.0,0.0,0.0,0.0,0.0,0.0,0.0,0.0,0.0,0.0,0.0,0.0,0.0,0.0,0.0,0.0,0.0,0.0,0.0,0.0,0.0,0.0,0.0,0.0,0.0,0.0,0.0,0.0,0.0,0.0,0.0,0.0,0.0,0.0,0.0,0.0,0.0,0.0,0.0,0.0,0.0,0.0,0.0,0.0,0.0,0.0,0.0,0.0,0.0,0.0,0.0,0.0,0.0,0.0,0.0,0.0,0.0,0.0,0.0,0.0,0.0,0.0,0.0,0.0,0.0,0.0,0.0,0.0,0.0,0.0,0.0,0.0,0.0,0.0,0.0,0.0,0.0,0.0,0.0,0.0,0.0,0.0,0.0,0.0,0.0,0.0,0.0,0.0,0.0,0.0,0.0,0.0,0.0,0.0,0.0,0.0,0.0,0.0,0.0,0.0,-0.0082,0.0,0.0,0.0,0.0,0.0,0.0,0.0,0.0,0.0,0.0,0.0,0.0,0.0,0.0,0.0,0.0,0.0,0.0,0.0,0.0,0.0,0.0,0.0,0.0,0.0,0.0,0.0,0.0,0.0,0.0,0.0,0.0,0.0,0.0,0.0,0.0,0.0,0.0,0.0,0.0,0.0,0.0,0.0,0.0,0.0,0.0,0.0,0.0,-0.6045,0.0,0.0,0.0,0.0,0.0,0.0,0.0,0.0,0.0,0.0,0.0,0.0,0.0,0.0,0.0,0.0,0.0,0.0,0.0,0.0,0.0,0.0,0.0,0.0,0.0,0.0,0.0,0.0,0.0,0.0,0.0,0.0,0.0,0.0,0.0,0.0,0.0,0.0,0.0,0.0,0.0,0.0,0.0,0.0,0.0,0.0,0.0,0.0,0.0,0.0,0.0,0.0,0.0,0.0,0.0,0.0,0.0,0.0,0.0,0.0,0.0,0.0,0.0,0.0,0.0,-0.0087,0.0,0.0,0.0,0.0,0.0,0.0,0.0,0.0,0.0,0.0,0.0,0.0,0.0,0.0,0.0,0.0,0.0,0.0,0.0,0.0,0.0,0.0,0.0,0.0,0.0,0.0,0.0,0.0,0.0,0.0,0.0,0.0,0.0,0.0,0.0,0.0,0.0,0.0,0.0,0.0,0.0,0.0,0.0,0.0,0.0,0.0,0.0,0.0,0.0,0.0,0.0,0.0,0.0,0.0,0.0,0.0,0.0,0.0,0.0,0.0,0.0,0.0,0.0,0.0,0.0,0.0,0.0,0.0,0.0,0.0,0.0,0.0,0.0,0.0,0.0,0.0,0.0,0.0,0.0,0.0,0.0,0.0,0.0,0.0,0.0,0.0,0.0,0.0,0.0,0.0,0.0,0.0,0.0,0.0,0.0,0.0,0.0,0.0,0.0,0.0,0.0,0.0,0.0,0.0,0.0,0.0,0.0,0.0,0.0,0.0,0.0,0.0,0.0,0.0,-0.0091,-0.0294,0.0,0.0,0.0,0.0,0.0,0.0,0.0,0.0,0.0,0.0,0.0,0.0,0.0,0.0,0.0,0.0,0.0,0.0,0.0,0.0,0.0,0.0,0.0,0.0,0.0,0.0,0.0,0.0,0.0,0.0,0.0,0.0,0.0,0.0,0.0,0.0,0.0,0.0,-0.5131,-0.5504,0.0,0.0,0.0,0.0,0.0,0.0,0.0,0.0,-0.7603,0.0,0.0,0.0,0.0,0.0,0.0,0.0,0.0,0.0,0.0,0.0,0.0,0.0,0.0,0.0,0.0,0.0,0.0,0.0,0.0,0.0,0.0,0.0,0.0,0.0,0.0,0.0,0.0,0.0,0.0,0.0,0.0,0.0,0.0,0.0,0.0,0.0,0.0,0.0,0.0,0.0,0.0,0.0,0.0,0.0,0.0,0.0,0.0,0.0,0.0,0.0,0.0,0.0,0.0,0.0,0.0,0.0,0.0,0.0,0.0,0.0,0.0,0.0,0.0,-0.0092,-0.0293,0.0,0.0,0.0,0.0,0.0,0.0,0.0,0.0,0.0,0.0,0.0,0.0,0.0,0.0,0.0,0.0,0.0,0.0,0.0,0.0,0.0,0.0,0.0,0.0,0.0,0.0,0.0,0.0,0.0,0.0,0.0,0.0,0.0,0.0,0.0,0.0,0.0,0.0,0.0,-0.7115,-0.7705,0.0,0.0,0.0,0.0,0.0,0.0,0.0,0.0,-0.8147,0.0,0.0,0.0,0.0,0.0,0.0,0.0,0.0,0.0,0.0,0.0,0.0,0.0,0.0,0.0,0.0,0.0,0.0,0.0,0.0,0.0,0.0,0.0,0.0,0.0,0.0,0.0,0.0,0.0,0.0,0.0,0.0,0.0,0.0,0.0,0.0,0.0,0.0,0.0,0.0,0.0,0.0,0.0,0.0,0.0,0.0,0.0,0.0,0.0,0.0,0.0,0.0,0.0,0.0,0.0,0.0,0.0,0.0,0.0,0.0,0.0,0.0,0.0,-0.0058,0.0,0.0,0.0,0.0,0.0,0.0,0.0,0.0,0.0,0.0,0.0,0.0,0.0,0.0,0.0,0.0,0.0,0.0,0.0,0.0,0.0,0.0,0.0,0.0,0.0,0.0,0.0,0.0,0.0,0.0,0.0,0.0,0.0,0.0,0.0,0.0,0.0,0.0,0.0,0.0,-0.7765,-0.8424,-0.9659,0.0,0.0,0.0,0.0,0.0,0.0,-0.8746,-0.856,0.0,0.0,0.0,0.0,0.0,0.0,0.0,0.0,0.0,0.0,0.0,0.0,0.0,0.0,0.0,0.0,0.0,0.0,0.0,0.0,0.0,0.0,0.0,0.0,0.0,0.0,0.0,0.0,0.0,0.0,0.0,0.0,0.0,0.0,0.0,0.0,0.0,0.0,0.0,0.0,0.0,0.0,0.0,0.0,0.0,0.0,0.0,0.0,0.0,0.0,0.0,0.0,0.0,0.0,0.0,0.0,0.0,0.0,0.0,0.0,0.0,0.0,0.0,-0.0055,0.0,0.0,0.0,0.0,0.0,0.0,0.0,0.0,0.0,0.0,0.0,0.0,0.0,0.0,0.0,0.0,0.0,0.0,0.0,0.0,0.0,0.0,0.0,0.0,0.0,0.0,0.0,0.0,0.0,0.0,0.0,0.0,0.0,0.0,0.0,0.0,0.0,0.0,0.0,0.0,0.0,-0.9099,-1.0378,-0.963,0.0,0.0,0.0,0.0,-0.973,-0.9481,0.0,0.0,0.0,0.0,0.0,0.0,0.0,0.0,0.0,0.0,0.0,0.0,0.0,0.0,0.0,0.0,0.0,0.0,0.0,0.0,0.0,0.0,0.0,0.0,0.0,0.0,0.0,0.0,0.0,0.0,0.0,0.0,0.0,0.0,0.0,0.0,0.0,0.0,0.0,0.0,0.0,0.0,0.0,0.0,0.0,0.0,0.0,0.0,0.0,0.0,0.0,0.0,0.0,0.0,0.0,0.0,0.0,0.0,0.0,0.0,0.0,0.0,0.0,0.0,-0.0054,0.0,0.0,0.0,0.0,0.0,0.0,0.0,0.0,0.0,0.0,0.0,0.0,0.0,0.0,0.0,0.0,0.0,0.0,0.0,0.0,0.0,0.0,0.0,0.0,0.0,0.0,0.0,0.0,0.0,0.0,0.0,0.0,0.0,0.0,0.0,0.0,0.0,0.0,0.0,0.0,0.0,-1.025,-1.0762,-1.0229,-0.987,0.0,0.0,-0.9843,-1.0344,-1.0618,0.0,0.0,0.0,0.0,0.0,0.0,0.0,0.0,0.0,0.0,0.0,0.0,0.0,0.0,0.0,0.0,0.0,0.0,0.0,0.0,0.0,0.0,0.0,0.0,0.0,0.0,0.0,0.0,0.0,0.0,0.0,0.0,0.0,0.0,0.0,0.0,0.0,0.0,0.0,0.0,0.0,0.0,0.0,0.0,0.0,0.0,0.0,0.0,0.0,0.0,0.0,0.0,0.0,0.0,0.0,0.0,0.0,0.0,0.0,0.0,0.0,0.0,0.0,0.0,-0.0051,0.0,0.0,0.0,0.0,0.0,0.0,0.0,0.0,0.0,0.0,0.0,0.0,0.0,0.0,0.0,0.0,0.0,0.0,0.0,0.0,0.0,0.0,0.0,0.0,0.0,0.0,0.0,0.0,0.0,0.0,0.0,0.0,0.0,0.0,0.0,0.0,0.0,0.0,0.0,0.0,0.0,0.0,-1.1306,-1.0965,0.0,0.0,0.0,-1.0629,-1.0704,0.0,0.0,0.0,0.0,0.0,0.0,0.0,0.0,0.0,0.0,0.0,0.0,0.0,0.0,0.0,0.0,0.0,0.0,0.0,0.0,0.0,0.0,0.0,0.0,0.0,0.0,0.0,0.0,0.0,0.0,0.0,0.0,0.0,0.0,0.0,0.0,0.0,0.0,0.0,0.0,0.0,0.0,0.0,0.0,0.0,0.0,0.0,0.0,0.0,0.0,0.0,0.0,0.0,0.0,0.0,0.0,0.0,0.0,0.0143,0.0164,0.0,0.0,0.0,0.0,0.0,0.0,0.0,0.0,0.0,0.0,0.0,0.0,0.0,0.0,0.0,0.0,0.0,0.0,0.0,0.0,0.0,0.0,0.0,0.0,0.0,0.0,0.0,0.0,0.0,0.0,0.0,0.0,-0.2131,0.0,0.0,0.0,0.0,0.0,0.0,0.0,0.0,0.0,0.0,0.0,0.0,0.0,0.0,-1.1107,-1.1787,-1.1753,-1.1846,0.0,0.0,-1.1412,-1.1393,-1.2148,-1.2057,0.0,0.0,0.0,0.0,0.0,0.0,0.0,0.0,0.0,0.0,0.0,0.0,0.0,0.0,0.0,0.0,0.0,0.0,0.0,0.0,0.0,0.0,0.0,0.0,0.0,0.0,0.0,0.0,0.0,0.0,0.0,0.0,0.0,0.0,0.0,0.0,0.0,0.0,0.0,0.0,0.0,0.0,0.0,0.0,0.0,0.0,0.0,0.0,0.0,0.0,0.0,0.0,0.0,0.0,0.0,0.0045,0.056,0.0541,0.0,0.0,0.0,0.0,0.0,-0.0026,0.0,0.0,0.0,0.0,0.0,0.0,0.0,0.0,0.0,0.0,0.0,0.0,0.0,0.0,0.0,0.0,0.0,0.0,0.0,0.0,0.0,0.0,0.0,0.0,0.0,0.0,0.0,0.0,0.0,0.0,0.0,0.0,0.0,0.0,0.0,0.0,0.0,0.0,0.0,0.0,0.0,-1.174,-1.2042,-1.2534,-1.3212,0.0,0.0,-1.2342,-1.2714,-1.3438,-1.3057,-1.0339,0.0,0.0,0.0,0.0,0.0,0.0,0.0,0.0,0.0,0.0,0.0,0.0,0.0,0.0,0.0,0.0,0.0,0.0,0.0,0.0,0.0,0.0,0.0,0.0,0.0,0.0,0.0,0.0,0.0,0.0,0.0,0.0,0.0,0.0,0.0,0.0,0.0,0.0,0.0,0.0,0.0,0.0,0.0,0.0,0.0,0.0,0.0,0.0,0.0,0.0,0.0,0.0,0.0,0.0226,0.0,0.0224,0.0444,0.0671,0.0673,0.0875,0.131,0.0898,0.0636,0.0,0.0,0.0,0.0,0.0,0.0,0.0,0.0,0.0,0.0,0.0,0.0,0.0,0.0,0.0,0.0,0.0,0.0,0.0,0.0,0.0,0.0,0.0,0.0,0.0,0.0,0.0,0.0,-0.4575,-0.4839,-0.4759,0.0,0.0,0.0,0.0,0.0,0.0,0.0,0.0,0.0,0.0,-1.225,-1.3085,-1.3615,0.0,0.0,-1.4234,-1.3796,-1.3234,-1.36,-1.3181,-1.0885,-1.0303,0.0,0.0,0.0,0.0,0.0,0.0,0.0,0.0,0.0,0.0,0.0,0.0,0.0,0.0,0.0,0.0,0.0,0.0,0.0,0.0,0.0,0.0,0.0,0.0,0.0,0.0,0.0,0.0,0.0,0.0,0.0,0.0,0.0,0.0,0.0,0.0,0.0,0.0,0.0,0.0,0.0,0.0,0.0,0.0,0.0,0.0,0.0,0.0,0.0,0.0,0.0,0.0,0.0185,0.0,0.0168,0.0445,0.0773,0.0975,0.131,0.1774,0.1536,0.1361,0.0,0.0,0.0,0.0,0.0,0.0,0.0,0.0,0.0,0.0,0.0,0.0,0.0,0.0,0.0,0.0,0.0,0.0,0.0,0.0,0.0,0.0,0.0,0.0,0.0,0.0,0.0,0.0,-0.4922,-0.5116,-0.5073,0.0,0.0,0.0,0.0,0.0,0.0,0.0,0.0,0.0,0.0,-1.3066,-1.381,-1.4249,-1.4485,-1.4485,-1.4533,-1.4258,-1.3415,-1.3616,-1.3259,-1.1398,0.0,0.0,0.0,0.0,0.0,0.0,0.0,0.0,0.0,0.0,0.0,0.0,0.0,0.0,0.0,0.0,0.0,0.0,0.0,0.0,0.0,0.0,0.0,0.0,0.0,0.0,0.0,0.0,0.0,0.0,0.1803,0.0,0.0,0.0,0.0,0.0,0.0,0.0,0.0,0.0,0.0,0.0,0.0,0.0,0.0,0.0,0.0,0.0,0.0,0.0,0.0,0.0,0.0,0.0574,0.0022,0.0559,0.0603,0.0101,0.074,0.1143,0.1175,0.1758,0.2028,0.1964,0.0,0.0,0.0,0.0,0.0,0.0,0.0,0.0,0.0,0.0,0.0,0.0,0.0,0.0,0.0,0.0,0.0,0.0,0.0,0.0,0.0,0.0,0.0,0.0,0.0,0.0,-0.3083,-0.3911,-0.4652,0.0,0.0,0.0,0.0,0.0,0.0,0.0,0.0,0.0,0.0,-1.2681,-1.4304,-1.3966,-1.424,-1.4485,-1.4494,-1.3845,-1.3323,-1.3296,-1.3607,-1.3332,0.0,0.0,0.0,0.0,0.0,0.0,0.0,0.0,0.0,0.0,0.0,0.0,0.0,0.0,0.0,0.0,0.0,0.0,0.0,0.0,0.0,0.0,0.0,0.0,0.0,0.0,0.0,0.2481,0.2277,0.0,0.0,0.0,0.0,0.0,0.0,0.0,0.0,0.0,0.0,0.0,0.352,0.3826,0.0,0.0,0.0,0.0,0.0,0.0,0.0,0.0,0.0,0.0,0.0,0.0,0.0188,0.0023,0.0198,0.0445,0.0739,0.0975,0.1544,0.2449,0.225,0.2075,0.1983,0.0,0.0,0.0,0.0,0.0,0.0,0.0,0.0,0.0,0.0,0.0,0.0,0.0,0.0,0.0,0.0,0.0,0.0,0.0,0.0,0.0,0.0,0.0,0.0,0.0,-0.3877,0.0,0.0,0.0,0.0,0.0,0.0,0.0,0.0,0.0,0.0,0.0,-0.9818,-1.0707,-1.2266,-1.3451,-1.3856,-1.3929,-1.4029,0.0,0.0,0.0,0.0,0.0,0.0,0.0,0.0,0.0,0.0,0.0,0.0,0.0,0.0,-1.2034,-0.9622,-0.9192,-0.9346,-0.9766,0.0,0.0,0.0,0.0,0.0,0.0,0.0,0.0,0.0,0.0,0.0,0.0,0.0,0.0,0.3134,0.0,0.2809,0.0,0.0,0.0,0.0,0.0,0.0,0.0,0.0,0.4094,0.4388,0.4334,0.4617,0.4624,0.0,0.4139,0.3596,0.0,0.0,0.0,0.0,0.0,0.0,0.0,0.0,0.0,0.0,0.0,0.0225,0.0705,0.0975,0.1545,0.2447,0.2423,0.2357,0.2338,0.2158,0.2002,0.0,0.0,0.0,0.0,0.0,0.0,0.0,0.0,0.0,0.0,0.0,0.0,0.0,0.0,0.0,0.0,0.0,0.0,0.0,0.0,0.0,0.0,0.0,-0.4011,0.0,0.0,0.0,0.0,0.0,0.0,0.0,0.0,0.0,-0.739,-0.916,-1.0693,-1.1404,-1.2491,-1.3228,-1.3391,0.0,0.0,0.0,0.0,0.0,0.0,0.0,-1.1808,-1.2084,-1.2165,-1.2446,-1.3277,-1.421,-1.4818,-1.4582,0.0,0.0,-1.1885,-1.1385,-1.1571,-1.2013,-1.2396,-1.2768,-1.325,-1.3802,-1.4138,0.0,0.0,0.0,0.0,0.0,0.0,0.0,0.0,0.39,0.391,0.0,0.3411,0.0,0.0,0.0,0.0,0.0,0.3788,0.0,0.0,0.5155,0.5433,0.5133,0.5137,0.5137,0.5133,0.4932,0.464,0.4191,0.307,0.0,0.0,0.0,0.0,0.0,0.0,0.0,0.0,0.0,0.0,0.0,0.0707,0.1076,0.1141,0.2255,0.2858,0.2844,0.2683,0.2623,0.2626,0.1508,0.0,0.0,0.0,0.0,0.0,0.0,0.0,0.0,0.0,0.0,0.0,0.0,0.0,0.0,0.0,0.0,0.0,0.0,0.0,0.0,-0.3105,0.0,0.0,0.0,0.0,0.0,0.0,0.0,0.0,0.0,0.0,-0.8082,-1.0435,-1.2227,-1.2219,0.0,0.0,0.0,0.0,-1.1663,-1.0695,-1.046,-1.0551,-1.0835,-1.1791,-1.2693,-1.3241,0.0,0.0,-1.5531,-1.5504,-1.5245,-1.4416,-1.5361,-1.5889,-1.501,-1.4141,-1.3803,-1.4317,-1.4202,-1.4132,-1.4607,-1.4957,-1.4749,0.7143,0.0,0.0,0.0,0.0,0.5049,0.4882,0.4995,0.4978,0.4772,0.4487,0.4317,0.0,0.0,0.0,0.0,0.0,0.0,0.4572,0.4864,0.5372,0.5654,0.574,0.5884,0.5939,0.5928,0.5647,0.5456,0.5309,0.465,0.3417,0.1665,0.0,0.0,0.0,0.0,0.0,0.0,0.0,0.0,0.0,0.0204,0.0572,0.1075,0.1844,0.2248,0.2277,0.2535,0.2476,0.2071,0.1691,0.0,0.0,0.0,0.0,0.0,0.0,0.0,0.0,0.0,0.0,0.0,0.0,0.0,0.0,0.0,0.0,0.0,0.0,0.0,-0.3067,-0.4043,-0.4562,0.0,0.0,0.0,0.0,0.0,0.0,0.0,0.0,0.0,-0.886,-0.9738,-1.0607,0.0,0.0,-1.1525,-1.1627,-1.1096,-1.0875,-1.1511,-1.1295,0.0,0.0,-1.3007,-1.3211,-1.4025,-1.5225,-1.6049,-1.5999,-1.6699,-1.7187,-1.6914,-1.7187,-1.7363,-1.7119,-1.6396,-1.589,-1.6019,-1.6272,-1.6682,-1.7217,-1.7711,-1.8141,0.891,0.8731,0.7205,0.6684,0.6814,0.6339,0.6278,0.6424,0.5892,0.5601,0.5425,0.5123,0.4836,0.4541,0.4365,0.0,0.0,0.0,0.5118,0.5464,0.5742,0.5952,0.6122,0.6213,0.63,0.6289,0.5992,0.5838,0.5851,0.5475,0.4424,0.2847,0.0,0.0,0.0555,0.052,0.0522,0.0497,0.0166,0.0173,0.0526,0.0171,0.0201,0.0661,0.1233,0.1562,0.1572,0.23,0.2551,0.2188,0.2142,0.1866,0.0,0.0,0.0,0.0,0.0,0.0,0.0,0.0,0.0,0.0,0.0,-0.1717,0.0,0.0,0.0,0.0,-0.259,-0.3022,-0.3575,-0.423,0.0,0.0,0.0,0.0,0.0,0.0,0.0,-0.8043,-0.8725,-0.9218,-0.9385,-0.9529,-0.9947,-1.0783,-1.071,-1.0697,-1.0921,0.0,-1.0351,-1.104,-1.1256,-1.1774,-1.308,-1.3592,-1.4171,-1.5273,-1.6127,-1.6684,-1.6746,-1.7441,-1.7998,-1.8008,-1.8008,-1.8008,-1.8008,-1.7545,-1.7233,-1.7342,-1.76,-1.7988,-1.8386,-1.8801,-1.9418,1.0176,0.986,0.7967,0.7292,0.7516,0.7422,0.7655,0.7931,0.6728,0.633,0.6552,0.585,0.5497,0.5443,0.4999,0.0,0.5201,0.5515,0.5786,0.6016,0.6235,0.63,0.63,0.63,0.63,0.63,0.6018,0.5988,0.601,0.5729,0.5231,0.4598,0.4102,0.3009,0.1467,0.1383,0.1372,0.1344,0.0519,0.0456,0.1156,0.041,0.0,0.0,0.0532,0.0819,0.0852,0.1934,0.2569,0.2617,0.2626,0.2401,0.1884,0.0,0.0,0.0,0.0,0.0,0.0,0.0,0.0,0.0,0.0,0.0,0.0,0.0,0.0,0.0,-0.3184,0.0,-0.4033,-0.4049,0.0,0.0,0.0,-0.6135,-0.7303,-0.8107,-0.8681,-0.9002,0.0,0.0,-0.9749,-0.9742,-1.0019,-1.0779,-1.0832,-1.0725,-1.053,-1.0285,-1.002,-1.0032,-1.0753,-1.1616,-1.2619,-1.4021,-1.5437,-1.6556,-1.722,-1.7423,-1.7482,-1.775,-1.7974,-1.8008,-1.8008,-1.8008,-1.8008,-1.7978,-1.8049,-1.8202,-1.8252,-1.8321,-1.8508,-1.8615,-1.9177,0.9014,0.8531,0.8652,0.8561,0.8328,0.7733,0.7438,0.7399,0.7091,0.6912,0.6811,0.6444,0.6231,0.6078,0.5972,0.5962,0.6033,0.6105,0.6173,0.6245,0.6282,0.63,0.63,0.63,0.63,0.63,0.6257,0.6202,0.6207,0.6131,0.5852,0.5334,0.5142,0.4108,0.2284,0.2027,0.1923,0.1911,0.1105,0.0561,0.0316,0.0103,0.0,0.0,0.0157,0.0213,0.0236,0.0941,0.154,0.1984,0.2022,0.2158,0.2455,0.1472,0.0,0.0,0.0,0.0,0.0,0.0,0.0,0.0,0.0,-0.2171,-0.1835,0.0,-0.2926,0.0,-0.3863,-0.4443,-0.4521,-0.4844,0.0,0.0,-0.6486,-0.7134,-0.8438,-0.8928,-0.9214,-0.9314,-0.9715,-1.0013,-1.0013,-1.0007,-1.0181,-1.0612,-1.0301,-1.0132,-1.0422,-1.0276,-1.0387,-1.1052,-1.1553,-1.2534,-1.4154,-1.5592,-1.648,-1.6837,-1.722,-1.7505,-1.7495,-1.7769,-1.8008,-1.8008,-1.8008,-1.8008,-1.8008,-1.8008,-1.8012,-1.8087,-1.8183,-1.841,-1.8791,-1.8988,-1.9342,0.8781,0.8209,0.8909,0.8803,0.8178,0.8234,0.819,0.8071,0.7605,0.7324,0.7082,0.6743,0.649,0.63,0.63,0.63,0.63,0.63,0.63,0.63,0.63,0.63,0.63,0.63,0.63,0.63,0.63,0.63,0.63,0.63,0.6173,0.5928,0.5744,0.5089,0.3885,0.3043,0.2443,0.2112,0.2035,0.1541,0.0631,0.0581,0.0394,0.0,0.0,0.0,0.0,0.0582,0.1056,0.1395,0.1666,0.1836,0.1896,0.1267,0.0773,0.0,0.0,0.0,0.0,0.0,0.0,0.0,0.0,0.0,0.0,0.0,-0.3425,-0.3495,-0.4328,-0.486,-0.4799,-0.51,-0.5639,-0.6502,-0.691,-0.758,-0.8745,-0.9346,-0.9674,-0.965,-1.0061,-1.0345,-1.0345,-1.0338,-1.0374,-1.0573,-1.0311,-1.0224,-1.0458,-1.039,-1.056,-1.1125,-1.172,-1.2633,-1.4355,-1.5462,-1.617,-1.6266,-1.6927,-1.7495,-1.7495,-1.7769,-1.8008,-1.8008,-1.8008,-1.8008,-1.8008,-1.8008,-1.8008,-1.8012,-1.8091,-1.8255,-1.8502,-1.8627,-1.8895,0.9065,0.8398,0.8897,0.855,0.7725,0.872,0.9064,0.8841,0.7963,0.7459,0.7307,0.6898,0.6574,0.6369,0.6327,0.6317,0.63,0.63,0.63,0.63,0.63,0.63,0.63,0.63,0.63,0.63,0.63,0.63,0.63,0.63,0.6279,0.6242,0.6001,0.5744,0.5396,0.4151,0.3115,0.2281,0.2962,0.2656,0.1331,0.1182,0.0765,0.0,0.0,0.0,0.0,0.0501,0.083,0.0922,0.1439,0.1575,0.1147,0.1031,0.0759,0.0,0.008,0.0,0.0,0.0,0.0,0.0,0.0,0.0,0.0,-0.3538,-0.4005,-0.4178,-0.4766,-0.5123,-0.5036,-0.5157,-0.5638,-0.6559,-0.7072,-0.7736,-0.8659,-0.9437,-0.9975,-1.0046,-1.0392,-1.0601,-1.0586,-1.0586,-1.0586,-1.0586,-1.0566,-1.0564,-1.0604,-1.0566,-1.0604,-1.0593,-1.1432,-1.2443,-1.3358,-1.4396,-1.5087,-1.5222,-1.6034,-1.7017,-1.6946,-1.7324,-1.7687,-1.7741,-1.7881,-1.8008,-1.8008,-1.8008,-1.8008,-1.8008,-1.8022,-1.8012,-1.8032,-1.8056,-1.8269,0.9102,0.8555,0.8653,0.8595,0.8408,0.8607,0.8204,0.7412,0.7045,0.6922,0.7002,0.7167,0.7038,0.6683,0.6553,0.6405,0.63,0.63,0.63,0.63,0.63,0.63,0.63,0.63,0.63,0.63,0.63,0.63,0.63,0.63,0.6173,0.5895,0.5851,0.5341,0.4535,0.0,0.0,0.0,0.296,0.2412,0.1327,0.0606,0.0178,0.0,0.0,0.0,0.0,0.0095,0.0403,0.0886,0.1365,0.0,0.0,0.0,0.0,0.0,0.0,0.0,0.0,0.0,0.0,0.0,-0.1445,-0.2393,-0.31,-0.4086,-0.4819,-0.5115,-0.5348,-0.5589,-0.5764,-0.5959,-0.6311,-0.6928,-0.7102,-0.7655,-0.8843,-0.9295,-0.9712,-1.0277,-1.0548,-1.0659,-1.0571,-1.0586,-1.0575,-1.0558,-1.0593,-1.0586,-1.0575,-1.0575,-1.0586,-1.067,-1.1425,-1.2118,-1.2355,-1.3302,-1.3998,-1.4081,-1.4289,-1.478,-1.5006,-1.5597,-1.62,-1.6645,-1.7417,-1.8008,-1.8008,-1.8008,-1.8008,-1.8008,-1.8008,-1.8008,-1.8008,-1.8008,-1.8042,0.9167,0.0,0.8901,0.8764,0.0,0.8296,0.7926,0.7277,0.7524,0.7516,0.7234,0.7368,0.7155,0.6742,0.6549,0.6329,0.6135,0.5955,0.5934,0.6071,0.6034,0.6153,0.63,0.63,0.63,0.63,0.63,0.63,0.63,0.63,0.6218,0.603,0.603,0.5768,0.5264,0.5548,0.5193,0.4156,0.3961,0.3442,0.2574,0.2112,0.1469,0.0693,0.0,0.0,0.0,0.0,0.0,0.0,0.0,0.0,0.0,0.0,0.0,0.1381,0.0826,0.0315,-0.0075,-0.0292,-0.0366,-0.033,-0.1367,-0.2464,-0.3555,-0.4751,-0.5528,-0.5677,-0.5833,-0.602,-0.6125,-0.6213,-0.6423,-0.6677,-0.6925,-0.7379,-0.8015,-0.8518,-0.8973,-0.9393,-0.9605,-0.9758,-0.9911,-0.998,-0.9999,-1.0128,-1.0359,-1.0493,-1.0421,-1.0509,-1.0593,-1.0593,-1.098,-1.1347,-1.1464,-1.2238,-1.2914,-1.2954,-1.3532,-1.3999,-1.4131,-1.4887,-1.567,-1.6215,-1.7182,-1.7998,-1.8008,-1.8008,-1.8008,-1.8008,-1.8008,-1.8008,-1.8008,-1.8008,-1.8008,0.9074,0.864,0.9129,0.8839,0.8109,0.8109,0.7943,0.7751,0.0,0.0,0.0,0.7525,0.723,0.6795,0.6556,0.6318,0.6081,0.5736,0.5689,0.5878,0.5884,0.6054,0.6293,0.63,0.63,0.63,0.63,0.63,0.63,0.63,0.63,0.63,0.63,0.63,0.63,0.63,0.5949,0.5206,0.4968,0.4556,0.3858,0.3666,0.2901,0.1548,0.1524,0.1116,0.027,0.0215,0.0156,0.0024,0.0074,0.0419,0.1017,0.1174,0.1227,0.1243,0.1148,0.0848,0.0234,0.0093,-0.0098,-0.0309,-0.1356,-0.255,-0.3885,-0.5107,-0.588,-0.6033,-0.6224,-0.6296,-0.63,-0.63,-0.63,-0.6296,-0.6708,-0.6992,-0.7203,-0.767,-0.8215,-0.8426,-0.8695,-0.8867,-0.9238,-0.9337,-0.9385,-0.9617,-1.0005,-1.0289,-1.0188,-1.0384,-1.0586,-1.0593,-1.0676,-1.0638,-1.0721,-1.1255,-1.179,-1.1876,-1.2685,-1.3379,-1.3558,-1.4123,-1.4894,-1.5635,-1.6972,-1.7847,-1.8008,-1.8008,-1.8008,-1.8008,-1.8008,-1.8008,-1.8008,-1.8008,-1.8008,0.8671,0.8608,0.8711,0.8642,0.8531,0.8535,0.8506,0.8441,0.8187,0.7832,0.7458,0.772,0.762,0.7179,0.6812,0.6573,0.64,0.6255,0.6197,0.6235,0.6235,0.6255,0.6296,0.63,0.63,0.63,0.63,0.63,0.63,0.63,0.63,0.63,0.63,0.63,0.63,0.63,0.6121,0.5762,0.4939,0.4364,0.4046,0.3167,0.2572,0.2344,0.2319,0.1942,0.114,0.1113,0.0764,0.0053,0.0378,0.0694,0.0913,0.1437,0.177,0.1831,0.1379,0.1057,0.0951,0.035,-0.0108,-0.0335,-0.115,-0.2191,-0.3389,-0.4505,-0.5443,-0.615,-0.6282,-0.63,-0.63,-0.63,-0.63,-0.6296,-0.6356,-0.6643,-0.7283,-0.7479,-0.7809,-0.8344,-0.8699,-0.8865,-0.8935,-0.9128,-0.9283,-0.953,-0.964,-0.9823,-1.009,-1.0364,-1.0563,-1.0586,-1.0586,-1.0586,-1.0631,-1.0676,-1.0896,-1.0805,-1.1051,-1.1369,-1.1479,-1.1603,-1.2427,-1.4344,-1.6492,-1.7794,-1.7954,-1.8008,-1.8008,-1.8008,-1.8008,-1.8008,-1.8008,-1.8008,-1.8008,0.9244,0.9035,0.8746,0.8616,0.8616,0.8616,0.8616,0.8596,0.839,0.8103,0.769,0.7836,0.7632,0.7191,0.6885,0.6619,0.6381,0.6074,0.5975,0.601,0.6013,0.6139,0.6289,0.63,0.63,0.63,0.63,0.63,0.63,0.63,0.63,0.63,0.63,0.63,0.63,0.63,0.6257,0.6099,0.5509,0.5107,0.4916,0.4317,0.3817,0.3377,0.3259,0.2813,0.1987,0.1952,0.1745,0.1373,0.1552,0.167,0.1657,0.1924,0.2082,0.2132,0.15,0.1131,0.1216,0.044,-0.0038,-0.0154,-0.0624,-0.1327,-0.2349,-0.3921,-0.504,-0.5553,-0.6025,-0.63,-0.63,-0.63,-0.63,-0.63,-0.63,-0.6454,-0.6756,-0.6834,-0.703,-0.7412,-0.7626,-0.7846,-0.8099,-0.8361,-0.8618,-0.8814,-0.9074,-0.949,-0.9942,-1.0195,-1.0404,-1.0564,-1.0586,-1.0586,-1.0586,-1.0586,-1.0586,-1.0586,-1.0586,-1.0618,-1.0681,-1.0624,-1.1464,-1.3243,-1.5882,-1.7465,-1.7345,-1.7649,-1.7901,-1.8008,-1.8008,-1.8008,-1.8008,-1.8008,-1.8008,1.0154,0.9852,0.9196,0.8784,0.8612,0.8616,0.8616,0.8616,0.8612,0.8344,0.7984,0.794,0.7632,0.7193,0.6913,0.6683,0.6405,0.5979,0.585,0.5942,0.5918,0.6067,0.6279,0.63,0.63,0.63,0.63,0.63,0.63,0.63,0.63,0.63,0.63,0.63,0.63,0.63,0.63,0.6257,0.6099,0.5867,0.5676,0.5476,0.5041,0.4419,0.4223,0.3726,0.2868,0.2788,0.2709,0.2511,0.2511,0.2437,0.2365,0.251,0.251,0.2293,0.1721,0.1253,0.1001,0.0378,0.0,0.0,-0.0157,-0.0549,-0.1333,-0.2934,-0.4297,-0.4885,-0.555,-0.6064,-0.6261,-0.63,-0.63,-0.63,-0.63,-0.63,-0.63,-0.63,-0.6338,-0.6539,-0.6674,-0.6925,-0.7289,-0.7602,-0.794,-0.828,-0.873,-0.9268,-0.968,-0.9903,-1.0118,-1.0255,-1.0477,-1.06,-1.0586,-1.0586,-1.0586,-1.0586,-1.0586,-1.0593,-1.0593,-1.0586,-1.1178,-1.2627,-1.4591,-1.6202,-1.6348,-1.701,-1.7605,-1.7881,-1.8008,-1.8008,-1.8008,-1.8008,-1.8008,1.1417,1.1009,1.0144,0.9301,0.8648,0.8608,0.8608,0.8616,0.8616,0.8432,0.816,0.7984,0.7724,0.7438,0.7049,0.6865,0.6778,0.6532,0.6383,0.6373,0.6317,0.6272,0.63,0.63,0.63,0.63,0.63,0.63,0.63,0.63,0.63,0.63,0.63,0.63,0.63,0.63,0.63,0.63,0.6296,0.6138,0.5902,0.5673,0.5437,0.5229,0.5184,0.4704,0.3768,0.3691,0.3317,0.259,0.2552,0.2513,0.2551,0.3092,0.3129,0.237,0.2194,0.1598,0.0,0.0039,0.0,0.0,0.0,-0.0118,-0.0471,-0.1333,-0.2699,-0.4219,-0.4924,-0.5473,-0.6183,-0.6257,-0.63,-0.63,-0.63,-0.63,-0.63,-0.63,-0.63,-0.6338,-0.6525,-0.6734,-0.7096,-0.7333,-0.767,-0.8118,-0.8639,-0.9029,-0.9164,-0.952,-0.9644,-0.9625,-1.0043,-1.052,-1.0531,-1.0586,-1.0586,-1.0586,-1.0586,-1.0586,-1.0586,-1.0663,-1.1023,-1.202,-1.2457,-1.3541,-1.5492,-1.6546,-1.6949,-1.7775,-1.8008,-1.8008,-1.8008,-1.8008,-1.8008,1.2287,1.1798,1.0905,0.9975,0.9172,0.9133,0.894,0.8612,0.8616,0.8524,0.8432,0.8204,0.7856,0.7499,0.7308,0.7147,0.6869,0.6705,0.6556,0.6504,0.6364,0.63,0.63,0.63,0.63,0.63,0.63,0.63,0.63,0.63,0.63,0.63,0.63,0.63,0.63,0.63,0.63,0.63,0.63,0.6257,0.6141,0.5906,0.575,0.567,0.5556,0.5303,0.4909,0.4745,0.453,0.4183,0.4029,0.3766,0.3305,0.3569,0.3341,0.2509,0.1957,0.1202,0.0,0.0,0.0,0.0,0.0,0.0,-0.0118,-0.0549,-0.1411,-0.2699,-0.4066,-0.4999,-0.5354,-0.5906,-0.63,-0.63,-0.63,-0.63,-0.63,-0.63,-0.63,-0.6303,-0.6453,-0.6617,-0.6877,-0.7243,-0.7613,-0.7965,-0.8384,-0.8558,-0.8607,-0.8996,-0.9203,-0.9133,-0.948,-0.9895,-1.0102,-1.0431,-1.0556,-1.0593,-1.0586,-1.0586,-1.0586,-1.0586,-1.0862,-1.1528,-1.1546,-1.2427,-1.4806,-1.5987,-1.6721,-1.7596,-1.8008,-1.8008,-1.8008,-1.8008,-1.8008,1.3449,1.2893,1.1782,1.0689,0.9758,0.9753,0.9418,0.887,0.8839,0.8782,0.8568,0.8384,0.8072,0.7724,0.7551,0.7311,0.7066,0.6834,0.6681,0.6532,0.6422,0.634,0.6303,0.63,0.63,0.63,0.63,0.63,0.63,0.63,0.63,0.63,0.63,0.63,0.63,0.63,0.63,0.63,0.63,0.63,0.6257,0.6099,0.598,0.5902,0.575,0.5634,0.5601,0.5482,0.5401,0.5362,0.5207,0.4815,0.4261,0.4146,0.3638,0.2581,0.1762,0.0941,0.0,0.0,0.0,0.0,0.0,0.0,0.0,-0.0118,-0.0471,-0.1176,-0.2817,-0.3867,-0.4414,-0.5276,-0.5828,-0.5944,-0.6103,-0.63,-0.63,-0.63,-0.63,-0.631,-0.6419,-0.6552,-0.6749,-0.7149,-0.7448,-0.7764,-0.7896,-0.8069,-0.8126,-0.8442,-0.8641,-0.8577,-0.8818,-0.9232,-0.9683,-1.0091,-1.0393,-1.06,-1.0586,-1.0586,-1.0586,-1.0586,-1.0649,-1.1136,-1.1237,-1.1985,-1.377,-1.5073,-1.6455,-1.7499,-1.7974,-1.7964,-1.8008,-1.8008,-1.8008,1.5132,1.4592,1.2965,1.1489,1.0374,1.0369,1.0018,0.9442,0.9442,0.9163,0.8671,0.86,0.8424,0.8157,0.7724,0.7503,0.7427,0.7063,0.6827,0.6726,0.6566,0.6429,0.6303,0.63,0.63,0.63,0.63,0.63,0.63,0.63,0.63,0.63,0.63,0.63,0.63,0.63,0.63,0.63,0.63,0.63,0.63,0.6257,0.6138,0.5941,0.5899,0.5789,0.5637,0.5601,0.5562,0.5601,0.5401,0.5243,0.5204,0.5012,0.4151,0.266,0.1722,0.0902,0.0,0.0,0.0,0.0,0.0,0.0,0.0,0.0,0.0,0.0,-0.1216,-0.227,-0.3244,-0.4219,-0.4885,-0.5157,-0.5828,-0.618,-0.63,-0.63,-0.63,-0.632,-0.6439,-0.66,-0.6875,-0.7001,-0.7217,-0.7459,-0.7551,-0.7639,-0.7834,-0.7821,-0.7847,-0.7979,-0.8205,-0.863,-0.9519,-0.9913,-1.0132,-1.0341,-1.0462,-1.0593,-1.0586,-1.0618,-1.0681,-1.0713,-1.0776,-1.1468,-1.2806,-1.423,-1.5717,-1.6837,-1.7648,-1.7818,-1.7974,-1.8008,-1.8008,1.5003,1.4349,1.332,1.228,1.1324,1.1118,1.0668,1.007,1.008,0.9753,0.9217,0.9201,0.8923,0.8432,0.8116,0.7764,0.7489,0.7382,0.7232,0.707,0.6794,0.665,0.6598,0.6425,0.63,0.63,0.63,0.63,0.63,0.63,0.63,0.63,0.63,0.63,0.63,0.63,0.63,0.63,0.63,0.63,0.63,0.63,0.6257,0.6177,0.6177,0.6141,0.6064,0.587,0.5786,0.5789,0.5595,0.5482,0.5443,0.4815,0.3873,0.2621,0.1761,0.0902,0.0,0.0,0.0,0.0,0.0,0.0,0.0,0.0,0.0,0.0,0.0,-0.0862,-0.1527,-0.2854,-0.4139,-0.4727,-0.5198,-0.5709,-0.6141,-0.63,-0.63,-0.6334,-0.6501,-0.6705,-0.6892,-0.7007,-0.7136,-0.7231,-0.737,-0.7503,-0.7628,-0.7709,-0.7769,-0.7746,-0.7867,-0.8165,-0.8601,-0.9444,-0.9913,-1.0079,-1.0251,-1.0494,-1.0575,-1.0593,-1.0656,-1.0649,-1.0624,-1.1205,-1.2626,-1.3998,-1.5367,-1.6172,-1.6964,-1.7391,-1.7906,-1.7837,-1.7906,1.4963,1.4095,1.3661,1.2895,1.1994,1.1756,1.1316,1.0749,1.0721,1.0379,0.9871,0.978,0.9437,0.8931,0.8688,0.8285,0.7753,0.7733,0.7569,0.7371,0.7121,0.6969,0.6857,0.6563,0.6374,0.6374,0.6338,0.63,0.63,0.63,0.63,0.63,0.63,0.63,0.63,0.63,0.63,0.63,0.63,0.63,0.63,0.63,0.63,0.63,0.63,0.63,0.63,0.6138,0.6018,0.6018,0.5828,0.5673,0.5518,0.4968,0.4107,0.3127,0.2543,0.1645,0.0628,0.0392,0.0,0.0,0.0,0.0,0.0,0.0,0.0,0.0,0.0,-0.0079,-0.0432,-0.1528,-0.2815,-0.3791,-0.4494,-0.516,-0.5786,-0.6145,-0.6308,-0.6427,-0.6627,-0.6824,-0.697,-0.7031,-0.7085,-0.7095,-0.7279,-0.7367,-0.7411,-0.7496,-0.7647,-0.757,-0.7565,-0.769,-0.8017,-0.859,-0.9235,-0.9468,-0.9955,-1.0238,-1.0469,-1.0513,-1.0593,-1.0593,-1.0885,-1.1464,-1.242,-1.3776,-1.4721,-1.5493,-1.599,-1.6383,-1.6974,-1.7588,-1.7657,1.5157,1.4215,1.4088,1.3387,1.2446,1.2273,1.1947,1.1467,1.1414,1.101,1.0458,1.0433,1.0085,0.9601,0.9466,0.9055,0.8368,0.8106,0.7867,0.7614,0.7492,0.7334,0.7155,0.6788,0.6578,0.6525,0.6377,0.63,0.63,0.63,0.63,0.63,0.63,0.63,0.63,0.63,0.63,0.63,0.63,0.63,0.63,0.63,0.63,0.63,0.63,0.63,0.63,0.63,0.6257,0.6257,0.6018,0.5828,0.5676,0.5518,0.5085,0.4185,0.3988,0.313,0.1606,0.1254,0.0824,0.0,0.0,0.0,0.0,0.0,0.0,0.0,0.0,0.0,0.0,-0.0355,-0.1062,-0.2117,-0.3558,-0.4491,-0.4963,-0.5757,-0.6376,-0.6548,-0.6736,-0.6933,-0.7048,-0.7088,-0.7095,-0.7095,-0.7139,-0.7143,-0.7187,-0.7231,-0.7228,-0.7355,-0.7404,-0.7426,-0.755,-0.7706,-0.8273,-0.8811,-0.94,-0.9844,-1.0099,-1.0231,-1.0531,-1.06,-1.0707,-1.1238,-1.1578,-1.2858,-1.3627,-1.4369,-1.4806,-1.5463,-1.6225,-1.6881,-1.726,1.5498,1.493,1.4329,1.3768,1.312,1.2579,1.2173,1.2014,1.2021,1.1676,1.1187,1.1104,1.0726,1.0223,1.01,0.9734,0.9127,0.9012,0.8656,0.8072,0.7862,0.7793,0.7613,0.7049,0.6631,0.643,0.6338,0.63,0.63,0.63,0.63,0.63,0.63,0.63,0.63,0.63,0.63,0.63,0.63,0.63,0.63,0.63,0.63,0.63,0.63,0.63,0.63,0.63,0.63,0.63,0.6219,0.606,0.5867,0.5789,0.5354,0.445,0.4295,0.3789,0.2543,0.1841,0.1411,0.0863,0.0392,0.0,0.0,0.0,0.0,0.0,0.0,0.0,0.0,-0.004,-0.0599,-0.1689,-0.2388,-0.3136,-0.3812,-0.4686,-0.5436,-0.5897,-0.6465,-0.6903,-0.7055,-0.7095,-0.7095,-0.7095,-0.7095,-0.7095,-0.7095,-0.7095,-0.7139,-0.7207,-0.7224,-0.7215,-0.7322,-0.7362,-0.7659,-0.8129,-0.8689,-0.9215,-0.9541,-1.0079,-1.038,-1.0626,-1.074,-1.0904,-1.1274,-1.1775,-1.2598,-1.3229,-1.3724,-1.4579,-1.5591,-1.6097,-1.6376,1.5431,1.4997,1.4249,1.3681,1.326,1.2565,1.2305,1.2305,1.2305,1.2107,1.1784,1.1733,1.137,1.0864,1.0784,1.0404,0.9871,0.9844,0.9414,0.8742,0.8526,0.8447,0.8346,0.7741,0.7057,0.6574,0.644,0.6374,0.63,0.63,0.63,0.63,0.63,0.63,0.63,0.63,0.63,0.63,0.63,0.63,0.63,0.63,0.63,0.63,0.63,0.63,0.63,0.63,0.63,0.63,0.63,0.6219,0.606,0.6018,0.5705,0.5154,0.488,0.4491,0.3517,0.2971,0.2192,0.1528,0.0902,0.0,0.0,0.0,0.0,0.0,0.0,0.0,0.0,0.0,0.0,-0.0916,-0.1523,-0.2127,-0.3018,-0.3808,-0.4395,-0.4906,-0.5664,-0.6299,-0.6536,-0.6962,-0.7051,-0.7095,-0.7095,-0.7095,-0.7095,-0.7095,-0.7095,-0.7119,-0.7128,-0.7139,-0.7083,-0.709,-0.7108,-0.7508,-0.7928,-0.8404,-0.882,-0.9663,-1.0185,-1.05,-1.0687,-1.0687,-1.0983,-1.1099,-1.1629,-1.2143,-1.2757,-1.3451,-1.4271,-1.4822,-1.5234,1.5104,1.4486,1.3886,1.3414,1.2951,1.2485,1.2305,1.2305,1.2305,1.2274,1.2251,1.2197,1.1934,1.1552,1.1429,1.1065,1.0546,1.0458,1.0147,0.9604,0.9353,0.9255,0.908,0.8661,0.803,0.7222,0.6889,0.6641,0.6567,0.6412,0.63,0.63,0.63,0.63,0.63,0.63,0.63,0.63,0.63,0.63,0.63,0.63,0.63,0.63,0.63,0.63,0.63,0.63,0.63,0.63,0.63,0.6257,0.6257,0.63,0.6099,0.5825,0.5899,0.5389,0.4724,0.4215,0.3554,0.2192,0.1646,0.1216,0.0,0.0,0.0,0.0,0.0,0.0,0.0,0.0,0.0,0.0,-0.087,-0.1749,-0.2729,-0.3115,-0.3407,-0.374,-0.4544,-0.5356,-0.5536,-0.6248,-0.6605,-0.6918,-0.6918,-0.6874,-0.7095,-0.7095,-0.7095,-0.7109,-0.7108,-0.7043,-0.7025,-0.6982,-0.696,-0.7009,-0.7421,-0.7878,-0.8506,-0.9406,-1.0145,-1.0463,-1.0576,-1.0588,-1.0665,-1.0811,-1.0978,-1.1466,-1.1977,-1.2382,-1.2956,-1.3635,-1.4263,1.5578,1.5378,1.4396,1.3881,1.3635,1.2739,1.2311,1.2305,1.2305,1.2305,1.2305,1.2305,1.2197,1.2076,1.2052,1.1733,1.1268,1.1126,1.0778,1.0213,1.0111,0.9927,0.9771,0.9594,0.9203,0.8562,0.797,0.7629,0.7365,0.683,0.6528,0.63,0.6335,0.6296,0.63,0.63,0.63,0.63,0.63,0.63,0.63,0.63,0.63,0.63,0.63,0.63,0.63,0.63,0.63,0.63,0.63,0.63,0.63,0.63,0.6257,0.618,0.6177,0.6018,0.5509,0.496,0.4336,0.3634,0.2464,0.149,0.1216,0.0432,0.0,0.0,0.0,0.0,0.0,0.0,0.0,0.0,0.0,-0.0679,-0.1202,-0.1771,-0.2309,-0.261,-0.3471,-0.4061,-0.4376,-0.4732,-0.5223,-0.5849,-0.6074,-0.6343,-0.6694,-0.6962,-0.6874,-0.7051,-0.7102,-0.7027,-0.6959,-0.6931,-0.6833,-0.6694,-0.7047,-0.7559,-0.8421,-0.9484,-1.0127,-1.06,-1.0456,-1.0437,-1.0531,-1.0678,-1.0865,-1.1039,-1.1376,-1.1853,-1.2277,-1.2834,-1.3425,1.5578,1.5391,1.4469,1.3941,1.3634,1.2871,1.2455,1.2318,1.2305,1.2305,1.2305,1.2305,1.2305,1.2305,1.2274,1.2118,1.1809,1.1784,1.139,1.0892,1.0835,1.0536,1.0268,1.0268,1.0111,0.9548,0.8989,0.8656,0.8313,0.7629,0.7138,0.6907,0.6602,0.6412,0.63,0.63,0.63,0.63,0.63,0.63,0.63,0.63,0.63,0.63,0.63,0.63,0.63,0.63,0.63,0.63,0.63,0.63,0.63,0.63,0.63,0.63,0.63,0.6219,0.6022,0.5589,0.5118,0.453,0.3361,0.2738,0.2115,0.1216,0.0668,0.0,0.0,0.0,0.0,0.0,0.0,0.0,0.0,0.0,0.0,-0.0749,-0.1106,-0.1517,-0.2191,-0.2904,-0.3127,-0.3482,-0.4107,-0.469,-0.4912,-0.5536,-0.616,-0.6428,-0.6697,-0.6874,-0.7048,-0.7034,-0.694,-0.6905,-0.6834,-0.6706,-0.6795,-0.7298,-0.7996,-0.9079,-0.9567,-0.9927,-1.01,-1.0329,-1.0424,-1.0531,-1.0692,-1.088,-1.1082,-1.137,-1.1769,-1.2235,-1.2783,1.5316,1.5015,1.4452,1.3821,1.33,1.2965,1.2643,1.2338,1.2305,1.2305,1.2305,1.2305,1.2305,1.2305,1.2305,1.2274,1.2281,1.2197,1.1828,1.1482,1.1349,1.1146,1.0666,1.1024,1.0866,1.0324,0.9938,0.9652,0.9291,0.8647,0.8084,0.7668,0.7057,0.6602,0.6412,0.6335,0.63,0.63,0.63,0.6416,0.6451,0.6412,0.6374,0.6528,0.6338,0.63,0.63,0.63,0.63,0.63,0.63,0.63,0.63,0.63,0.63,0.63,0.63,0.6296,0.63,0.618,0.5867,0.5079,0.4766,0.4258,0.3168,0.2232,0.162,0.1533,0.065,0.0,0.0,0.0,0.0,0.0,0.0,0.0,0.0,0.0,-0.009,-0.0359,-0.1164,-0.1613,-0.2059,-0.2683,-0.3349,-0.371,-0.3933,-0.4467,-0.527,-0.5849,-0.6207,-0.6653,-0.6871,-0.7085,-0.6984,-0.6879,-0.6848,-0.6757,-0.6831,-0.7095,-0.7319,-0.8097,-0.8644,-0.905,-0.9406,-0.9883,-1.0303,-1.0418,-1.0469,-1.0713,-1.0929,-1.1122,-1.1383,-1.1856,-1.2363,1.5758,1.5271,1.4975,1.4302,1.3533,1.3227,1.2799,1.2318,1.2311,1.2305,1.2305,1.2305,1.2305,1.2305,1.2305,1.2305,1.2305,1.2281,1.1965,1.152,1.1909,1.1733,1.1396,1.1734,1.1869,1.1559,1.1035,1.0689,1.034,0.9669,0.8841,0.8156,0.7855,0.7215,0.6641,0.649,0.63,0.63,0.63,0.6606,0.6953,0.6683,0.6683,0.7099,0.6721,0.6374,0.63,0.63,0.63,0.63,0.63,0.63,0.63,0.63,0.63,0.63,0.63,0.63,0.63,0.6257,0.6219,0.5864,0.5198,0.4611,0.4336,0.3212,0.2695,0.2419,0.1665,0.1121,0.1074,0.0397,0.049,0.0807,0.0,0.0,0.0,0.0,0.0,0.0,0.0,-0.0494,-0.0762,-0.0986,-0.17,-0.2506,-0.2998,-0.34,-0.4156,-0.5003,-0.5447,-0.5761,-0.6157,-0.6369,-0.6752,-0.6741,-0.6832,-0.6787,-0.6827,-0.6832,-0.7053,-0.738,-0.8011,-0.8461,-0.8828,-0.9321,-0.9786,-0.9964,-0.9943,-1.0353,-1.0724,-1.0916,-1.1162,-1.1555,-1.1852,1.5825,1.5229,1.5068,1.4456,1.3633,1.3333,1.2946,1.2538,1.2351,1.2305,1.2305,1.2305,1.2305,1.2305,1.2305,1.2305,1.2305,1.2305,1.2149,1.1909,1.2142,1.2131,1.1934,1.2094,1.2305,1.2231,1.1898,1.1626,1.1323,1.0689,1.0008,0.9362,0.8874,0.8122,0.7284,0.7061,0.6791,0.649,0.6451,0.6714,0.7061,0.7249,0.748,0.8012,0.771,0.7446,0.7446,0.7026,0.6911,0.6756,0.649,0.63,0.63,0.63,0.63,0.63,0.63,0.63,0.63,0.63,0.6296,0.63,0.5709,0.5473,0.514,0.4337,0.3859,0.3526,0.2876,0.2169,0.2062,0.1244,0.1211,0.1659,0.1211,0.0674,0.0584,0.0,0.0,0.0,0.0,0.0,-0.018,0.0,-0.0448,-0.1478,-0.1568,-0.1925,-0.2728,-0.353,-0.4109,-0.4554,-0.5087,-0.5562,-0.6189,-0.6557,-0.6862,-0.6807,-0.673,-0.6685,-0.672,-0.7107,-0.7518,-0.7869,-0.8171,-0.8594,-0.9018,-0.9176,-0.9485,-0.9937,-1.0298,-1.0613,-1.0903,-1.1201,-1.1455,1.5763,1.512,1.512,1.4566,1.3748,1.3501,1.3205,1.2757,1.2432,1.2305,1.2305,1.2305,1.2305,1.2305,1.2305,1.2305,1.2305,1.2305,1.2227,1.222,1.2251,1.2251,1.222,1.2281,1.2305,1.2305,1.2231,1.2194,1.204,1.1626,1.0987,1.0714,1.0153,0.9216,0.8309,0.797,0.7629,0.7057,0.6907,0.698,0.7169,0.7587,0.797,0.8504,0.8699,0.8551,0.8432,0.8089,0.771,0.7633,0.6911,0.6567,0.6454,0.6338,0.63,0.63,0.63,0.63,0.63,0.63,0.63,0.63,0.6257,0.6161,0.5839,0.5442,0.507,0.4657,0.4112,0.3364,0.3126,0.2284,0.2285,0.2643,0.224,0.1704,0.148,0.0853,0.0,0.0,0.0,0.0,0.0,0.0,0.0,-0.0314,-0.0404,-0.0672,-0.1478,-0.2192,-0.2906,-0.3573,-0.4152,-0.4732,-0.537,-0.6063,-0.6375,-0.6517,-0.6483,-0.6582,-0.6512,-0.6756,-0.7096,-0.7179,-0.7471,-0.7888,-0.8239,-0.8452,-0.8863,-0.9412,-0.972,-0.9902,-1.0288,-1.0777,-1.1034,1.5971,1.5659,1.5659,1.5045,1.4117,1.4192,1.3702,1.2849,1.2458,1.2311,1.2305,1.2305,1.2305,1.2305,1.2305,1.2305,1.2305,1.2305,1.2305,1.2305,1.2305,1.2305,1.2305,1.2305,1.2305,1.2305,1.2305,1.2305,1.2305,1.2114,1.1663,1.1136,1.0795,1.0153,0.9405,0.896,0.8537,0.7931,0.774,0.7778,0.7889,0.7774,0.8003,0.8689,0.9188,0.9301,0.9074,0.8884,0.8699,0.8432,0.771,0.7403,0.7215,0.6756,0.6412,0.63,0.63,0.63,0.63,0.63,0.63,0.63,0.631,0.6371,0.6281,0.616,0.5985,0.5814,0.5249,0.4581,0.4378,0.3444,0.3357,0.3582,0.3269,0.2643,0.2598,0.2285,0.1615,0.0,0.0,0.0,0.0,0.0,0.0,-0.0224,-0.0314,-0.0404,-0.0852,-0.1478,-0.2103,-0.2727,-0.335,-0.3929,-0.4505,-0.526,-0.5808,-0.5993,-0.6119,-0.6518,-0.6484,-0.6505,-0.6644,-0.6813,-0.6939,-0.7163,-0.7463,-0.7722,-0.8181,-0.8704,-0.8922,-0.9117,-0.9605,-1.0101,-1.0508,1.638,1.6003,1.5996,1.5432,1.4606,1.4467,1.3947,1.3045,1.271,1.2438,1.2338,1.2305,1.2305,1.2305,1.2305,1.2305,1.2305,1.2305,1.2305,1.2305,1.2305,1.2305,1.2305,1.2305,1.2305,1.2305,1.2305,1.2305,1.2305,1.2305,1.204,1.1811,1.162,1.113,1.0378,1.0045,0.9518,0.9026,0.8799,0.8799,0.9026,0.8799,0.9329,0.997,1.0276,1.0464,1.0314,0.9755,0.9642,0.9485,0.8765,0.8428,0.8127,0.7629,0.6872,0.6451,0.6296,0.63,0.63,0.63,0.63,0.6306,0.6358,0.6433,0.6498,0.6497,0.659,0.6415,0.5879,0.5312,0.5494,0.4559,0.4472,0.4832,0.4297,0.3717,0.3539,0.3224,0.2464,0.1614,0.0,0.0,0.0,0.0,0.0,-0.0135,-0.0179,0.0,0.0,0.0,0.0,-0.1745,-0.2281,-0.2816,-0.3441,-0.4154,-0.4825,-0.5075,-0.553,-0.5953,-0.6277,-0.6223,-0.6374,-0.6594,-0.6674,-0.6742,-0.6805,-0.7145,-0.7553,-0.7961,-0.8132,-0.8384,-0.8948,-0.9416,-0.9776,1.6679,1.6363,1.6292,1.5777,1.5007,1.4892,1.4179,1.3291,1.3029,1.2708,1.2325,1.2305,1.2305,1.2305,1.2305,1.2305,1.2305,1.2305,1.2305,1.2305,1.2305,1.2305,1.2305,1.2305,1.2305,1.2305,1.2305,1.2305,1.2305,1.2305,1.2305,1.2194,1.2231,1.1959,1.1242,1.1019,1.0571,1.0121,0.9863,0.9938,1.0013,1.0507,1.1111,1.1818,1.1818,1.1744,1.1477,1.0962,1.0657,1.0421,0.9895,0.9377,0.9334,0.8613,0.7744,0.6949,0.6528,0.6335,0.63,0.63,0.63,0.6303,0.6433,0.6508,0.6593,0.6734,0.692,0.6722,0.6299,0.5938,0.6163,0.5628,0.5542,0.5633,0.5233,0.4612,0.452,0.434,0.4072,0.3267,0.2553,0.2061,0.1837,0.1032,0.0628,0.0314,0.0,0.0,0.0,0.0,0.0,0.0,-0.1209,-0.1701,-0.2282,-0.295,-0.353,-0.3885,-0.4535,-0.5102,-0.5499,-0.5791,-0.5953,-0.6093,-0.6486,-0.6563,-0.6571,-0.656,-0.6954,-0.7252,-0.7343,-0.7671,-0.8253,-0.8583,-0.8865,1.67,1.6901,1.6575,1.5949,1.5301,1.566,1.4754,1.3204,1.3345,1.3042,1.2305,1.2305,1.2305,1.2305,1.2305,1.2305,1.2305,1.2305,1.2305,1.2305,1.2305,1.2305,1.2305,1.2305,1.2305,1.2305,1.2305,1.2305,1.2305,1.2305,1.2305,1.2305,1.2305,1.2187,1.1966,1.1774,1.1552,1.0993,1.0738,1.047,1.0239,1.0763,1.1149,1.1446,1.1818,1.212,1.1966,1.1669,1.1589,1.1403,1.0757,1.0378,1.0228,0.9593,0.9107,0.8313,0.7365,0.6296,0.6374,0.6335,0.6317,0.6344,0.645,0.6569,0.6715,0.6915,0.7058,0.7082,0.6874,0.6741,0.67,0.6567,0.6523,0.6299,0.5947,0.5725,0.568,0.5233,0.501,0.4964,0.4247,0.3578,0.3132,0.2106,0.1211,0.0942,0.0,0.0,0.0,0.0,0.0,0.0,-0.0493,-0.0987,-0.13,-0.1969,-0.2326,-0.2684,-0.3433,-0.4128,-0.4467,-0.478,-0.522,-0.5437,-0.5876,-0.6169,-0.6136,-0.6209,-0.6433,-0.6636,-0.6855,-0.7193,-0.7614,-0.7842,-0.8015,1.7022,1.7185,1.7008,1.6553,1.5951,1.5877,1.4972,1.3739,1.3324,1.2889,1.2402,1.2305,1.2305,1.2305,1.2305,1.2305,1.2305,1.2305,1.2305,1.2305,1.2305,1.2305,1.2305,1.2305,1.2305,1.2305,1.2305,1.2305,1.2305,1.2305,1.2305,1.2305,1.2305,1.2305,1.2305,1.2231,1.2046,1.1818,1.1669,1.1515,1.1403,1.1558,1.1787,1.1787,1.212,1.2194,1.2194,1.204,1.204,1.1929,1.1545,1.1434,1.1285,1.072,1.0083,0.9933,0.8803,0.7783,0.7099,0.6606,0.6457,0.6439,0.6562,0.6705,0.6905,0.7004,0.7095,0.7095,0.7095,0.7054,0.6969,0.6881,0.6748,0.6612,0.6435,0.6346,0.6257,0.6124,0.5858,0.5944,0.5899,0.5139,0.438,0.3489,0.2597,0.2061,0.1569,0.0,0.0,0.0,0.0,0.0,-0.0224,-0.0359,-0.0628,-0.103,-0.121,-0.1612,-0.2283,-0.2938,-0.3227,-0.361,-0.4212,-0.4593,-0.4881,-0.5201,-0.5494,-0.5941,-0.6247,-0.6367,-0.6451,-0.6798,-0.7066,-0.709,-0.7331,1.7286,1.7286,1.7286,1.6967,1.644,1.6002,1.5134,1.4044,1.3496,1.2917,1.2483,1.2342,1.2305,1.2305,1.2305,1.2305,1.2305,1.2305,1.2305,1.2305,1.2305,1.2305,1.2305,1.2305,1.2305,1.2305,1.2305,1.2305,1.2305,1.2305,1.2305,1.2305,1.2305,1.2305,1.2305,1.2268,1.2231,1.2194,1.2194,1.2157,1.2194,1.2194,1.2231,1.2268,1.2305,1.2305,1.2268,1.2187,1.2187,1.2194,1.2114,1.2003,1.2003,1.1545,1.113,1.087,1.0045,0.9216,0.8331,0.7606,0.6909,0.6765,0.6709,0.6854,0.7018,0.7095,0.7095,0.7095,0.7095,0.7095,0.7095,0.6966,0.6922,0.6789,0.6656,0.6564,0.6476,0.639,0.6393,0.639,0.639,0.6432,0.5672,0.487,0.4069,0.3357,0.2643,0.1882,0.1301,0.0763,0.0449,0.0224,0.0,-0.0045,-0.018,-0.0359,-0.0449,-0.0673,-0.1344,-0.1744,-0.2088,-0.2812,-0.3538,-0.3851,-0.3885,-0.4291,-0.4641,-0.5371,-0.6064,-0.6219,-0.6374,-0.6412,-0.6511,-0.6525,-0.6696,1.7286,1.7286,1.7286,1.6989,1.6448,1.636,1.5494,1.4315,1.3977,1.3338,1.2685,1.2378,1.2305,1.2305,1.2305,1.2305,1.2305,1.2305,1.2305,1.2305,1.2305,1.2305,1.2305,1.2305,1.2305,1.2305,1.2305,1.2305,1.2305,1.2305,1.2305,1.2305,1.2305,1.2305,1.2305,1.2305,1.2305,1.2305,1.2305,1.2305,1.2305,1.2305,1.2305,1.2305,1.2305,1.2305,1.2305,1.2268,1.2268,1.2305,1.2268,1.2231,1.2231,1.2077,1.1885,1.162,1.1168,1.049,0.9873,0.8599,0.7826,0.7511,0.7186,0.6923,0.7071,0.7095,0.7095,0.7095,0.7095,0.7095,0.7095,0.7051,0.701,0.6966,0.6877,0.6789,0.6745,0.67,0.6704,0.6792,0.6792,0.6745,0.6745,0.5894,0.5314,0.4603,0.3578,0.2774,0.1973,0.1436,0.0943,0.0628,0.027,0.0135,0.0045,-0.0045,-0.0225,-0.0314,-0.0718,-0.0852,-0.0939,0.0,0.0,-0.2592,-0.2595,-0.3224,-0.3789,-0.4245,-0.4896,-0.587,-0.6296,-0.6335,-0.6374,-0.6451,-0.6528,1.7286,1.7286,1.7286,1.7186,1.6894,1.6126,1.561,1.5225,1.4455,1.3758,1.3157,1.2604,1.2305,1.2305,1.2305,1.2305,1.2305,1.2305,1.2305,1.2305,1.2305,1.2305,1.2305,1.2305,1.2305,1.2305,1.2305,1.2305,1.2305,1.2305,1.2305,1.2305,1.2305,1.2305,1.2305,1.2305,1.2305,1.2305,1.2305,1.2305,1.2305,1.2305,1.2305,1.2305,1.2305,1.2305,1.2305,1.2305,1.2305,1.2305,1.2305,1.2305,1.2305,1.2305,1.2268,1.2187,1.1774,1.1583,1.1023,0.9503,0.8022,0.7514,0.7193,0.7031,0.7132,0.7095,0.7095,0.7095,0.7095,0.7095,0.7095,0.7095,0.7095,0.7095,0.7051,0.701,0.6925,0.6881,0.6881,0.6922,0.6925,0.6833,0.6922,0.6877,0.6384,0.5808,0.4736,0.3712,0.291,0.2286,0.1927,0.148,0.1122,0.0898,0.0853,0.0494,0.0,-0.009,0.0,0.0,0.0,0.0,0.0,0.0,-0.1426,-0.1965,-0.2488,-0.2926,-0.3767,-0.4971,-0.5789,-0.63,-0.6335,-0.6412,-0.6451,1.7286,1.7264,1.7074,1.7157,1.7157,1.617,1.5871,1.5966,1.4993,1.409,1.3546,1.2774,1.2342,1.2305,1.2305,1.2305,1.2305,1.2305,1.2305,1.2305,1.2305,1.2305,1.2305,1.2305,1.2305,1.2305,1.2305,1.2305,1.2305,1.2305,1.2305,1.2305,1.2305,1.2305,1.2305,1.2305,1.2305,1.2305,1.2305,1.2305,1.2305,1.2305,1.2305,1.2305,1.2305,1.2305,1.2305,1.2305,1.2305,1.2305,1.2305,1.2305,1.2305,1.2305,1.2305,1.2305,1.2268,1.2231,1.1583,1.0363,0.8622,0.7938,0.7651,0.7414,0.721,0.7136,0.7095,0.7095,0.7095,0.7095,0.7139,0.7095,0.7095,0.7095,0.7095,0.7054,0.701,0.6966,0.701,0.7051,0.701,0.6966,0.701,0.7054,0.6789,0.6387,0.5805,0.4823,0.4022,0.3489,0.3176,0.2686,0.2196,0.2017,0.1839,0.1256,0.0718,0.0494,0.0,0.0,0.0,0.0,0.0,0.0,-0.0848,-0.0872,-0.1345,-0.2044,-0.3084,-0.4187,-0.4968,-0.5747,-0.63,-0.6335,-0.6335,1.7242,1.7252,1.6682,1.6784,1.7165,1.6608,1.6375,1.6507,1.5631,1.4705,1.388,1.3068,1.2523,1.2399,1.2342,1.2342,1.2335,1.2342,1.2378,1.2378,1.2378,1.2342,1.2305,1.2305,1.2305,1.2305,1.2305,1.2305,1.2305,1.2305,1.2305,1.2305,1.2305,1.2305,1.2305,1.2305,1.2305,1.2305,1.2305,1.2305,1.2305,1.2305,1.2305,1.2305,1.2305,1.2305,1.2305,1.2305,1.2305,1.2305,1.2305,1.2305,1.2305,1.2305,1.2305,1.2305,1.2305,1.2305,1.2177,1.1162,0.9956,0.8743,0.8433,0.815,0.7468,0.7207,0.7241,0.7344,0.7166,0.7129,0.7136,0.7139,0.7136,0.7248,0.7241,0.7095,0.7098,0.7054,0.7095,0.7095,0.7095,0.7095,0.7095,0.7098,0.7013,0.6745,0.652,0.5894,0.5045,0.469,0.4423,0.4069,0.3534,0.3221,0.2908,0.1972,0.1435,0.1166,0.0,0.0,0.0,0.0,0.0,0.0,-0.0344,-0.0507,-0.0869,-0.1298,-0.2272,-0.3212,-0.4302,-0.5121,-0.5786,-0.6219,-0.6103,1.644,1.6082,1.674,1.6879,1.663,1.6016,1.6541,1.7686,1.709,1.6247,1.5319,1.4048,1.2934,1.2648,1.2489,1.2489,1.2526,1.2673,1.2673,1.2673,1.2569,1.2526,1.2452,1.2378,1.2305,1.2305,1.2305,1.2305,1.2305,1.2305,1.2305,1.2305,1.2305,1.2305,1.2305,1.2305,1.2305,1.2305,1.2305,1.2305,1.2305,1.2305,1.2305,1.2305,1.2305,1.2305,1.2305,1.2305,1.2305,1.2305,1.2305,1.2305,1.2305,1.2305,1.2305,1.2305,1.2305,1.2305,1.2274,1.1734,1.1082,1.0049,0.9293,0.9073,0.8681,0.8176,0.7959,0.7678,0.7406,0.7435,0.7667,0.7274,0.7281,0.7595,0.7599,0.7248,0.7095,0.7095,0.7095,0.7095,0.7095,0.7095,0.7095,0.7095,0.7054,0.6966,0.6741,0.6564,0.5894,0.5849,0.5714,0.5403,0.5001,0.4554,0.402,0.3175,0.2417,0.2059,0.1479,0.0,0.0,0.0,0.0,0.0,-0.0087,-0.0172,-0.0462,-0.0821,-0.1356,-0.2198,-0.3175,-0.4263,-0.5043,-0.5473,-0.5628,1.6126,1.5862,1.6645,1.6901,1.6645,1.6257,1.7122,1.852,1.8141,1.7433,1.6326,1.4801,1.3528,1.2931,1.2709,1.2709,1.2709,1.282,1.29,1.29,1.279,1.2716,1.2643,1.2526,1.2452,1.2372,1.2342,1.2305,1.2305,1.2305,1.2305,1.2305,1.2305,1.2305,1.2305,1.2305,1.2305,1.2305,1.2305,1.2305,1.2305,1.2305,1.2305,1.2305,1.2305,1.2305,1.2305,1.2305,1.2305,1.2305,1.2305,1.2305,1.2305,1.2305,1.2305,1.2305,1.2305,1.2305,1.2274,1.2274,1.1626,1.1023,1.0446,0.9948,0.9598,0.9067,0.8598,0.8208,0.7795,0.7848,0.801,0.7588,0.7635,0.7982,0.7881,0.7534,0.7173,0.7173,0.7139,0.7139,0.7095,0.7095,0.7095,0.7095,0.7095,0.7054,0.6966,0.6789,0.6653,0.6564,0.652,0.6296,0.6027,0.5581,0.5045,0.4421,0.3708,0.3038,0.2371,0.1703,0.0,0.0,0.0,0.009,0.0,-0.0044,-0.0085,-0.0374,-0.0849,-0.1271,-0.1852,-0.2945,-0.4146,-0.4613,-0.4846,1.6323,1.6331,1.6367,1.6667,1.715,1.7298,1.8041,1.8883,1.8784,1.8046,1.6731,1.5816,1.4561,1.327,1.3038,1.2994,1.2929,1.2929,1.2973,1.2973,1.2943,1.2936,1.2863,1.2709,1.2592,1.2519,1.2445,1.2342,1.2305,1.2305,1.2305,1.2305,1.2305,1.2305,1.2305,1.2305,1.2305,1.2305,1.2305,1.2305,1.2305,1.2305,1.2305,1.2305,1.2305,1.2305,1.2305,1.2305,1.2305,1.2305,1.2305,1.2305,1.2305,1.2305,1.2305,1.2305,1.2305,1.2305,1.2305,1.2305,1.2281,1.1803,1.1415,1.0645,1.0138,0.9922,0.9496,0.8957,0.8486,0.8431,0.838,0.8231,0.8083,0.8191,0.8233,0.7853,0.7351,0.7207,0.7136,0.7139,0.7095,0.7095,0.7095,0.7095,0.7095,0.7095,0.7051,0.7007,0.6877,0.6833,0.6789,0.6745,0.6564,0.6428,0.5938,0.5401,0.4868,0.4154,0.3618,0.2952,0.2283,0.1569,0.1121,0.0718,0.0224,0.0,0.0,0.0,-0.0287,-0.0687,-0.1082,-0.1854,-0.3102,-0.3561,-0.3871,1.479,1.4428,1.5313,1.5761,1.6263,1.8367,1.955,1.9847,2.0457,2.0148,1.902,1.7855,1.6146,1.4499,1.4408,1.3859,1.3448,1.3229,1.3309,1.3273,1.3163,1.3127,1.3046,1.2893,1.2746,1.2636,1.2526,1.2452,1.2342,1.2305,1.2305,1.2305,1.2305,1.2305,1.2305,1.2305,1.2305,1.2305,1.2305,1.2305,1.2305,1.2305,1.2305,1.2305,1.2305,1.2305,1.2305,1.2305,1.2305,1.2305,1.2305,1.2305,1.2305,1.2305,1.2305,1.2305,1.2305,1.2305,1.2305,1.2305,1.2305,1.2305,1.1989,1.1846,1.1339,1.0875,1.0498,0.9904,0.9357,0.9233,0.9286,0.9208,0.92,0.9294,0.9098,0.8505,0.8056,0.7694,0.7581,0.7187,0.7187,0.7095,0.7095,0.7095,0.7095,0.7095,0.7095,0.7095,0.7095,0.701,0.6969,0.6966,0.6922,0.6741,0.6741,0.6337,0.5849,0.5314,0.4779,0.4154,0.3352,0.2638,0.1969,0.1341,0.0759,0.0,0.0,0.0,0.0,0.0,-0.0492,-0.1244,-0.1893,-0.2358,-0.2898,1.4949,1.4653,1.5157,1.5562,1.6229,1.8781,2.0041,2.0369,2.1495,2.133,2.0048,1.9074,1.7505,1.5535,1.5085,1.4452,1.3397,1.3382,1.3455,1.3419,1.3382,1.3346,1.3236,1.3141,1.2973,1.2826,1.2673,1.2526,1.2415,1.2342,1.2305,1.2305,1.2305,1.2305,1.2305,1.2305,1.2305,1.2305,1.2305,1.2305,1.2305,1.2305,1.2305,1.2305,1.2305,1.2305,1.2305,1.2305,1.2305,1.2305,1.2305,1.2305,1.2305,1.2305,1.2305,1.2305,1.2305,1.2305,1.2305,1.2305,1.2305,1.2311,1.2318,1.2287,1.2239,1.193,1.1492,1.0978,1.045,1.0111,1.0216,1.0319,1.0486,1.0655,1.001,0.9359,0.8866,0.8363,0.7909,0.7394,0.7231,0.7139,0.7095,0.7095,0.7095,0.7095,0.7095,0.7095,0.7095,0.7095,0.7054,0.7054,0.7054,0.7007,0.7051,0.7007,0.6605,0.6204,0.5983,0.5312,0.4463,0.3662,0.295,0.2096,0.1244,0.0,0.0,0.0,0.0,0.0,0.0,0.0,0.0,-0.1263,-0.1887,1.6268,1.6181,1.5684,1.5926,1.6754,1.8745,1.9812,2.0381,2.1842,2.1723,2.0473,1.9845,1.8496,1.6792,1.6213,1.5133,1.4257,1.3939,1.3859,1.3601,1.3674,1.3689,1.363,1.3403,1.3343,1.311,1.2893,1.2709,1.2562,1.2415,1.2305,1.2305,1.2342,1.2378,1.2378,1.2378,1.2342,1.2305,1.2305,1.2305,1.2305,1.2305,1.2305,1.2305,1.2305,1.2305,1.2305,1.2305,1.2305,1.2305,1.2305,1.2305,1.2305,1.2305,1.2305,1.2305,1.2305,1.2305,1.2305,1.2305,1.2351,1.2351,1.2345,1.2538,1.2619,1.2582,1.2114,1.1872,1.1424,1.1359,1.1506,1.116,1.1103,1.1224,1.0916,1.0346,0.9829,0.9164,0.8295,0.7803,0.7394,0.7305,0.7095,0.7095,0.7095,0.7095,0.7095,0.7095,0.7095,0.7095,0.7095,0.7095,0.7095,0.7095,0.7095,0.7051,0.7095,0.6918,0.6741,0.6473,0.5622,0.4776,0.3887,0.3385,0.2933,0.2052,0.0,0.0,0.0,0.0,0.0,0.0,0.0,0.0,-0.087,1.6805,1.6754,1.6229,1.6596,1.7714,1.8888,1.9789,2.049,2.2202,2.2528,2.1916,2.1329,2.0235,1.8446,1.7873,1.674,1.517,1.4825,1.4614,1.4335,1.4235,1.4088,1.4143,1.3937,1.3722,1.3351,1.3046,1.2856,1.2636,1.2452,1.2372,1.2526,1.2526,1.2526,1.2526,1.2526,1.2452,1.2342,1.2305,1.2305,1.2305,1.2305,1.2305,1.2305,1.2305,1.2305,1.2305,1.2305,1.2305,1.2305,1.2305,1.2305,1.2305,1.2305,1.2305,1.2305,1.2311,1.2318,1.2351,1.2378,1.2445,1.263,1.2717,1.2846,1.2939,1.2899,1.2805,1.2622,1.2572,1.2624,1.2554,1.2105,1.1727,1.1828,1.1828,1.1329,1.079,0.9829,0.8853,0.8303,0.7836,0.7518,0.7312,0.7139,0.7095,0.7095,0.7095,0.7095,0.7095,0.7095,0.7095,0.7095,0.7095,0.7095,0.7095,0.7095,0.7095,0.7095,0.6962,0.6786,0.6605,0.5847,0.5045,0.5176,0.4858,0.3707,0.2639,0.0,0.0,0.1149,0.0,0.0,0.0,0.0,-0.0203,1.7801,1.7749,1.7251,1.7493,1.8346,1.9342,2.0251,2.113,2.2303,2.2842,2.2701,2.2272,2.1259,1.9817,1.9254,1.8121,1.633,1.6092,1.5512,1.5048,1.495,1.4373,1.4334,1.4256,1.3776,1.3389,1.3243,1.301,1.2753,1.2673,1.2636,1.2709,1.2746,1.2746,1.2716,1.2673,1.259,1.2452,1.2405,1.2358,1.2358,1.2325,1.2311,1.2305,1.2305,1.2305,1.2305,1.2305,1.2305,1.2305,1.2305,1.2305,1.2305,1.2305,1.2305,1.2305,1.2318,1.2365,1.2489,1.2576,1.2683,1.2878,1.2998,1.31,1.332,1.326,1.3273,1.3171,1.3323,1.3422,1.34,1.3016,1.2866,1.2889,1.2657,1.2252,1.1798,1.1168,1.0396,0.9785,0.9165,0.8396,0.8061,0.7499,0.7411,0.7139,0.7139,0.7183,0.7183,0.7095,0.7095,0.7095,0.7095,0.7095,0.7095,0.7095,0.7095,0.7095,0.7095,0.7007,0.6827,0.6517,0.6204,0.6068,0.5664,0.4774,0.3796,0.3129,0.2639,0.2314,0.1903,0.0,0.1132,0.0862,0.0631,1.9039,1.894,1.8364,1.8452,1.9026,1.9913,2.0885,2.1764,2.2347,2.2769,2.2994,2.2744,2.1662,2.0671,1.9811,1.8635,1.7808,1.7511,1.672,1.6261,1.6092,1.5787,1.5049,1.4306,1.403,1.3638,1.328,1.3163,1.2936,1.2863,1.2826,1.2936,1.2936,1.2929,1.2914,1.2931,1.2916,1.2904,1.2825,1.2705,1.2573,1.2402,1.2325,1.2305,1.2305,1.2305,1.2305,1.2305,1.2305,1.2305,1.2318,1.2365,1.2405,1.2432,1.2492,1.2505,1.2565,1.2659,1.2784,1.2851,1.2993,1.3166,1.3233,1.334,1.356,1.3646,1.3646,1.374,1.3891,1.3964,1.3893,1.3857,1.376,1.3587,1.331,1.3073,1.2659,1.2272,1.1649,1.1075,1.0331,0.9435,0.889,0.8285,0.7937,0.7577,0.736,0.7312,0.7268,0.7183,0.7095,0.7095,0.7095,0.7095,0.7095,0.7095,0.7095,0.7095,0.7095,0.7095,0.7051,0.6782,0.665,0.6605,0.6071,0.5534,0.4956,0.4332,0.3887,0.3443,0.2763,0.2259,0.2248,0.1966,0.169,2.0246,2.0188,1.9119,1.9425,2.0529,2.0376,2.0977,2.2288,2.28,2.3033,2.3052,2.3013,2.2566,2.1955,2.1173,2.0226,1.9433,1.9094,1.8904,1.8578,1.8126,1.7623,1.6811,1.5693,1.4973,1.4215,1.3519,1.325,1.3444,1.3211,1.3075,1.3338,1.3301,1.3286,1.335,1.3452,1.3772,1.3691,1.3662,1.3653,1.367,1.3265,1.2409,1.2305,1.2305,1.2305,1.2305,1.2305,1.2305,1.2305,1.2365,1.2492,1.263,1.271,1.2752,1.2839,1.2893,1.2979,1.3073,1.3113,1.328,1.3473,1.3547,1.3626,1.3841,1.3941,1.3948,1.3948,1.4075,1.4075,1.4039,1.4039,1.3942,1.3701,1.348,1.3376,1.3121,1.2713,1.223,1.1759,1.1225,1.0656,1.0265,0.9836,0.9666,0.9226,0.8711,0.8623,0.8321,0.7793,0.7316,0.7272,0.7316,0.7095,0.7095,0.7095,0.7095,0.7095,0.7139,0.7228,0.7228,0.7139,0.7007,0.6874,0.6874,0.6561,0.5983,0.5403,0.5092,0.4556,0.3575,0.3031,0.3109,0.3055,0.2768]}]]